GFSSGP_sfc_temp_000.txt.gz
Temp
74 84 84 84 68 71 67 74 81 77 77 84 85 83 77 77 73 62 87 89 88 83 81 80 75 75 76 76 77 76 76 76 76 76 75 75 75 75 74 74 74 75 76 76 77 76 75 75 74
83 87 87 78 65 63 69 78 75 77 82 86 86 85 79 72 82 82 83 90 87 85 83 80 74 75 76 75 76 76 76 76 75 75 75 75 75 74 74 73 73 74 75 75 75 75 74 73 73
78 89 77 70 68 64 68 77 76 80 85 85 81 84 81 77 84 83 88 90 88 83 79 76 73 75 75 75 75 75 74 74 74 75 75 75 74 74 73 73 73 74 74 74 74 73 72 72 71
84 84 80 69 67 75 76 77 80 79 83 86 84 75 84 89 84 87 90 91 89 80 77 72 72 73 74 74 74 74 73 73 73 73 74 74 73 73 72 72 72 73 73 73 72 72 71 70 70
84 79 68 68 72 77 80 82 82 79 80 82 84 75 77 84 89 89 89 90 87 81 78 75 71 72 73 74 73 73 72 72 72 72 72 73 72 72 71 71 71 71 71 71 71 70 70 70 70
75 78 64 64 71 77 80 84 83 81 83 82 81 78 76 87 86 87 89 88 88 84 79 77 73 72 72 72 72 71 71 71 72 72 72 72 71 71 71 71 70 70 70 70 69 69 69 69 69
71 68 65 69 70 73 77 84 81 81 81 81 86 75 79 83 86 88 88 88 86 86 83 80 76 72 71 70 70 70 70 70 70 70 70 70 70 70 70 70 70 70 70 69 69 68 68 68 68
79 75 67 71 69 70 80 82 85 83 78 88 88 75 73 81 86 86 86 86 86 85 86 82 78 79 75 71 70 70 70 70 70 70 70 70 70 70 70 70 70 69 69 68 68 68 68 68 68
87 70 68 71 72 73 81 78 84 86 82 84 85 84 84 85 86 83 82 83 83 85 82 81 83 80 78 75 72 70 70 70 70 70 70 69 72 71 70 69 69 69 69 68 68 67 67 67 67
80 72 73 80 80 77 79 80 80 79 78 79 81 86 85 84 82 80 80 79 80 80 82 82 79 78 79 85 73 75 77 74 74 75 74 74 74 74 75 72 68 68 68 68 67 67 66 66 66
81 72 78 79 80 83 80 80 83 79 75 80 78 81 82 81 80 80 82 82 82 83 83 81 78 78 79 78 77 78 77 75 75 76 75 75 74 73 71 68 67 66 66 67 65 66 64 68 66
76 81 81 80 82 81 79 82 79 80 80 85 85 85 83 81 81 81 82 83 83 83 83 81 79 77 78 79 77 77 77 75 75 74 75 72 71 70 70 70 70 69 68 69 68 67 68 67 68
78 79 81 82 81 81 81 79 79 79 85 87 88 86 83 82 83 84 85 85 84 83 82 81 79 77 77 76 76 75 75 74 74 75 74 72 71 69 70 69 69 68 69 68 67 67 67 66 67
82 81 80 81 80 80 77 78 79 82 86 84 85 84 84 84 84 83 83 82 81 84 83 81 81 78 78 77 76 75 75 74 74 74 73 74 71 69 69 68 68 68 68 68 67 66 66 66 66
82 75 78 78 79 77 80 73 74 83 85 83 83 83 85 85 86 84 84 83 84 85 85 76 70 72 76 77 76 75 75 75 74 74 73 74 73 70 69 68 68 68 68 68 67 67 66 65 67
75 76 68 77 79 79 77 67 79 84 82 80 82 83 84 86 86 87 85 85 86 85 82 67 78 76 76 75 75 76 75 73 74 73 73 73 74 72 69 67 67 68 67 67 66 65 64 64 64
72 65 68 70 80 78 76 70 80 84 82 80 82 83 84 84 86 86 86 85 85 86 84 80 75 75 76 75 76 75 74 73 73 72 72 71 71 71 68 66 66 67 66 65 65 66 64 63 63
63 67 70 69 74 75 73 74 78 81 81 79 81 82 83 83 85 86 86 86 85 85 84 83 75 75 77 76 74 74 73 72 73 71 70 71 70 70 67 66 65 66 65 64 63 62 63 62 63
72 70 69 72 75 71 72 72 75 79 80 78 79 79 80 79 80 80 79 79 80 80 82 79 74 74 76 74 71 68 66 69 69 70 70 70 69 68 65 64 64 63 62 61 62 61 60 61 61
71 68 68 72 74 71 72 71 74 76 76 77 77 77 77 77 78 78 77 77 76 76 75 73 73 73 73 72 69 68 68 68 69 69 68 69 66 67 67 63 63 62 60 59 59 59 58 59 60
70 66 64 64 71 74 70 67 69 74 76 76 77 77 77 75 74 75 75 73 72 72 72 73 72 70 68 70 71 68 68 66 65 65 65 66 66 67 65 63 62 61 59 57 57 57 56 54 56
63 68 66 65 63 58 71 55 65 69 69 71 72 73 74 75 76 76 73 71 70 69 70 71 71 71 70 68 67 65 63 62 64 64 64 64 64 63 64 62 60 59 57 56 56 60 54 53 51
64 68 66 66 63 63 65 59 63 70 65 67 69 71 72 73 73 72 72 71 71 69 68 70 70 71 70 67 65 63 62 61 61 60 60 61 61 61 61 60 57 56 56 55 55 54 52 52 48
71 67 67 66 63 50 62 60 54 62 64 66 69 70 72 72 72 72 73 72 70 69 68 68 69 70 69 67 65 62 60 59 59 59 57 57 57 57 58 59 56 55 54 54 53 52 50 46 46
70 64 50 46 47 46 62 58 57 66 68 69 68 69 70 71 71 72 72 71 70 69 69 69 69 69 69 66 65 64 62 60 59 57 55 54 54 54 54 55 54 53 53 54 54 51 49 46 44
64 62 48 39 41 48 62 54 56 67 69 70 70 70 71 70 70 70 70 70 70 69 69 68 68 67 68 66 65 63 61 59 58 56 54 53 52 53 54 54 54 53 51 50 49 47 47 46 45
62 55 63 51 47 43 55 59 64 67 66 68 68 69 69 70 70 70 72 70 70 69 68 67 67 67 67 65 62 59 58 57 56 55 54 54 54 56 52 51 51 51 50 48 46 44 44 43 43
65 67 52 53 38 37 49 53 50 59 63 66 66 67 69 70 70 69 70 69 69 68 66 65 65 65 64 61 58 58 57 58 57 56 54 53 52 52 51 50 49 49 48 48 47 43 44 44 42
61 59 59 58 50 40 39 48 64 63 64 63 65 68 68 68 68 69 68 68 68 67 66 64 62 62 61 60 58 57 56 56 56 54 52 51 50 50 49 49 48 48 47 44 43 42 43 43 41
64 60 59 44 44 45 42 45 67 66 65 65 65 66 67 67 66 66 65 64 64 63 63 62 60 59 59 58 57 56 56 56 54 52 51 50 49 49 49 48 47 46 45 43 41 41 42 42 41

GFSSGP_sfc_temp_003.txt.gz
Temp
68 74 73 71 59 57 54 63 73 68 69 77 78 72 67 69 64 56 78 76 76 73 75 76 74 75 75 75 75 75 76 76 76 75 75 74 74 74 74 74 74 75 76 76 76 75 75 74 73
73 80 73 67 55 50 56 70 65 69 75 78 78 74 70 64 74 73 72 78 77 76 75 75 73 74 74 74 74 75 76 76 75 75 75 74 74 74 74 73 73 74 74 75 75 74 73 72 72
74 78 66 60 55 52 54 68 68 73 78 77 72 76 72 68 76 74 79 79 76 73 74 74 73 73 74 74 74 73 73 74 74 74 74 74 74 74 73 72 73 74 74 74 74 73 72 70 70
75 71 68 57 56 64 65 68 73 74 77 78 75 65 74 78 76 79 79 75 72 71 72 71 72 73 73 74 73 73 72 72 72 73 74 73 73 73 72 72 72 72 73 73 72 72 70 70 69
71 67 56 54 60 64 70 75 74 71 72 73 74 66 67 76 79 79 75 76 70 70 71 72 70 72 73 73 73 72 72 71 71 72 72 72 72 72 71 71 71 71 71 71 70 70 70 69 69
65 66 54 51 62 70 70 75 76 72 74 74 70 68 67 76 76 77 78 74 74 70 71 72 72 71 71 71 71 70 71 71 71 71 71 72 71 71 71 70 70 70 70 70 69 69 69 69 69
61 57 55 58 63 65 71 77 72 72 72 71 74 65 68 72 76 77 75 75 74 72 69 68 70 70 69 69 69 69 70 70 70 70 70 70 70 70 70 70 70 70 69 69 69 69 68 68 68
68 62 59 60 62 61 71 73 74 74 69 79 76 63 61 71 76 76 75 75 75 74 72 69 68 68 66 67 68 69 69 69 69 70 69 69 69 70 70 69 70 70 69 69 69 68 68 68 67
74 59 55 60 65 62 69 69 73 75 75 74 73 73 73 76 76 73 71 71 73 76 74 71 70 69 67 66 69 69 70 69 69 69 69 67 66 67 68 67 69 69 69 68 68 68 67 67 67
66 57 61 70 69 65 68 68 72 70 70 69 70 75 77 76 74 71 70 70 71 72 72 73 72 70 69 77 67 66 69 68 67 68 67 66 65 65 69 68 68 68 68 68 67 67 67 66 61
65 61 68 70 72 72 68 70 72 67 63 69 67 70 73 73 71 72 72 72 72 74 74 72 72 72 71 70 66 67 66 65 67 68 68 68 68 66 66 63 64 62 65 63 65 63 62 61 60
64 71 72 70 73 72 69 70 68 65 68 75 75 75 74 72 72 72 72 72 73 73 74 72 71 72 70 69 68 67 68 67 66 68 69 66 64 64 64 63 63 62 62 61 61 60 62 61 63
68 69 72 73 73 70 75 69 69 68 74 76 76 77 74 74 72 74 75 74 73 72 73 73 71 69 70 70 67 68 67 68 67 67 68 67 65 64 64 63 63 63 63 62 62 62 63 63 63
71 71 69 70 68 69 68 67 69 69 74 77 76 73 73 75 75 73 74 73 73 75 75 73 69 70 72 69 69 68 67 67 67 66 67 68 66 63 63 63 63 63 63 63 63 63 62 62 62
73 65 67 68 69 68 69 61 64 70 74 74 74 73 72 76 75 75 74 74 74 74 71 68 68 68 68 70 70 69 68 69 66 66 67 68 67 65 64 62 62 63 63 63 62 62 61 60 62
65 62 55 65 69 70 67 55 65 72 72 68 70 73 74 74 75 75 74 75 75 69 70 68 70 68 66 68 69 68 67 67 66 65 64 66 66 64 62 62 62 61 62 62 61 60 60 59 58
58 51 56 62 70 67 63 57 67 70 71 69 67 69 71 70 71 73 74 74 75 71 68 66 64 65 65 68 68 67 68 67 65 63 63 65 65 65 62 61 60 60 60 59 59 60 58 57 58
52 56 56 56 62 64 60 58 64 70 70 68 63 64 66 67 67 72 71 71 71 67 71 67 64 63 67 68 68 63 63 63 62 62 63 65 63 63 61 61 61 60 59 57 57 56 57 56 58
62 59 57 57 67 61 61 59 63 66 64 64 64 65 66 67 69 70 70 69 68 69 68 65 63 63 65 60 60 59 60 60 61 62 63 63 64 65 62 59 58 57 57 55 56 55 55 56 55
63 59 55 61 67 61 57 57 62 66 64 63 65 64 64 65 67 68 66 65 62 65 65 63 62 61 62 60 59 60 60 61 61 61 62 63 61 61 62 58 57 56 55 54 54 54 52 52 53
59 56 55 56 62 61 57 54 59 64 67 68 66 65 65 64 63 65 65 61 62 62 62 63 63 62 61 61 62 61 59 58 58 59 59 60 59 59 58 57 55 54 53 52 52 52 51 49 50
54 62 61 59 54 46 57 41 54 60 60 63 63 61 62 63 64 65 62 59 60 58 61 62 63 64 64 61 58 56 54 54 55 55 55 56 57 57 58 56 54 52 51 51 50 55 49 48 45
57 61 59 57 52 49 53 46 53 61 56 58 59 61 60 60 61 60 60 61 60 60 59 60 62 63 63 61 59 56 54 54 54 54 52 52 53 54 55 54 52 51 50 49 48 47 46 45 44
65 60 58 56 51 36 51 48 47 51 56 57 60 62 61 60 60 61 61 62 60 59 60 61 62 62 61 60 60 57 55 54 51 50 49 50 50 51 53 54 51 51 49 48 47 46 45 43 46
59 51 35 35 31 33 54 50 45 56 60 60 58 58 59 60 60 60 60 59 59 58 59 60 61 62 61 58 57 56 54 52 49 49 48 49 49 49 50 49 48 47 47 47 45 44 43 42 40
54 52 35 31 27 37 53 44 46 59 61 62 63 61 61 60 60 60 61 59 60 61 61 60 62 62 63 58 55 53 52 50 50 53 52 51 48 48 49 47 47 47 47 45 43 42 42 43 40
55 44 54 41 35 32 43 49 56 60 60 62 61 62 59 58 59 61 64 65 63 63 59 58 59 59 57 55 52 52 54 54 52 54 51 47 48 52 47 46 45 45 45 44 44 41 40 40 39
57 60 42 39 30 29 39 43 42 52 54 60 58 57 58 59 60 60 61 58 57 57 56 56 56 55 54 52 52 54 54 54 52 48 47 46 46 47 46 45 44 44 44 43 41 39 38 38 37
53 51 51 49 38 28 25 37 52 53 55 54 55 56 55 56 56 56 56 56 56 55 55 54 54 55 52 55 55 54 54 51 49 47 46 46 45 45 45 45 44 43 42 41 39 38 38 38 38
56 52 51 32 35 32 29 34 54 55 57 57 58 58 56 56 55 55 55 55 54 53 54 53 53 52 52 53 52 50 50 51 47 46 46 45 45 45 44 43 42 42 41 39 38 37 38 37 36

GFSSGP_sfc_temp_006.txt.gz
Temp
69 72 72 71 59 56 49 60 70 65 65 71 74 67 63 64 63 55 71 73 73 72 73 75 73 74 75 75 75 75 75 75 75 75 74 74 74 74 74 74 74 74 75 75 75 75 74 73 72
71 77 71 64 54 48 52 65 62 66 71 73 73 71 66 60 68 66 67 73 74 73 73 74 73 73 74 74 74 75 75 75 75 74 74 74 74 73 73 73 73 74 74 75 75 74 73 72 71
73 77 66 59 52 47 52 65 69 70 73 74 68 71 70 64 70 69 72 74 75 72 73 73 72 73 73 73 73 73 73 73 73 74 74 74 73 73 73 72 72 73 73 74 73 73 71 70 69
73 70 66 56 50 58 64 65 73 71 73 74 71 65 72 75 73 73 75 73 72 72 71 71 71 72 73 73 73 73 72 72 72 73 73 73 73 73 72 71 72 72 72 72 72 71 70 69 69
69 65 55 50 54 64 68 72 73 71 69 69 72 64 66 72 75 74 72 72 72 73 73 72 70 71 72 73 73 72 72 71 72 72 72 72 72 72 71 71 70 70 71 71 70 70 70 69 69
63 63 52 47 56 69 71 72 73 69 69 69 68 67 66 72 72 72 72 71 73 72 73 73 71 71 71 72 71 70 70 70 71 71 71 72 71 71 70 70 70 70 70 70 69 69 69 69 69
61 57 53 53 60 65 71 72 68 68 67 66 71 62 66 70 72 72 70 69 70 70 70 70 70 70 69 69 69 69 69 70 70 70 70 70 70 70 70 70 70 70 70 69 69 69 68 69 68
63 60 55 57 60 61 70 70 69 70 63 73 74 60 62 69 72 72 70 68 67 67 68 66 66 67 66 67 68 68 69 69 69 69 69 69 69 69 70 69 70 70 70 70 69 69 68 68 67
67 55 52 57 61 65 70 69 69 70 70 68 68 68 73 71 71 69 66 65 65 68 66 65 65 65 65 65 68 69 69 69 69 69 69 66 65 66 67 67 68 69 69 69 69 68 68 67 67
62 55 57 67 68 65 66 69 70 68 65 63 65 71 72 72 71 69 67 66 67 66 66 67 66 65 65 72 66 65 68 66 66 66 65 64 64 64 67 66 67 68 68 68 68 67 67 66 60
59 58 66 67 71 70 66 68 69 66 59 66 65 67 69 70 68 69 68 70 70 70 70 68 68 66 66 68 64 63 64 64 64 65 64 64 65 63 63 61 62 62 64 62 63 62 61 60 59
59 64 68 68 68 67 66 68 66 62 67 71 72 72 72 69 69 70 68 69 68 71 70 70 68 67 65 65 64 64 64 64 63 64 65 63 62 61 61 60 61 60 60 60 60 59 60 59 60
62 64 68 69 69 66 70 66 67 63 68 73 73 73 71 71 71 73 73 72 69 71 71 69 68 67 67 67 66 65 65 65 65 65 66 63 63 61 61 61 61 60 60 59 59 59 60 60 61
66 67 66 67 65 66 66 63 66 65 67 70 71 69 71 72 72 71 69 71 70 73 68 66 66 67 70 68 66 66 64 63 64 64 64 65 63 61 61 60 61 60 59 59 59 59 59 59 59
67 61 62 61 63 62 67 58 59 68 69 68 69 70 70 72 72 73 72 73 72 73 69 67 67 66 66 68 67 66 62 64 63 63 63 64 63 62 60 59 59 59 59 59 59 59 58 57 59
63 58 52 61 64 65 63 53 63 65 68 65 66 68 69 69 72 72 70 70 70 69 69 66 68 66 64 66 65 66 65 62 62 61 61 63 63 61 59 59 59 58 58 57 57 57 57 56 55
54 48 51 57 65 62 59 54 62 65 67 65 62 60 62 63 65 65 66 66 67 68 67 65 63 63 64 64 62 62 61 60 62 61 61 62 63 63 60 59 59 58 57 56 55 55 54 53 54
49 51 47 54 58 60 56 53 60 61 61 59 58 60 61 61 61 64 64 64 63 63 62 62 62 63 63 61 59 58 57 60 60 60 61 62 61 61 59 58 57 56 55 54 54 53 53 52 51
60 54 52 53 62 60 56 54 55 57 60 59 59 60 60 60 63 63 63 63 63 62 61 59 59 63 63 57 56 55 57 58 58 58 59 59 60 59 57 54 54 54 53 52 52 51 50 51 51
58 55 53 58 64 59 55 52 55 59 58 60 59 59 59 59 61 62 61 59 57 59 59 58 59 59 59 57 56 57 56 56 57 60 61 58 57 57 58 53 52 52 51 50 49 49 48 49 49
54 53 51 53 56 58 57 51 54 58 60 60 59 59 60 59 59 60 59 56 56 57 58 60 59 59 58 59 57 56 56 56 56 55 54 56 55 55 54 52 51 50 50 48 48 47 46 45 46
49 57 57 55 50 45 52 38 49 53 55 57 57 56 58 58 60 60 57 56 56 55 56 59 60 60 60 59 56 56 54 52 52 51 51 51 52 53 54 52 50 49 48 47 46 49 45 45 42
54 58 55 54 48 45 48 42 47 54 51 52 52 55 55 56 57 56 57 57 57 56 56 57 59 60 59 58 57 54 53 51 50 49 49 50 50 52 52 50 51 50 48 46 45 44 43 43 42
60 55 54 51 47 35 47 44 43 46 52 54 55 55 56 55 55 57 57 59 57 56 57 57 59 60 59 57 56 55 52 50 48 48 47 48 48 49 49 50 46 45 44 43 43 42 41 40 40
56 47 34 34 30 32 50 43 43 53 57 57 54 54 55 55 54 55 56 56 57 55 57 57 58 59 59 56 52 51 49 48 48 48 50 51 51 49 47 46 44 43 43 43 42 41 42 42 41
52 48 34 31 27 35 48 39 44 56 58 59 60 57 57 57 56 55 55 55 55 56 55 55 55 53 53 52 50 50 50 51 52 52 48 48 47 46 45 44 44 44 44 42 41 39 39 39 38
52 43 51 38 32 31 39 45 52 57 57 61 61 61 54 53 54 55 54 54 55 55 53 55 56 54 52 52 51 51 53 53 52 52 49 48 45 47 44 44 43 43 43 42 40 38 37 36 36
54 56 41 36 29 27 36 39 41 48 52 54 51 50 52 53 53 54 54 52 52 53 55 56 55 53 52 51 52 55 53 52 49 46 44 44 44 45 44 43 42 42 41 40 39 37 37 36 35
50 47 46 44 34 28 24 34 48 50 52 49 50 51 51 51 51 52 52 52 52 53 52 52 50 51 50 50 50 49 48 48 46 44 46 44 44 45 46 44 43 42 40 39 37 36 36 36 35
53 49 46 31 35 29 27 34 52 51 53 53 53 53 53 52 52 51 51 51 50 50 50 49 49 50 50 49 49 48 47 47 45 44 43 43 44 43 44 44 42 40 39 37 36 35 36 34 33

GFSSGP_sfc_temp_009.txt.gz
Temp
65 69 71 71 59 54 48 58 62 61 62 69 68 66 61 62 61 54 68 71 72 71 73 74 73 74 74 74 74 74 75 75 75 74 74 74 74 74 73 73 74 74 75 75 75 74 74 73 72
69 73 70 63 52 48 51 61 61 64 68 71 72 70 65 61 66 65 67 72 72 72 72 73 73 73 74 74 74 74 75 75 74 74 74 74 74 73 73 73 73 74 74 75 74 74 73 71 70
69 72 65 58 49 45 52 61 63 68 71 72 68 70 67 63 67 67 70 72 72 71 72 72 72 72 73 73 74 74 74 73 73 73 74 74 73 73 73 72 72 73 74 74 73 72 71 70 69
67 65 63 55 51 55 59 63 67 68 71 73 69 64 71 70 68 69 72 73 70 69 70 70 71 72 73 73 73 73 72 72 72 72 73 73 73 73 72 72 72 72 72 72 72 71 70 69 69
63 59 54 51 54 60 64 68 70 67 67 68 70 64 64 68 72 71 70 72 70 69 70 71 70 71 72 73 73 72 71 71 71 72 72 72 72 72 71 71 71 71 71 71 71 70 70 69 69
58 57 50 49 56 64 67 69 68 67 68 68 67 64 61 69 69 70 71 72 74 72 72 71 71 71 71 71 71 70 70 70 70 71 71 72 71 71 71 70 70 70 70 70 70 69 69 69 69
53 53 48 54 56 62 66 71 66 66 66 66 70 58 62 65 67 70 72 73 73 73 72 72 72 70 69 69 69 69 69 70 70 70 70 70 69 70 70 70 70 70 70 70 70 69 69 69 68
59 56 50 56 56 56 69 69 67 68 63 72 70 58 56 65 67 69 70 70 71 71 71 68 66 66 66 66 68 68 69 69 69 69 69 68 69 69 70 69 69 70 70 70 70 69 69 68 68
60 51 48 55 58 62 70 65 68 69 67 67 66 65 70 68 67 65 65 66 66 66 64 64 64 64 64 64 67 68 69 69 68 68 68 66 64 64 65 67 68 69 69 69 69 68 68 67 66
57 48 54 65 65 65 68 66 68 65 62 61 63 67 69 67 65 63 62 61 61 62 63 63 63 63 63 70 65 64 66 65 65 65 65 64 63 63 65 65 66 67 67 68 68 67 67 66 59
58 57 62 64 72 72 68 64 65 62 56 62 62 63 65 65 65 65 64 65 64 65 66 65 64 63 63 66 63 62 63 63 63 64 63 63 64 62 62 60 60 60 63 60 62 61 60 60 58
54 64 64 66 68 67 65 66 64 60 65 67 70 68 67 66 66 67 66 66 64 65 67 67 65 64 63 63 62 63 63 63 63 63 64 61 60 59 59 59 59 58 58 58 58 57 58 58 59
59 60 63 65 67 65 68 63 65 61 65 69 71 69 68 68 67 69 70 69 68 67 68 67 65 64 64 63 63 63 63 64 65 63 64 62 60 59 59 59 58 58 58 58 58 58 58 58 58
65 61 61 62 64 64 64 60 59 60 63 66 68 68 68 69 69 67 66 67 68 70 68 66 66 65 65 63 63 63 63 63 63 63 62 63 60 59 59 58 58 58 57 57 57 57 56 56 56
65 58 59 59 59 59 63 55 56 61 65 65 67 68 67 68 68 69 68 68 69 70 69 65 64 63 63 64 63 62 61 62 61 61 63 63 61 59 59 58 58 57 57 57 56 56 55 55 56
58 55 50 59 60 59 60 52 59 62 62 61 62 61 64 63 63 64 65 67 66 65 65 63 66 62 63 63 62 60 59 59 59 60 59 61 61 60 58 57 56 56 55 55 54 54 54 53 52
51 45 48 54 62 58 56 51 59 59 61 57 56 56 59 58 59 59 59 61 62 63 63 62 63 62 61 61 59 57 58 57 58 58 58 59 59 59 56 55 54 54 54 52 52 52 52 50 51
46 48 42 51 56 56 52 50 53 55 56 52 52 54 55 55 55 59 58 59 59 58 60 60 60 60 58 59 58 56 56 56 56 56 57 58 57 57 55 54 52 52 52 51 50 50 50 50 49
54 50 50 49 58 52 48 48 50 53 54 53 53 54 54 55 56 58 58 58 59 57 58 57 59 60 58 56 55 54 53 54 54 56 56 56 57 57 52 51 51 51 50 48 49 48 48 48 48
55 51 48 54 58 54 50 47 51 54 52 54 54 54 54 56 57 58 58 57 55 56 56 58 57 57 56 55 54 54 53 54 57 58 57 56 54 53 53 50 49 49 48 47 46 46 45 45 45
51 48 49 51 53 53 52 47 49 55 55 56 54 54 56 56 55 56 57 55 55 56 56 57 57 58 57 57 55 54 54 54 53 51 50 51 52 52 51 50 48 47 46 45 44 44 43 42 43
48 54 54 53 47 41 48 34 45 49 50 52 52 53 54 56 57 56 55 54 55 53 55 57 58 58 58 57 56 55 53 52 49 48 48 49 50 50 50 49 47 46 45 43 44 44 41 41 39
52 55 52 51 45 43 44 38 42 49 46 48 50 54 56 56 55 55 55 56 55 54 54 55 57 58 57 56 55 52 50 48 47 47 47 48 48 48 49 47 48 47 45 42 41 41 40 40 38
58 53 50 47 44 33 43 40 40 43 48 49 52 54 56 53 52 54 56 56 54 53 53 53 55 55 55 54 52 50 48 46 46 46 46 46 46 47 47 49 46 44 43 41 40 40 39 38 38
53 46 33 33 29 31 45 41 41 51 53 53 53 52 52 52 53 56 57 54 52 50 51 54 52 50 50 49 48 48 47 47 48 50 50 50 48 46 45 44 43 42 42 41 41 39 38 37 35
48 46 34 31 26 34 45 36 42 52 55 56 55 53 52 53 54 52 51 50 50 51 50 50 51 50 51 50 50 49 50 49 51 52 50 47 44 44 43 42 43 44 43 41 39 38 37 36 34
48 41 47 35 31 31 36 42 50 52 52 54 54 53 49 50 50 50 50 50 50 50 50 50 51 51 51 51 50 50 49 49 48 47 45 43 42 45 42 45 44 44 42 41 39 37 36 35 34
52 53 40 34 28 25 33 36 37 46 49 50 49 47 48 49 49 49 49 50 50 50 50 50 50 50 49 49 48 49 47 47 46 45 43 42 43 46 46 44 42 43 43 42 38 36 36 35 34
48 45 42 41 32 27 23 33 45 48 49 47 45 47 48 47 48 49 49 51 50 49 49 47 48 48 46 46 46 45 45 45 44 43 42 42 42 44 44 43 43 43 41 39 38 36 36 35 34
49 45 43 30 33 28 25 32 48 48 49 49 48 48 47 48 48 49 49 50 49 47 46 46 45 45 45 45 44 44 44 44 42 42 41 43 43 41 40 41 42 41 40 38 37 36 35 33 32

GFSSGP_sfc_temp_015.txt.gz
Temp
72 73 76 76 67 66 59 62 69 63 63 69 71 69 66 67 64 58 73 75 76 76 78 79 73 74 74 74 74 74 75 75 75 74 74 74 74 74 74 74 74 75 75 75 75 74 74 73 72
75 73 75 70 63 58 61 65 64 67 69 70 70 70 66 61 69 66 69 73 77 77 78 79 73 73 74 74 74 74 75 75 74 74 74 74 74 73 73 73 73 74 75 75 75 74 73 72 71
76 75 72 66 59 58 60 66 67 69 72 71 62 66 66 63 67 67 72 74 75 76 78 78 72 73 73 73 74 74 74 73 73 74 74 74 74 73 73 73 73 74 75 75 74 73 72 71 70
75 75 70 64 58 62 65 68 69 68 69 73 70 62 66 69 67 71 74 75 75 76 77 73 71 72 73 73 73 73 73 72 72 73 74 74 74 73 72 72 73 74 74 74 73 72 71 70 69
72 69 63 59 59 64 68 71 68 68 68 72 71 64 65 68 72 73 73 75 74 75 77 76 70 71 73 73 73 72 72 71 72 72 73 73 73 72 72 71 72 72 73 72 72 71 70 70 69
69 67 60 58 60 65 68 73 72 69 71 69 68 66 63 70 70 71 74 74 75 74 75 76 72 71 71 72 71 71 71 71 71 71 72 72 71 71 71 71 71 71 71 71 71 70 70 70 69
66 63 59 59 60 64 67 73 69 70 69 67 71 60 63 67 70 73 74 75 75 75 74 75 76 74 70 69 69 69 70 70 70 70 70 70 70 70 70 71 71 71 71 71 70 70 69 69 69
67 66 59 61 60 57 69 68 65 67 66 74 72 62 60 67 71 73 74 74 75 74 74 74 75 76 75 75 68 68 69 69 69 69 69 69 69 70 70 69 70 70 70 70 70 69 69 68 67
67 62 58 60 62 59 67 68 72 72 70 69 69 68 70 70 72 71 69 70 70 71 72 73 72 72 73 74 73 70 69 69 69 70 69 69 74 75 74 69 68 69 69 68 68 68 68 67 67
66 60 60 67 69 66 69 71 69 68 67 64 63 67 70 69 68 67 66 67 69 69 70 71 70 70 72 74 73 73 74 75 74 74 73 75 72 74 73 70 66 66 66 67 66 66 66 69 76
63 63 64 67 71 75 72 68 71 68 65 68 65 62 66 67 67 67 68 70 71 72 70 70 69 70 71 73 73 74 74 73 73 72 72 73 73 72 74 74 75 73 68 74 73 73 75 72 72
63 65 67 72 71 71 67 71 68 71 71 73 70 67 66 66 66 67 69 70 70 69 70 70 70 69 69 73 72 72 73 73 73 73 71 72 73 72 72 74 72 71 71 71 71 72 70 70 70
63 67 67 69 70 71 70 69 69 69 69 72 69 68 67 67 67 69 70 70 70 69 71 71 69 69 69 69 71 71 71 71 71 72 71 73 73 71 72 70 71 71 71 71 70 71 70 70 69
68 68 67 67 67 68 68 68 71 67 69 69 68 67 68 69 69 70 70 71 70 72 71 70 69 69 70 70 69 67 67 67 66 65 66 67 71 69 70 69 69 69 70 69 70 69 69 68 68
67 65 66 66 68 67 70 65 60 63 68 66 67 66 67 69 70 71 72 71 72 73 72 68 66 67 68 67 65 63 63 64 63 64 63 64 66 66 67 68 68 67 67 67 68 67 68 68 68
64 62 59 66 67 65 68 58 60 61 66 64 65 66 67 67 68 69 70 74 73 72 70 68 67 66 65 62 60 60 60 61 63 62 63 65 65 66 66 66 65 65 66 64 66 66 66 65 64
59 56 56 61 63 65 64 56 58 60 63 61 63 64 66 65 65 64 65 68 70 70 67 66 66 65 63 59 59 59 59 59 64 64 65 64 65 64 65 65 63 62 64 63 64 63 62 62 62
55 55 57 58 60 60 57 52 56 57 61 59 60 61 62 61 60 61 63 64 65 66 66 66 64 63 61 60 61 61 61 62 65 65 66 65 66 64 63 63 61 63 62 61 62 61 62 61 59
59 57 56 56 56 55 50 51 53 56 57 57 58 59 60 60 60 62 62 63 64 65 65 65 63 63 64 65 63 63 63 64 64 65 63 63 63 62 62 62 62 61 61 60 60 61 58 60 58
58 55 51 55 56 55 53 51 54 56 54 56 58 58 59 59 60 60 62 64 65 65 65 65 64 66 68 67 66 67 65 64 63 62 61 61 61 61 61 60 61 61 61 59 58 57 57 57 55
55 55 53 53 55 56 55 51 52 55 56 56 57 58 59 60 59 60 61 62 62 62 63 65 66 66 66 65 65 64 64 63 62 62 61 60 60 61 61 60 61 60 59 58 55 54 53 53 54
53 58 55 52 53 50 54 49 50 52 53 55 57 58 59 60 62 62 60 60 61 61 63 64 64 64 64 63 64 62 64 62 59 60 61 63 60 61 62 60 58 56 56 54 54 54 52 52 49
55 58 57 54 52 52 51 52 49 53 51 54 57 57 58 60 62 61 61 61 62 62 62 62 61 62 61 62 61 61 59 59 60 60 59 58 59 58 58 57 56 55 55 52 52 52 51 52 50
58 56 54 52 51 45 48 50 48 49 54 55 57 58 58 60 60 61 62 62 60 60 59 59 60 60 61 61 61 60 59 58 60 59 58 59 58 59 57 55 54 53 53 52 52 50 50 50 50
58 53 44 42 41 41 47 46 52 56 57 59 57 59 59 60 59 59 60 60 59 58 58 59 60 58 59 58 58 58 57 57 56 57 57 56 57 57 57 53 52 52 51 51 50 50 48 49 49
53 53 43 35 36 42 47 44 53 56 60 62 62 61 59 59 58 59 58 58 57 57 58 59 59 58 58 57 57 58 57 58 58 57 56 55 55 55 54 53 52 51 51 51 50 50 49 49 48
52 49 52 40 37 39 45 49 55 53 55 57 57 58 58 58 58 57 56 57 57 57 57 57 58 57 56 56 57 55 56 55 54 54 54 54 53 53 51 51 50 50 50 50 50 49 48 48 48
56 55 46 44 35 33 41 42 48 49 52 55 55 56 57 57 56 56 56 55 56 57 56 56 57 56 56 56 55 54 54 54 54 53 52 52 52 51 51 50 51 50 50 51 49 48 49 46 47
52 49 45 46 40 37 34 44 52 54 55 55 57 57 56 55 55 55 55 55 56 56 57 55 52 57 55 55 53 53 53 53 53 53 52 51 51 51 51 51 50 49 49 47 46 47 46 44 45
55 51 49 42 38 35 36 44 53 53 56 56 56 54 55 55 54 55 55 54 54 55 54 50 56 56 55 53 52 52 53 53 51 51 51 51 49 49 48 48 47 48 47 46 45 46 46 44 44

GFSSGP_sfc_temp_018.txt.gz
Temp
77 88 92 87 74 75 70 72 78 71 70 77 78 75 70 74 68 62 79 84 86 82 84 82 73 74 74 75 75 75 75 75 75 75 75 74 74 74 74 74 75 75 76 76 75 75 75 74 73
90 86 88 86 70 67 71 75 72 74 76 78 75 74 72 67 73 72 75 81 83 82 85 85 73 73 74 74 74 75 75 75 75 75 74 74 74 74 74 74 74 75 75 76 75 75 73 72 71
87 87 83 78 73 67 70 75 75 78 78 78 70 73 67 67 75 76 78 81 81 79 86 84 72 73 74 73 74 74 74 74 74 74 75 74 74 74 74 73 74 75 75 75 75 74 72 71 71
86 86 84 72 69 72 73 76 78 77 79 77 75 60 70 72 76 75 79 80 75 77 82 73 71 72 73 74 74 73 73 72 73 73 74 74 74 74 73 73 74 74 74 74 74 73 71 71 70
89 85 73 69 69 73 78 80 77 73 78 78 79 69 67 74 78 79 75 74 73 73 80 79 70 72 73 73 73 73 72 72 72 73 73 73 73 73 72 72 73 73 73 73 72 71 71 71 70
80 82 69 67 69 73 79 82 78 77 77 77 76 75 71 77 77 77 74 71 79 81 82 81 73 72 72 72 72 71 71 71 71 72 72 73 72 72 72 72 72 72 72 72 71 71 71 70 70
77 75 70 69 69 69 74 82 77 75 76 74 80 71 68 69 75 76 78 81 80 83 81 80 81 77 69 70 70 70 70 71 71 71 71 71 71 71 71 71 71 71 71 71 71 70 70 70 69
82 78 69 72 68 66 75 74 76 76 73 80 82 72 64 73 78 77 78 79 79 79 80 79 81 82 80 79 69 69 69 70 70 70 70 69 70 70 70 71 71 71 71 70 70 70 69 69 68
81 72 69 69 70 69 79 75 75 81 75 75 76 77 78 77 78 76 74 75 76 77 78 81 83 82 82 83 76 70 70 70 69 71 70 70 83 82 79 69 69 69 69 69 69 69 68 68 69
76 72 71 77 78 75 75 76 77 74 73 72 74 78 78 76 75 74 73 73 73 72 75 75 76 74 79 82 80 80 81 82 82 82 80 84 80 82 79 74 68 68 68 69 68 67 68 72 84
76 72 75 76 80 81 78 76 81 76 73 76 73 72 71 73 73 73 73 72 76 75 74 74 72 72 80 80 82 83 83 82 81 79 80 81 81 82 84 85 85 83 73 84 81 82 83 78 79
71 77 76 79 80 80 77 81 77 80 79 81 80 77 74 72 72 75 76 79 80 79 79 73 73 75 78 82 82 82 82 81 82 82 78 79 81 81 81 84 83 81 82 79 80 82 78 78 77
72 75 77 78 76 81 80 77 77 78 81 83 79 78 76 75 78 80 82 83 82 80 80 78 78 77 78 78 80 79 80 81 80 80 78 80 76 77 79 80 82 81 82 81 79 79 79 78 77
76 75 75 75 78 77 76 75 78 76 80 79 77 77 78 77 78 80 80 80 80 81 79 79 79 79 79 78 76 76 75 72 72 71 73 69 68 71 78 79 79 80 80 80 78 77 77 77 76
75 70 73 73 77 75 79 72 69 72 76 77 77 78 78 80 81 80 82 81 82 82 81 78 77 78 76 73 67 66 65 67 68 67 66 63 65 71 73 73 72 74 76 75 76 76 76 75 76
71 72 67 72 76 73 75 66 70 70 74 76 76 76 76 77 79 80 80 82 83 83 80 77 75 75 68 64 62 60 63 66 68 67 67 68 69 71 71 75 75 73 74 75 74 73 73 73 72
68 64 65 66 73 73 74 67 68 71 75 74 75 76 77 75 76 77 78 82 83 83 80 75 74 72 70 65 59 64 64 64 66 69 72 70 70 71 75 73 71 71 73 71 71 71 69 69 69
63 64 68 66 68 74 71 67 69 70 73 73 75 76 76 76 75 75 76 78 81 80 78 74 71 71 68 66 68 72 70 74 75 75 75 73 73 71 73 71 69 71 71 70 69 66 69 67 66
70 67 66 67 66 68 66 67 67 69 71 71 73 73 74 75 74 74 74 75 76 76 75 73 70 70 71 74 73 73 72 74 74 74 71 71 71 70 69 71 70 69 68 66 66 66 65 65 66
69 66 64 63 65 67 67 65 66 67 68 71 72 73 74 73 73 71 73 74 74 74 74 73 73 73 76 78 78 78 76 75 73 72 69 70 69 70 70 68 69 67 67 66 64 62 62 64 63
65 64 62 63 64 67 67 63 64 64 66 67 69 73 73 73 71 71 71 73 73 71 73 75 75 76 76 75 76 74 73 72 73 72 73 70 69 69 68 67 66 66 65 64 62 61 58 58 61
61 66 66 62 63 59 66 58 63 64 64 66 66 69 70 71 72 72 72 72 73 73 75 76 75 74 73 73 74 71 73 71 69 70 70 71 67 67 67 66 65 63 64 62 62 62 58 57 55
62 66 67 65 66 62 62 60 62 63 62 64 66 68 69 71 71 71 72 73 74 72 72 72 72 72 72 72 71 71 68 69 69 70 66 67 67 67 66 65 64 63 63 61 59 58 57 57 55
67 66 64 64 64 52 61 59 63 62 65 66 67 67 68 70 71 72 72 72 71 71 70 70 71 70 71 70 69 67 66 66 66 65 65 66 67 67 67 66 63 62 61 59 58 57 56 55 55
67 64 53 49 49 48 57 56 63 68 67 70 67 68 69 70 70 70 69 70 69 68 68 69 69 67 68 67 67 66 65 65 64 64 64 62 63 63 63 62 61 61 60 58 57 54 55 54 53
64 64 53 41 44 52 56 53 65 67 70 73 72 71 70 69 70 70 70 69 68 67 68 68 68 67 67 66 66 66 64 63 65 63 62 61 61 61 61 60 60 60 58 55 53 55 56 54 53
60 57 62 51 47 48 57 61 67 65 66 69 70 70 69 70 69 69 68 68 67 67 66 67 67 67 65 62 60 62 61 62 61 60 61 60 60 60 59 59 58 57 55 55 53 55 54 54 53
64 65 54 56 41 40 54 55 60 60 62 66 68 67 69 71 70 68 67 66 67 67 66 66 66 64 60 58 60 64 62 62 61 60 59 58 58 58 58 57 57 55 55 55 53 55 52 53 53
59 59 57 58 52 46 44 57 64 63 66 65 67 69 70 70 69 67 66 66 66 66 65 65 64 59 55 62 62 61 61 61 60 59 58 58 57 57 56 56 56 55 53 52 53 52 50 51 51
64 61 61 51 47 48 46 54 65 64 66 69 69 70 71 70 69 67 65 65 64 64 64 63 61 57 63 62 61 60 61 61 59 58 57 57 56 56 55 54 54 54 53 53 50 50 52 51 50

GFSSGP_sfc_temp_021.txt.gz
Temp
79 89 96 92 75 77 72 78 85 75 72 77 80 80 72 75 71 64 85 85 85 85 86 82 73 74 74 75 75 75 75 75 75 75 75 75 75 75 75 75 75 76 76 76 76 75 75 74 73
95 94 93 87 72 69 74 84 77 76 78 82 80 78 76 73 80 77 79 84 85 84 82 81 73 74 74 74 75 75 75 75 75 75 75 75 75 74 74 74 74 75 76 76 75 75 74 73 72
90 94 84 79 75 70 73 81 77 75 83 81 75 81 76 74 81 78 84 83 82 82 82 79 72 73 74 74 74 74 74 74 74 74 75 75 75 74 74 74 74 75 75 75 75 74 73 72 71
90 89 86 73 71 78 78 79 77 80 81 82 81 73 75 79 79 83 83 83 80 77 76 71 71 73 74 74 73 73 73 73 73 74 74 75 74 74 73 73 74 74 75 74 74 73 72 71 70
91 87 75 72 74 78 80 77 77 71 79 75 82 73 74 77 83 83 84 79 73 71 72 76 71 72 74 74 73 73 72 72 73 73 73 74 74 73 73 73 73 73 73 73 73 72 71 71 70
82 85 72 70 75 79 83 79 82 77 80 80 77 76 77 84 83 83 80 72 71 70 72 75 73 72 72 72 72 71 71 72 72 72 73 73 73 72 72 72 72 72 72 72 72 71 71 71 70
79 78 72 75 73 74 80 78 68 79 78 78 85 75 78 82 84 81 78 73 71 67 73 77 78 75 69 70 70 70 70 71 71 71 71 71 71 71 72 72 72 72 72 72 71 71 70 70 70
85 81 74 75 68 69 81 80 82 76 60 84 85 70 75 83 81 75 68 71 67 66 74 78 79 80 78 76 69 69 70 70 71 71 70 70 71 71 71 71 71 71 71 71 71 70 70 70 70
88 74 71 73 67 68 82 78 82 84 75 81 82 81 82 83 82 77 73 75 73 74 78 80 83 81 81 80 73 71 70 70 70 71 70 70 83 81 78 70 70 70 69 70 70 69 69 70 70
79 73 75 79 74 64 81 80 80 77 74 78 80 84 81 80 79 76 76 73 76 76 77 79 79 81 82 85 80 82 81 82 82 82 80 84 82 82 80 74 70 70 70 71 71 71 71 70 84
79 74 80 81 78 83 76 76 83 75 71 80 78 80 81 78 78 76 77 78 77 77 76 75 74 77 82 82 84 85 84 82 82 81 82 82 82 82 82 84 83 82 74 83 80 81 83 80 80
75 81 80 81 82 82 78 83 78 59 57 84 85 82 79 80 78 80 79 81 82 80 78 74 74 79 82 84 85 84 84 83 83 82 80 80 80 80 80 82 82 81 83 80 81 82 79 79 79
75 78 80 82 82 83 83 80 72 71 81 87 84 81 80 80 82 84 85 86 85 82 80 77 79 80 80 81 81 81 81 79 76 79 77 78 78 75 73 74 78 80 81 81 80 80 78 78 78
80 79 79 81 81 80 78 78 75 81 86 82 80 80 82 80 84 84 85 84 84 84 82 81 81 80 81 80 79 77 75 74 73 72 69 70 73 70 70 71 75 77 78 77 78 76 76 77 77
79 72 77 78 79 78 82 74 74 81 85 80 81 82 83 83 85 83 84 83 85 85 84 81 80 81 80 76 74 70 68 69 70 70 69 68 67 69 73 71 72 75 75 75 77 76 76 76 77
73 73 66 76 79 79 79 67 76 81 82 80 81 82 81 82 83 85 85 86 87 87 82 81 81 79 76 72 68 64 64 68 69 69 68 68 69 71 71 72 73 72 74 74 74 74 72 72 72
69 62 66 70 80 78 76 70 77 81 81 79 80 80 81 81 84 84 85 87 87 87 84 79 78 75 73 70 64 62 69 69 69 72 74 72 73 74 75 75 73 72 73 73 72 71 69 69 69
62 65 70 68 75 77 74 72 77 80 80 79 80 80 80 80 81 83 84 86 88 87 84 79 76 73 70 69 70 74 73 74 76 77 77 76 75 73 75 74 71 71 72 71 69 66 68 68 68
72 69 69 73 75 74 72 72 75 79 79 78 80 80 80 80 83 82 82 82 84 83 81 73 71 70 69 75 75 75 73 75 76 77 75 74 73 73 72 73 72 71 69 68 67 66 64 64 67
71 68 67 71 74 72 72 72 76 77 78 80 80 80 80 81 79 79 79 80 80 80 79 73 74 73 76 79 79 78 78 78 77 75 73 73 72 72 72 69 69 69 67 66 65 64 62 63 64
69 67 66 67 72 74 73 69 71 75 78 78 80 82 82 80 77 77 77 78 78 76 74 75 76 78 80 80 79 78 77 74 74 74 74 72 71 71 70 69 68 66 66 64 64 63 60 58 60
64 71 71 68 66 60 73 57 68 71 71 72 75 77 79 80 80 78 77 77 76 76 78 80 79 79 78 79 78 76 77 74 72 73 72 72 71 69 70 69 67 65 65 63 63 65 60 58 55
62 72 71 70 68 65 66 62 53 70 69 70 73 75 77 78 78 77 77 77 78 77 77 77 77 77 77 76 75 74 72 71 72 71 68 69 70 70 70 69 67 64 64 63 62 60 59 59 56
73 69 69 70 68 54 64 62 61 67 71 73 74 74 75 76 77 78 78 77 75 76 74 74 75 74 74 73 72 70 68 68 68 67 66 67 67 67 67 66 64 63 63 61 61 60 58 56 55
72 66 53 51 51 50 65 62 66 75 75 77 73 73 75 75 75 76 75 75 73 72 72 73 73 71 71 70 69 68 67 66 65 64 64 63 64 63 63 62 61 62 62 62 60 57 55 54 54
68 67 55 44 47 53 64 57 67 75 78 78 78 76 75 74 75 75 75 74 73 72 72 72 72 70 70 69 68 66 64 62 64 64 63 63 62 62 62 61 61 60 61 60 55 55 53 54 53
66 60 69 57 56 51 59 67 74 72 72 75 76 75 73 74 74 74 75 74 73 71 71 71 71 70 69 67 65 62 59 63 64 63 63 62 61 62 61 60 59 60 59 58 54 53 53 54 53
68 72 57 59 44 43 57 60 66 66 68 72 73 73 73 75 75 75 75 72 72 72 71 70 70 68 66 64 62 59 62 64 64 63 61 60 60 60 59 58 58 58 58 55 56 55 55 52 51
64 62 63 63 58 47 46 58 70 69 71 71 73 75 74 74 75 74 73 72 72 71 70 69 68 66 64 62 60 60 63 63 63 62 61 60 59 59 58 58 57 56 57 57 55 53 52 51 50
70 66 65 52 51 53 50 55 72 71 73 73 73 76 76 76 77 75 73 71 71 69 68 68 66 66 64 64 62 63 63 64 62 61 61 60 58 58 57 57 56 57 57 55 53 51 51 50 50

GFSSGP_sfc_temp_024.txt.gz
Temp
76 82 87 85 69 70 65 72 83 75 72 80 82 81 74 75 68 58 73 82 79 78 77 77 73 74 74 74 74 75 75 75 75 74 74 74 74 74 74 74 75 75 76 76 76 75 75 74 73
87 89 88 80 65 61 67 78 69 71 78 81 81 80 77 71 78 72 73 79 81 79 79 77 73 74 74 74 74 75 75 75 74 74 74 74 74 74 74 74 74 75 76 76 75 75 74 73 72
82 91 79 72 67 63 67 76 76 77 80 79 76 82 78 73 78 76 80 80 81 80 81 76 72 73 74 74 74 74 74 74 74 74 75 75 74 74 74 73 74 75 75 75 75 74 73 71 70
85 84 80 67 65 74 76 73 79 77 79 82 80 72 77 82 81 82 77 77 76 76 76 71 72 73 73 73 73 73 73 73 73 73 74 74 74 74 73 73 73 74 74 74 74 73 72 70 70
86 81 68 67 69 76 82 77 73 63 60 77 80 72 72 80 83 83 79 78 72 69 70 72 70 72 73 73 73 72 72 72 72 73 73 73 73 73 72 72 72 73 73 73 72 72 71 70 70
76 78 64 63 70 79 83 78 68 63 61 75 77 76 74 82 80 76 75 72 71 69 69 70 71 72 72 72 71 71 71 71 71 72 72 72 72 72 72 72 72 72 72 72 71 71 71 71 70
73 72 67 69 71 74 76 76 67 65 65 73 73 66 75 79 79 77 71 71 69 69 68 68 70 73 69 69 69 70 70 70 71 71 71 71 71 71 71 71 71 71 71 71 71 71 70 71 71
80 76 69 71 71 71 72 74 74 72 67 76 71 69 65 74 71 72 70 68 66 67 67 69 72 72 70 71 69 69 69 69 70 70 70 70 70 71 71 71 71 71 71 71 71 70 70 71 71
86 69 65 70 72 61 60 59 73 82 72 70 68 77 75 76 71 69 63 63 63 64 67 71 72 73 72 71 71 70 70 70 70 70 70 69 72 71 71 69 70 70 70 70 71 71 71 70 69
76 68 69 78 74 59 62 65 71 77 76 73 74 79 79 76 71 69 65 61 62 62 65 71 72 72 72 77 71 71 72 71 72 72 70 71 73 72 75 72 70 71 71 71 71 71 70 69 71
77 69 78 77 67 67 68 71 81 69 64 69 55 75 77 75 74 71 68 66 63 69 71 72 71 74 76 74 74 74 73 73 73 74 75 73 74 72 72 70 70 68 69 72 69 72 73 72 69
72 78 80 79 70 66 60 75 70 68 63 69 70 80 78 75 74 74 73 74 72 72 72 72 73 74 74 76 74 74 74 73 73 73 74 71 69 69 69 69 70 70 71 71 70 69 71 68 70
75 78 81 81 80 69 75 71 69 66 68 72 69 79 79 78 79 80 80 78 76 72 71 72 74 74 74 73 73 73 71 69 69 70 71 70 69 67 67 67 67 69 69 67 67 67 67 67 68
79 78 79 80 77 80 75 71 68 67 75 71 74 78 79 80 80 81 81 78 78 75 74 74 75 73 75 73 71 68 69 68 68 68 67 66 66 64 66 66 65 67 67 67 66 66 65 65 66
78 72 75 77 78 77 75 68 68 78 80 78 78 79 79 81 82 80 79 79 79 78 77 75 73 74 73 70 69 67 67 67 67 67 68 66 65 66 65 65 65 65 65 65 65 64 64 63 65
71 71 62 74 76 76 74 60 74 80 78 76 78 78 79 80 82 82 81 81 82 80 76 76 77 74 71 68 66 63 62 65 65 65 65 66 67 67 65 65 64 63 63 63 62 62 60 60 60
67 57 62 68 78 75 71 62 75 81 77 77 77 78 79 79 81 82 82 80 82 80 77 75 74 71 68 67 65 63 66 66 66 66 66 67 68 69 66 63 62 62 63 62 62 59 58 57 58
56 60 64 65 73 74 70 68 75 79 79 77 78 78 78 77 79 81 81 82 83 80 76 74 72 68 69 65 64 68 68 68 68 69 68 69 67 67 65 63 62 62 61 60 59 57 58 56 55
67 65 65 71 76 72 71 70 73 77 78 76 76 76 76 77 80 80 80 81 80 78 74 72 67 65 68 65 65 68 66 68 68 69 68 68 67 67 64 62 62 61 59 58 58 56 54 53 54
69 65 65 71 74 72 71 70 74 76 76 78 78 77 77 77 79 78 78 78 78 77 72 69 68 67 69 69 70 71 69 69 68 66 66 66 66 65 65 62 60 59 57 56 55 54 51 52 52
67 65 63 65 71 73 65 66 70 76 78 80 80 81 81 79 76 76 76 76 75 71 70 71 70 70 71 72 74 71 69 66 65 65 63 64 65 65 64 62 59 57 56 54 53 53 52 48 49
61 69 68 65 64 56 67 50 53 62 72 76 77 78 79 80 78 77 76 74 68 69 69 72 72 73 74 73 71 67 66 64 64 63 63 64 65 64 64 62 59 58 56 54 53 56 50 49 45
60 69 67 68 65 58 57 52 58 62 62 70 74 76 78 79 78 76 75 72 71 72 72 73 74 73 72 71 69 67 64 63 63 62 61 62 61 61 61 59 56 54 54 54 53 52 50 49 46
72 67 68 68 64 43 56 51 56 60 61 53 73 75 76 77 77 77 77 75 74 73 71 70 70 71 70 68 66 63 60 60 59 58 56 58 58 57 57 58 54 54 53 52 52 51 51 49 46
71 64 51 42 41 44 65 60 55 66 60 56 59 74 75 75 74 74 73 72 71 69 68 68 69 68 67 64 63 61 60 58 56 55 56 56 55 54 54 54 53 52 52 53 52 49 48 46 44
58 64 51 33 32 49 63 55 63 72 76 72 76 75 74 73 73 73 72 71 69 68 68 69 68 67 66 64 62 60 59 57 56 58 57 55 54 53 54 53 53 52 53 52 51 48 47 46 45
65 59 68 53 54 48 56 64 72 74 73 76 74 73 72 72 72 72 72 70 69 68 67 66 67 67 65 62 60 57 57 56 56 58 57 54 54 56 53 52 51 51 51 51 49 47 46 46 44
67 71 55 57 41 40 53 57 59 65 68 71 72 71 71 72 72 72 72 69 69 69 67 66 67 65 63 61 58 58 57 58 58 57 55 54 53 53 52 52 51 51 50 49 49 47 47 45 43
63 60 63 62 56 43 41 52 68 68 71 70 72 72 72 71 72 72 72 71 70 69 67 66 66 63 61 60 58 56 57 58 58 56 55 54 53 53 52 52 51 50 50 49 48 46 46 45 43
69 63 64 48 48 51 45 50 72 71 73 73 73 75 74 73 73 73 72 71 69 67 67 65 63 63 62 60 58 57 58 58 56 56 56 54 53 53 52 52 51 51 50 48 46 45 46 44 43

GFSSGP_sfc_temp_027.txt.gz
Temp
64 66 67 67 53 50 46 56 66 62 65 69 77 72 65 66 62 54 71 71 72 72 74 74 73 74 74 74 74 74 75 75 75 74 74 74 74 74 74 74 75 75 76 76 76 75 75 74 73
70 76 69 62 48 41 48 64 61 66 70 74 75 72 69 64 69 66 67 72 73 72 73 73 73 73 74 74 74 74 75 75 74 74 74 74 74 74 74 74 74 75 76 76 75 75 74 73 72
71 78 60 53 47 45 52 62 63 69 74 72 71 72 70 66 70 70 71 72 73 73 74 73 72 73 73 74 73 73 73 73 74 74 75 75 74 74 74 73 74 75 75 75 75 74 73 72 71
71 66 63 51 49 59 61 62 67 66 66 67 65 64 69 72 74 73 75 74 72 72 72 71 72 73 73 73 73 73 73 72 73 73 74 74 74 74 73 73 73 74 74 74 74 73 72 71 70
68 60 50 48 54 64 70 66 65 61 63 66 65 65 64 71 73 71 71 71 69 70 70 72 71 72 73 73 73 72 72 72 72 72 73 73 73 73 72 72 72 73 73 73 72 72 71 70 70
60 59 47 48 58 67 64 62 62 62 63 66 65 67 65 72 69 68 68 67 68 68 70 71 71 71 71 71 71 71 71 71 71 72 72 72 72 71 71 71 71 71 71 71 71 71 71 71 71
59 54 52 56 60 63 62 65 62 62 61 62 69 62 66 64 66 67 66 66 67 67 67 67 69 70 69 69 69 69 70 70 70 70 70 71 70 70 71 71 71 71 71 71 71 71 70 71 71
65 57 52 58 60 55 61 63 61 62 63 71 68 59 59 62 66 66 66 66 65 64 66 67 66 69 68 69 68 69 69 69 70 70 70 69 70 70 70 70 71 71 71 71 71 71 71 71 70
65 52 51 58 59 57 61 60 65 65 63 67 67 66 64 65 66 64 63 63 62 63 65 65 66 67 68 68 69 69 70 69 69 69 69 67 67 68 70 69 70 70 70 70 70 70 70 69 69
62 51 57 66 62 59 61 62 62 60 64 60 59 66 65 65 63 61 61 61 62 62 64 65 68 67 69 73 67 66 69 67 67 67 67 67 67 67 70 68 68 69 69 69 70 69 69 70 67
63 58 67 67 65 63 61 66 69 64 59 60 58 58 62 63 62 62 63 62 62 63 64 66 66 69 70 70 67 66 66 65 66 67 66 67 69 66 66 64 65 64 67 68 70 68 68 67 64
58 70 73 68 65 66 59 62 64 59 61 62 64 66 64 64 61 61 61 62 62 63 66 67 70 70 71 70 68 67 68 68 67 68 68 66 64 64 64 64 64 64 63 64 63 63 65 64 66
65 69 74 72 68 62 66 64 65 65 66 67 67 67 65 67 62 64 65 66 65 67 68 68 70 70 69 68 68 67 66 65 66 66 66 65 63 61 62 62 63 62 63 62 62 62 63 62 63
71 70 69 70 67 67 63 64 63 65 68 67 68 67 68 70 68 66 66 66 68 68 68 68 69 69 69 67 65 63 64 64 65 64 64 63 62 61 61 62 62 62 62 61 61 60 59 59 60
70 63 64 68 69 65 68 56 56 67 69 68 66 70 69 75 73 70 70 69 69 69 70 67 68 68 66 64 63 62 62 65 62 63 63 62 62 62 61 61 59 60 60 60 60 59 58 57 60
62 60 54 66 70 69 68 51 61 63 66 63 67 70 71 72 72 74 73 71 71 70 69 69 72 66 63 62 61 60 61 61 61 61 61 62 63 63 61 59 58 58 58 58 56 55 55 55 54
55 49 55 61 70 68 63 55 62 64 67 66 67 67 69 69 71 72 73 72 72 72 71 68 66 63 62 61 60 59 60 60 59 59 60 62 63 63 59 58 57 58 57 55 56 55 53 52 52
53 54 53 55 63 66 59 58 64 68 69 67 64 65 66 67 68 72 71 73 73 71 69 68 65 62 61 60 59 59 60 60 60 60 61 62 62 61 59 58 58 57 55 54 54 53 53 51 50
61 57 55 60 66 63 60 60 62 66 64 62 62 64 67 67 70 72 71 71 72 69 68 65 64 62 61 59 58 59 59 60 59 60 61 61 61 61 57 56 56 55 54 53 53 51 50 49 48
62 59 58 62 67 62 61 59 63 66 65 64 61 63 65 66 69 71 70 68 70 68 64 64 64 63 62 61 62 62 61 59 59 59 59 60 60 60 60 57 55 55 53 52 50 49 47 47 46
60 54 56 57 59 59 57 52 57 64 69 68 66 69 70 68 68 68 69 66 65 64 62 63 64 65 65 64 66 62 61 58 57 56 56 58 60 60 59 57 55 53 52 50 49 48 47 44 45
56 64 61 62 55 46 57 41 53 59 65 68 68 66 69 69 70 70 68 64 63 63 63 63 65 64 66 65 63 63 61 58 55 55 56 57 59 58 57 55 52 50 50 49 48 52 47 45 42
57 63 60 60 55 52 52 45 49 60 61 63 59 64 64 69 69 68 67 63 64 66 65 66 64 65 68 68 67 58 57 56 55 54 53 54 54 56 56 53 50 49 48 47 47 47 46 45 43
66 62 59 57 51 37 52 48 47 50 60 59 62 68 68 64 66 67 65 66 65 65 62 62 64 64 61 59 58 57 56 53 52 50 50 54 55 51 54 53 50 50 48 47 47 46 45 43 42
61 52 39 36 32 34 54 48 50 58 61 64 66 67 61 64 65 64 64 64 64 62 65 65 61 59 59 57 55 54 53 52 51 51 50 54 50 49 48 49 48 47 47 48 47 45 44 43 41
56 53 39 30 31 37 55 45 53 64 68 68 67 63 63 63 64 63 62 61 60 60 60 60 60 58 58 56 54 53 53 50 51 51 51 51 51 49 49 50 48 48 48 46 46 45 44 43 41
57 48 59 42 42 36 44 56 62 63 60 59 59 61 60 61 61 62 62 61 60 59 59 58 58 58 56 54 52 52 52 52 51 52 52 51 50 53 49 49 47 47 47 46 45 43 43 42 41
59 61 46 44 34 32 42 45 47 55 59 59 57 59 61 62 61 62 62 60 61 59 59 57 57 57 54 53 51 52 52 52 52 52 52 50 49 50 49 48 47 46 46 46 44 43 43 41 40
55 52 53 52 41 32 29 40 56 58 60 59 59 63 63 63 63 62 61 62 62 61 59 57 56 54 53 52 52 51 51 52 53 52 52 52 51 50 48 48 47 47 46 45 43 42 43 42 41
61 56 52 35 40 35 32 38 60 61 62 62 62 64 64 65 64 63 62 62 61 60 59 57 54 55 53 52 52 51 52 55 55 54 53 51 49 49 48 48 48 47 46 45 43 42 42 41 41

GFSSGP_sfc_temp_030.txt.gz
Temp
62 64 64 64 52 46 42 52 60 60 60 67 70 66 62 63 62 54 69 70 73 73 73 74 73 74 74 74 74 74 74 75 74 74 74 74 74 74 74 74 75 75 76 76 76 76 75 75 74
66 70 65 57 46 39 45 55 60 60 65 68 69 67 64 61 67 64 66 71 73 73 73 74 73 73 74 74 74 74 75 74 74 74 74 74 74 74 74 74 74 75 76 76 76 76 75 74 72
69 73 58 51 41 42 45 57 59 62 65 66 67 68 66 62 66 68 69 70 71 72 73 73 72 73 73 73 73 73 73 73 73 74 74 74 74 74 74 73 74 74 75 76 76 75 74 72 71
68 62 58 48 44 50 59 60 62 63 66 66 63 60 66 69 70 70 70 70 69 70 72 71 72 72 73 73 73 73 73 72 73 73 74 74 74 74 73 73 73 74 75 75 74 73 72 71 71
64 57 46 43 49 60 58 60 61 60 61 65 66 60 61 67 68 70 70 71 69 69 71 72 71 72 72 73 73 72 72 72 72 72 73 73 73 73 72 72 72 73 73 73 73 72 71 71 71
56 56 44 43 53 59 59 60 61 60 61 63 63 62 60 68 67 67 69 68 69 68 69 71 72 71 72 72 71 71 71 71 71 72 72 72 72 72 71 71 71 71 71 71 71 71 71 71 71
56 52 45 50 53 57 60 62 60 61 60 61 65 58 61 63 67 66 66 67 67 65 66 68 70 70 69 69 69 69 70 70 70 71 71 71 70 70 71 71 71 71 71 71 71 71 71 71 71
60 55 48 51 55 52 59 62 61 60 60 66 65 56 57 61 64 65 65 64 64 63 64 65 67 67 67 68 68 69 69 69 70 70 70 69 69 70 70 70 71 71 71 71 71 71 71 70 70
64 52 47 52 57 54 60 59 65 64 64 60 63 61 62 64 66 63 61 62 63 63 64 64 65 65 67 67 69 69 70 69 69 69 69 67 66 67 68 68 70 70 70 70 71 70 69 69 69
58 49 53 62 61 55 60 58 62 64 58 58 58 61 63 64 63 60 59 60 62 62 63 64 65 65 66 71 66 65 68 66 65 65 66 66 65 65 68 68 68 68 69 70 70 69 69 67 63
57 55 60 65 61 61 57 59 64 61 54 58 56 58 60 61 62 62 61 62 62 64 64 64 64 67 67 67 64 63 63 63 64 65 65 65 66 65 64 63 64 63 67 65 66 65 64 63 61
58 64 67 64 62 61 61 63 63 58 60 62 62 61 61 60 61 62 61 62 61 62 65 65 66 67 66 66 64 64 64 63 63 65 66 64 62 61 61 61 62 62 61 61 61 60 61 61 62
61 66 69 65 64 65 66 61 60 56 60 64 64 63 61 60 62 63 65 65 64 62 65 66 66 68 67 64 64 64 64 65 64 63 64 64 61 60 61 60 60 60 60 60 60 60 59 59 60
66 66 66 64 63 64 64 62 60 58 62 62 65 62 61 62 64 62 63 63 63 64 65 67 67 66 67 65 63 63 65 64 63 63 62 62 60 60 60 60 59 59 59 59 58 57 56 55 57
66 59 64 61 62 61 65 57 57 63 66 63 65 63 61 64 63 63 64 63 65 67 68 65 65 67 65 63 63 61 62 62 61 61 61 61 61 61 59 58 58 58 58 57 56 55 55 54 56
60 57 51 61 63 64 62 51 61 63 64 61 61 64 62 64 64 65 66 66 67 67 66 67 69 65 63 60 60 60 60 60 60 60 60 61 61 60 58 57 57 56 55 54 54 53 53 52 52
52 46 50 56 66 65 59 52 61 62 64 61 60 64 66 63 64 66 67 67 68 68 67 63 64 62 60 60 58 59 60 59 59 58 59 60 61 60 58 56 55 54 54 53 54 52 51 50 49
49 50 50 53 59 62 58 56 61 61 63 62 60 60 64 65 66 68 68 69 68 68 66 64 63 60 60 59 58 58 58 58 58 58 59 60 59 58 56 54 53 54 53 51 51 51 50 49 47
59 56 52 58 63 60 58 56 59 60 61 60 56 59 63 65 69 70 69 68 67 67 64 63 61 60 60 58 57 57 57 57 57 58 59 59 58 57 55 53 53 53 52 51 51 49 48 47 45
56 53 52 58 62 59 56 55 58 59 62 62 62 62 63 63 65 67 67 67 67 65 65 62 62 61 62 60 58 59 58 57 56 56 56 57 57 56 56 53 53 53 52 50 49 47 45 45 44
54 52 52 54 57 58 54 50 52 60 62 64 66 67 67 66 66 66 65 65 65 64 62 62 61 62 62 62 60 58 57 55 54 53 54 55 57 57 56 54 52 50 50 49 48 47 46 43 43
50 60 57 57 51 44 51 39 49 56 59 62 62 60 65 66 68 66 66 64 63 61 62 62 63 63 62 61 60 59 59 58 53 53 53 54 56 54 54 52 49 49 47 46 45 49 44 42 41
54 60 57 56 50 46 48 43 48 52 56 59 61 62 62 65 67 65 63 63 64 62 61 61 62 62 62 61 59 58 56 54 53 52 52 52 51 52 52 51 48 47 46 45 45 44 43 42 40
63 58 54 51 47 37 47 44 44 49 57 59 62 63 64 61 63 63 62 63 61 62 61 61 60 60 61 61 59 58 54 52 51 49 49 49 49 50 50 50 47 47 46 45 45 43 43 42 41
57 49 37 35 32 33 50 45 47 56 59 60 62 60 60 63 60 59 60 60 60 60 60 61 61 57 56 56 54 54 52 53 52 49 49 49 50 50 49 48 49 46 46 45 45 43 42 41 40
53 50 36 32 29 37 50 42 50 60 64 64 62 60 59 58 62 61 60 60 60 60 59 59 59 54 54 55 53 53 53 52 50 50 52 51 50 49 49 49 47 46 46 44 43 42 42 41 39
53 46 53 40 38 34 41 49 57 58 57 57 56 59 56 55 57 58 58 57 55 56 56 58 58 57 54 52 54 53 52 52 51 52 51 50 49 51 49 47 45 48 47 44 43 41 41 40 40
57 60 45 41 33 32 39 41 44 53 56 57 54 56 56 56 57 58 58 58 58 57 56 54 57 56 54 52 52 53 53 52 51 51 51 51 51 51 50 49 48 46 45 44 43 41 41 40 39
52 50 50 47 38 33 29 38 52 55 58 56 55 56 57 58 59 59 60 60 60 60 57 56 56 53 52 52 50 51 52 51 52 52 51 51 51 51 49 47 48 46 45 44 41 41 41 41 40
55 52 50 34 38 32 30 38 56 57 58 57 57 59 59 61 61 61 60 59 58 58 56 57 55 54 54 53 50 50 50 52 53 52 52 49 50 49 47 46 46 46 46 44 42 40 42 42 40

GFSSGP_sfc_temp_033.txt.gz
Temp
62 62 62 62 50 45 39 49 54 58 60 64 66 64 61 59 60 53 68 68 72 72 73 72 73 73 74 74 74 74 74 75 74 74 74 74 74 74 74 74 75 75 76 77 76 76 76 75 73
63 67 62 54 43 37 43 52 56 59 64 65 66 64 61 59 66 64 66 70 73 73 72 72 73 73 73 73 73 74 75 74 74 74 74 74 74 74 74 74 74 75 76 77 77 76 75 73 72
66 69 57 47 38 40 43 53 55 60 63 63 61 65 63 61 65 66 70 73 73 72 73 73 72 73 73 73 73 73 73 73 73 74 74 74 74 74 74 73 74 75 76 76 76 75 74 72 71
65 61 56 46 43 48 52 58 61 60 63 64 61 57 64 68 68 69 72 72 70 71 72 71 71 72 73 73 73 73 72 72 73 73 74 74 75 74 73 73 74 75 75 75 75 74 72 71 71
60 55 47 42 47 54 56 57 59 57 58 61 63 57 61 65 68 68 69 70 68 68 70 70 70 72 72 73 73 72 72 72 72 73 73 73 74 73 72 72 72 73 73 74 73 72 72 71 71
54 53 45 42 51 56 57 56 59 59 60 61 63 59 60 67 67 68 68 67 67 67 68 70 71 71 72 72 72 71 71 71 72 72 72 73 72 72 71 71 71 71 72 72 72 71 71 71 70
52 48 46 48 49 54 57 59 58 58 59 60 63 56 60 64 65 66 65 64 64 64 67 67 67 70 69 69 69 69 70 70 70 71 71 71 70 70 71 71 71 71 71 71 71 71 71 71 70
56 53 47 49 49 50 59 61 60 59 57 66 65 56 57 62 64 65 64 63 62 62 63 64 65 67 67 69 68 69 69 69 69 70 69 69 69 70 70 70 71 71 71 71 71 70 70 70 69
59 49 46 50 51 55 59 59 59 61 59 60 61 61 62 63 65 64 62 61 60 60 61 62 64 65 66 66 68 69 69 69 69 69 69 66 64 64 66 68 69 70 70 70 70 69 69 67 68
54 47 53 59 58 55 59 55 60 58 56 57 57 61 63 63 63 61 60 59 59 59 60 62 63 64 65 70 66 65 67 64 64 65 64 63 63 64 66 67 68 68 68 69 69 68 67 65 61
54 53 57 62 61 59 58 56 63 57 53 56 56 58 61 61 61 60 61 61 61 61 61 60 62 64 64 65 63 62 62 62 63 64 64 64 64 64 63 62 62 62 65 63 63 62 61 61 59
52 61 62 62 61 60 59 61 60 56 58 61 59 61 60 60 60 60 60 61 61 62 63 64 64 64 63 63 62 62 62 62 62 64 64 62 60 61 61 61 61 60 59 59 59 58 59 58 59
57 62 64 65 62 61 63 59 57 54 59 61 61 61 61 61 61 62 63 62 61 62 64 64 64 64 64 63 62 61 62 62 63 63 63 62 60 59 59 59 59 59 59 58 57 57 57 56 57
63 61 61 60 62 63 60 58 60 56 59 59 60 60 63 62 62 61 61 61 61 62 63 64 64 65 64 62 62 62 63 63 62 62 61 61 59 59 59 58 57 57 57 56 55 54 54 53 55
64 56 60 59 58 59 63 56 55 59 60 58 59 60 61 63 62 61 62 62 63 63 64 63 63 63 63 62 61 61 62 62 61 61 61 60 60 59 57 56 56 56 55 55 54 53 53 52 54
58 55 49 57 58 61 61 49 56 59 59 57 58 59 60 61 63 63 63 63 64 64 63 64 67 63 61 60 59 60 60 60 60 60 59 60 60 58 56 55 54 54 54 53 52 52 51 50 50
51 45 49 54 61 58 57 53 58 59 60 57 58 57 59 60 62 63 64 64 64 64 64 63 63 61 59 58 59 59 59 59 59 58 58 59 59 59 56 54 53 53 52 51 53 49 50 48 47
44 46 44 49 56 57 54 52 58 59 59 59 57 59 58 61 62 64 65 65 65 63 63 62 61 59 59 58 58 58 57 57 57 57 58 58 57 57 55 53 52 52 51 50 49 49 48 46 45
53 50 47 53 61 58 55 55 57 57 57 55 55 57 59 61 65 65 65 66 65 63 61 61 59 58 59 57 57 55 55 55 55 56 57 57 56 55 53 52 52 51 50 49 49 47 46 45 44
55 51 53 55 59 57 54 55 55 56 59 60 58 58 60 61 63 64 64 64 64 63 62 61 61 59 60 59 57 57 56 55 55 55 55 55 55 54 54 52 51 50 49 48 46 46 44 43 43
51 49 50 52 55 53 52 49 53 57 59 60 61 63 63 62 62 64 63 63 63 62 62 62 61 60 61 59 58 55 54 54 53 52 52 53 55 55 53 51 49 48 48 46 45 45 44 43 43
47 55 54 53 49 43 50 38 47 53 57 59 61 58 62 63 65 65 64 63 63 62 63 63 62 60 61 59 58 56 54 54 52 51 52 52 53 51 51 49 48 46 46 45 45 46 43 41 40
52 55 54 53 48 44 45 41 45 50 51 56 59 60 62 64 65 63 64 64 64 62 60 61 60 61 61 60 59 55 53 52 51 50 50 49 48 50 51 49 48 47 45 44 43 43 42 41 39
58 54 51 47 45 35 44 41 42 48 54 58 61 63 62 58 59 60 62 63 62 59 60 59 60 60 60 59 57 55 53 51 51 48 47 46 46 48 47 49 47 49 47 46 45 42 42 42 40
55 47 36 35 31 32 46 42 46 54 57 58 57 60 60 63 59 57 59 60 59 59 59 59 60 59 59 59 55 54 53 53 53 50 48 48 47 47 48 50 48 48 48 48 46 43 42 40 39
48 48 36 32 29 36 46 39 48 57 59 59 59 59 57 56 62 59 60 60 59 59 60 60 59 55 55 55 52 51 51 50 52 52 51 51 50 49 49 49 49 49 49 47 42 41 41 40 39
51 44 50 37 34 33 38 46 55 57 56 54 53 56 54 54 57 58 59 60 59 59 59 58 55 54 52 51 51 50 51 51 52 52 52 50 49 50 49 48 48 48 47 44 42 40 40 39 39
54 56 42 39 33 31 36 39 43 52 56 54 52 54 53 53 54 55 57 56 57 56 54 54 55 54 52 52 53 53 54 54 53 52 50 50 50 50 49 48 48 47 46 44 41 40 41 41 38
50 47 46 45 36 31 28 37 49 53 55 56 56 54 54 53 54 56 58 57 56 55 55 54 54 52 51 52 52 50 49 49 50 52 52 52 51 50 50 49 47 45 44 44 42 41 40 39 38
52 48 47 34 37 31 29 36 53 54 55 55 57 57 54 54 56 57 57 56 55 56 55 55 55 54 53 51 49 49 49 50 52 52 51 50 50 49 48 46 45 44 44 44 41 39 40 39 37

GFSSGP_sfc_temp_036.txt.gz
Temp
60 60 61 60 50 44 38 47 51 53 54 61 65 61 59 60 57 52 68 68 72 72 72 72 73 73 73 74 74 74 74 74 74 74 74 74 74 74 75 75 75 76 77 77 76 76 75 75 73
62 65 61 53 42 37 42 48 51 54 59 62 63 61 59 58 66 64 66 70 73 72 71 71 72 73 73 73 74 74 75 74 74 74 74 74 74 74 74 74 75 76 76 77 77 76 75 73 73
64 66 55 46 38 39 42 50 52 56 61 61 60 62 60 61 66 66 69 71 72 72 71 71 72 72 73 73 73 74 74 73 73 74 74 74 75 75 74 74 75 75 76 76 76 75 74 72 71
62 59 53 46 42 47 50 53 53 57 60 62 60 57 63 66 67 68 71 71 70 71 70 69 71 72 73 73 73 73 73 72 73 73 74 75 75 74 74 73 74 75 76 76 75 74 72 70 70
57 52 44 39 42 53 55 55 55 55 58 60 60 57 59 65 68 69 68 69 68 69 68 70 70 72 73 73 73 72 72 72 72 73 73 74 74 73 73 72 73 73 74 74 74 73 71 70 70
52 50 40 38 47 55 53 55 58 57 58 59 58 58 60 67 66 65 65 64 67 67 68 69 71 71 71 72 71 71 71 71 72 72 73 73 72 72 72 71 72 72 72 72 72 71 71 70 70
50 45 40 43 48 52 55 58 56 57 56 57 61 57 59 63 64 63 63 63 64 66 66 66 66 69 69 69 69 69 70 70 71 71 71 70 70 70 71 71 71 71 71 71 71 71 70 70 69
52 49 40 43 49 49 56 58 56 55 54 62 62 56 56 62 63 63 63 63 62 63 65 64 63 65 66 67 68 68 69 69 70 70 69 69 69 70 70 70 71 71 71 71 71 70 70 69 68
54 45 42 47 49 55 56 56 58 59 56 60 61 61 62 64 64 61 60 60 61 61 62 62 63 64 65 66 68 68 69 69 68 68 68 65 64 64 65 68 69 70 70 70 70 68 67 67 67
51 45 49 56 56 54 55 55 60 56 56 57 58 61 63 63 62 60 57 57 58 59 60 62 63 64 65 69 65 64 67 64 64 64 63 62 62 62 65 66 68 68 68 68 67 66 66 63 59
50 50 56 60 60 58 54 55 61 55 51 57 56 59 60 61 61 60 59 59 59 60 61 61 62 64 64 64 63 61 61 61 61 62 62 62 62 62 62 62 62 62 64 61 62 61 60 58 57
49 58 59 61 60 57 57 60 57 53 55 61 61 61 61 60 60 60 59 58 59 60 59 61 62 63 63 63 62 61 62 61 61 62 63 62 61 61 60 60 60 59 58 57 57 56 56 56 57
53 59 61 61 60 59 61 57 56 52 57 61 60 61 60 61 61 62 63 62 61 60 61 61 62 63 63 62 61 61 61 61 61 62 63 62 60 59 59 58 58 57 57 56 55 55 55 55 55
60 59 58 59 59 61 57 56 56 55 57 57 58 57 58 60 61 60 62 61 61 61 61 64 63 63 63 61 60 60 61 61 62 62 61 60 58 57 57 56 56 55 55 54 54 53 53 52 53
60 54 58 57 59 59 60 52 52 56 58 55 56 57 60 60 60 60 59 60 61 62 63 61 62 63 61 60 59 59 60 61 60 60 59 59 59 58 56 55 54 54 54 54 53 52 52 52 53
55 54 50 56 57 57 56 44 53 56 56 54 55 57 59 60 60 59 61 59 60 61 61 62 65 61 60 59 59 59 59 59 59 59 59 59 59 58 55 54 53 53 53 53 52 51 50 49 49
49 43 48 52 58 57 53 46 54 56 56 54 55 56 57 57 58 60 60 60 60 61 62 61 61 60 59 58 58 59 59 59 59 58 59 59 59 58 55 53 52 53 52 51 52 48 49 47 47
42 43 41 44 53 54 52 48 52 55 56 55 55 55 56 56 59 61 61 61 61 60 62 61 60 59 58 57 57 57 57 57 57 57 57 58 57 56 54 53 52 51 50 49 48 48 46 46 46
51 47 46 48 56 55 54 51 53 54 55 54 53 54 55 57 62 62 61 61 60 60 60 60 58 57 58 56 56 55 55 55 55 55 56 56 55 55 53 51 50 50 49 48 48 46 46 44 43
51 48 48 53 55 53 50 50 55 54 55 56 56 56 57 59 59 61 60 60 61 61 60 59 59 57 59 59 56 56 55 54 54 54 54 54 54 53 53 50 49 48 47 46 46 45 43 43 42
49 47 48 48 52 50 50 46 48 54 56 57 58 59 60 59 59 61 61 61 62 61 60 61 59 58 59 58 56 53 53 52 52 51 51 52 53 53 51 49 48 46 46 44 44 44 44 42 41
44 54 51 50 46 42 47 38 45 49 55 56 59 56 59 60 61 61 61 60 61 61 61 61 59 58 59 58 58 55 55 52 51 50 50 50 51 50 49 48 46 45 44 44 44 45 43 43 40
51 53 51 50 45 43 43 41 44 48 49 55 58 59 59 61 61 61 61 63 62 60 58 60 60 59 61 60 59 56 54 53 51 50 48 47 47 48 48 47 45 44 44 45 47 47 45 41 40
56 51 49 46 43 35 42 40 41 44 52 58 60 61 62 61 59 61 62 61 60 57 58 59 59 60 60 59 57 56 53 50 50 47 46 45 45 45 46 46 45 45 45 47 46 42 42 41 40
50 45 35 34 31 32 44 40 44 53 52 55 56 60 62 62 60 57 57 58 57 57 58 58 59 60 59 58 56 55 53 53 54 50 47 46 45 44 46 48 46 47 48 47 46 43 44 41 39
47 46 34 31 28 35 44 38 48 53 56 55 56 56 56 55 59 59 59 60 59 58 58 59 59 60 59 58 57 55 56 54 53 50 47 47 47 47 50 48 48 46 48 47 46 43 41 40 39
48 42 48 36 33 32 37 45 53 52 52 53 54 52 52 54 57 60 58 59 59 58 59 59 60 61 58 58 55 53 53 52 51 49 49 48 49 49 46 47 47 48 47 46 45 43 41 40 39
51 53 40 37 32 30 34 36 41 50 51 50 51 53 53 51 52 54 56 57 58 58 59 58 60 58 55 53 52 52 51 52 51 50 48 48 47 49 48 48 48 47 47 46 44 42 41 39 38
47 44 43 43 35 31 27 36 48 51 53 53 52 53 53 53 52 53 55 57 58 58 57 56 54 52 49 50 49 48 48 50 50 50 49 50 49 50 49 48 47 46 46 44 41 41 40 39 38
50 47 44 33 36 30 29 35 51 52 52 52 55 54 52 53 53 53 54 53 53 54 53 53 51 50 49 49 48 48 49 49 49 50 51 49 50 49 49 47 46 46 45 43 41 40 41 39 37

GFSSGP_sfc_temp_039.txt.gz
Temp
69 71 74 74 64 60 56 59 63 64 65 66 69 68 65 63 62 61 71 72 75 75 79 77 73 73 73 74 74 74 74 74 74 74 74 74 75 75 75 75 76 76 77 77 77 76 76 75 74
72 73 73 66 59 54 58 60 62 62 66 67 66 64 65 60 67 65 67 73 74 76 79 78 72 73 73 73 74 74 75 74 74 74 74 74 75 75 75 75 75 76 77 77 77 76 75 74 73
73 72 70 63 55 54 57 61 63 63 66 67 65 67 66 62 67 68 72 75 73 75 78 77 72 73 73 73 74 74 74 73 74 74 74 75 75 75 75 74 75 76 77 77 77 75 74 72 71
73 73 66 60 55 57 60 63 62 63 66 67 67 62 66 68 67 71 73 75 71 73 77 72 71 72 73 73 73 73 73 73 73 73 74 75 75 75 74 74 75 76 76 76 75 74 72 71 70
69 66 59 55 53 60 63 64 63 61 64 64 66 62 62 67 69 69 70 73 69 71 72 71 70 72 73 73 73 72 72 72 73 73 73 74 74 74 73 73 74 74 74 74 73 72 71 70 70
66 64 56 53 56 62 64 64 64 63 64 64 65 64 61 68 64 65 66 67 69 68 69 70 71 71 72 72 71 71 71 72 72 72 73 73 72 72 72 72 72 72 72 72 72 71 71 70 70
63 60 55 54 56 59 62 64 62 62 63 63 66 59 61 62 63 64 64 65 67 67 66 65 66 68 69 69 69 69 70 71 71 71 71 71 70 71 71 71 72 72 71 71 71 71 70 70 69
65 63 55 56 57 58 63 63 63 62 60 66 66 60 58 60 63 64 64 64 63 64 63 62 63 64 66 70 69 69 69 69 69 70 69 69 70 70 70 70 71 71 71 71 71 70 69 68 67
65 60 55 56 57 62 62 61 62 64 62 63 64 64 64 62 64 62 61 61 60 60 59 60 61 64 65 69 71 70 69 69 69 70 68 69 76 75 75 70 69 70 69 69 69 68 67 66 66
65 57 58 64 65 63 62 63 63 61 60 60 61 62 62 63 62 60 59 58 58 57 58 59 62 64 67 70 71 69 69 70 72 74 73 75 73 75 75 71 68 68 67 67 67 66 66 70 74
61 59 62 66 67 65 61 61 65 61 59 62 59 60 62 61 60 60 59 59 59 61 61 62 63 64 65 66 66 68 69 70 72 71 72 71 72 72 73 73 73 72 69 72 70 71 72 70 71
60 64 65 67 64 62 61 63 60 61 60 64 64 62 61 60 59 59 58 59 60 62 62 62 62 62 63 65 66 68 69 71 71 72 70 70 71 71 71 72 71 68 69 68 70 69 67 68 68
60 65 66 65 64 64 65 60 59 58 61 64 64 63 61 62 60 60 60 62 63 63 64 63 63 64 66 66 66 68 68 70 69 70 70 69 70 67 70 68 69 69 70 69 68 68 69 67 66
65 64 63 62 64 64 61 60 62 58 61 60 61 62 64 62 61 59 59 61 63 65 65 66 66 68 69 67 67 68 69 69 69 70 69 69 70 68 68 67 68 68 69 69 69 68 68 67 67
66 62 64 62 64 63 65 60 58 60 61 59 59 61 62 62 62 60 64 62 65 66 66 66 66 68 68 68 68 69 69 70 71 70 69 68 68 67 67 65 66 66 66 65 66 65 66 66 66
61 61 56 62 63 62 65 55 58 60 60 59 60 61 62 61 62 65 66 66 68 69 68 67 69 68 67 67 67 67 68 68 69 68 67 68 67 66 65 66 65 65 66 66 65 65 64 64 65
56 53 54 58 65 61 61 56 60 61 60 60 61 62 62 61 63 65 66 67 68 69 69 67 68 68 67 67 66 67 68 69 68 66 66 66 66 66 67 66 64 64 64 63 64 63 64 63 64
52 53 55 55 61 61 58 59 58 59 60 61 62 62 62 63 65 67 67 68 69 68 68 69 68 68 67 66 66 68 68 69 67 67 67 66 67 65 65 64 62 64 63 63 63 61 61 62 62
57 56 54 57 62 60 59 59 58 58 58 59 61 62 62 63 68 68 68 68 69 68 68 68 67 67 67 64 64 65 65 65 64 65 66 66 66 65 64 64 62 63 63 61 61 60 60 60 60
57 55 54 58 60 59 58 57 59 58 59 62 62 62 63 65 65 67 67 67 67 68 68 68 68 67 68 68 68 68 67 65 66 64 65 66 64 65 64 62 62 62 60 59 59 60 59 60 58
56 55 53 54 57 58 56 56 56 59 60 62 64 65 65 65 65 65 66 66 67 67 67 67 68 67 68 68 67 64 64 63 61 61 64 64 64 64 63 61 61 60 61 60 59 59 57 56 55
53 59 57 54 53 50 55 49 53 57 59 60 63 64 65 66 67 68 67 66 66 67 68 68 68 67 67 66 67 65 66 64 63 63 64 63 62 61 62 60 59 59 59 58 57 58 57 56 55
57 58 57 56 53 51 51 52 55 54 56 60 63 64 65 67 67 68 69 70 69 68 66 67 68 68 67 66 67 64 64 63 60 60 59 59 59 60 59 59 58 57 58 57 56 54 52 51 49
60 57 54 52 51 45 49 51 53 55 59 63 65 66 67 68 67 69 71 71 71 68 67 66 67 66 66 63 64 63 63 60 58 58 57 57 58 57 57 58 58 57 57 56 51 48 47 47 55
58 53 46 43 42 42 49 48 55 61 60 63 64 67 69 71 70 68 68 68 69 66 66 66 66 62 62 62 62 61 60 60 60 58 55 52 53 55 54 56 55 55 56 52 47 47 50 54 54
54 54 45 36 37 44 48 46 58 63 65 63 62 63 65 67 69 69 69 70 68 67 66 66 66 64 60 61 61 62 62 60 61 58 54 53 56 54 55 55 56 55 54 53 48 49 52 53 53
54 51 54 42 39 41 46 52 61 62 63 63 62 62 63 64 65 68 69 68 68 66 65 65 66 66 61 61 62 61 61 60 59 56 54 55 54 55 54 55 55 54 49 51 51 52 53 52 52
58 58 48 46 37 35 43 45 51 58 60 61 62 64 64 64 63 64 66 66 67 67 67 65 66 67 66 64 62 60 61 62 59 54 54 55 54 54 54 54 53 52 54 47 53 53 53 51 52
53 51 49 50 45 40 37 46 57 60 62 62 62 62 63 64 65 64 65 65 66 66 66 65 66 67 66 64 62 61 59 59 56 54 55 53 53 55 55 53 50 49 54 54 53 51 51 50 51
57 54 52 44 42 40 39 45 60 60 61 60 62 62 64 64 66 65 64 64 64 64 64 64 64 63 63 61 58 58 58 55 54 53 53 53 54 55 55 52 49 49 53 53 51 50 48 49 49

GFSSGP_sfc_temp_042.txt.gz
Temp
77 87 91 86 71 71 66 69 77 74 74 78 78 76 74 72 68 64 78 77 82 82 86 81 73 73 74 74 74 74 74 75 75 74 74 75 75 75 75 75 76 76 77 77 77 77 76 75 74
88 85 87 84 66 62 66 74 72 75 76 76 75 74 75 68 72 69 68 74 83 82 84 84 72 73 73 73 74 74 75 74 74 74 75 75 75 75 75 75 75 76 77 77 77 77 75 74 72
84 84 80 74 68 63 66 72 73 75 75 76 74 77 72 69 74 73 79 77 81 82 85 83 72 72 73 73 73 74 74 74 74 74 75 75 75 75 75 74 75 76 77 77 77 75 73 72 71
86 84 81 67 64 70 71 75 74 75 75 77 78 72 74 72 74 79 82 76 77 79 81 73 71 72 73 73 73 73 73 73 73 74 74 75 75 75 74 74 75 76 76 76 75 73 72 71 70
87 82 69 65 65 70 75 76 74 72 73 73 76 70 71 67 75 80 78 75 74 74 77 75 70 72 73 73 73 73 72 73 73 73 74 74 75 74 74 73 74 74 74 74 73 72 71 70 70
77 79 65 64 65 71 75 75 74 72 73 73 74 74 68 67 69 68 78 74 71 71 73 71 72 72 72 72 72 72 72 72 72 73 73 73 73 72 73 72 72 73 72 72 72 71 71 70 70
73 72 66 65 64 68 71 75 71 72 73 72 76 70 65 65 64 65 67 72 70 68 69 69 71 71 69 69 70 70 71 71 71 72 72 71 71 71 72 72 72 72 72 72 71 70 70 70 69
79 74 66 68 67 65 73 72 72 71 71 75 75 70 63 62 64 64 64 65 64 65 65 65 65 64 66 71 68 69 69 70 70 70 70 69 70 70 71 71 71 71 72 71 70 69 69 68 67
79 69 67 66 66 69 72 70 71 73 73 72 71 72 71 64 69 64 60 59 59 60 62 62 62 64 67 71 73 70 69 69 69 70 69 70 81 81 80 71 70 70 70 69 68 68 67 66 66
74 70 67 74 75 72 73 72 71 69 69 71 66 62 64 65 67 61 59 56 56 57 59 61 61 63 66 70 71 75 75 79 75 74 76 83 80 82 81 73 68 67 67 67 67 67 68 72 81
74 69 74 75 76 75 71 71 73 70 69 72 66 59 61 63 64 61 62 63 57 58 58 58 58 59 64 64 69 72 74 73 76 76 79 79 80 79 81 78 79 77 73 79 77 77 81 78 80
68 75 75 75 73 72 68 69 67 70 67 71 69 63 61 60 61 63 58 57 58 58 60 57 58 62 64 64 68 72 74 76 78 79 78 78 79 79 79 81 80 79 80 77 77 77 75 75 75
69 73 75 73 72 72 71 70 65 63 67 70 67 63 60 60 60 61 62 61 61 61 61 62 63 63 63 64 66 71 73 74 77 77 79 80 80 77 79 79 80 78 78 77 77 75 75 74 74
74 73 73 71 70 72 70 69 70 66 71 70 68 64 61 59 59 61 62 63 61 61 61 61 63 67 66 71 72 70 72 75 76 79 78 77 79 77 79 77 77 77 78 77 77 76 76 76 75
75 69 72 71 71 71 72 67 66 70 70 67 68 68 62 61 64 61 64 64 69 69 68 68 69 72 73 75 74 76 77 78 78 77 77 77 78 76 76 76 75 76 76 75 74 74 75 75 76
70 70 63 72 71 71 71 63 67 71 70 68 69 70 67 61 65 67 67 68 73 74 72 72 73 73 72 73 75 77 78 78 79 79 77 75 76 76 74 75 74 75 74 75 75 75 74 74 75
68 63 63 66 73 71 70 65 70 71 70 70 70 70 70 65 65 71 73 73 74 76 75 72 72 72 72 75 76 75 76 78 80 78 77 74 73 73 75 75 74 73 74 73 73 73 74 72 74
61 62 65 64 70 70 68 67 72 71 71 70 72 72 70 69 66 70 75 76 76 77 76 74 74 73 72 74 75 77 77 79 78 77 77 75 75 73 75 75 72 74 73 71 72 70 71 73 73
66 65 63 68 72 67 68 69 72 72 70 70 71 72 71 73 75 74 75 77 77 76 75 75 73 74 75 72 73 75 74 77 75 75 75 73 76 74 74 74 72 72 72 71 69 69 67 69 70
65 63 63 66 68 67 70 67 72 73 70 72 73 73 73 74 75 75 75 76 75 76 75 75 75 75 75 77 77 77 77 77 77 76 74 74 74 74 73 72 71 71 70 68 67 67 67 70 69
64 63 62 62 66 68 65 64 66 71 72 73 74 77 77 76 75 75 74 76 76 75 75 76 77 77 77 77 78 78 78 76 74 71 70 72 72 73 73 71 71 70 70 68 67 67 66 65 65
60 68 65 63 61 58 64 55 64 70 69 70 73 74 77 77 78 79 77 77 76 77 78 77 78 78 78 78 77 74 74 73 74 72 72 73 71 72 72 71 70 68 70 67 67 67 66 61 57
63 66 64 64 63 61 61 59 65 67 68 72 73 75 77 80 79 79 79 80 80 78 77 77 77 77 77 76 76 74 73 77 77 73 71 70 69 69 70 69 68 67 68 66 65 63 61 56 53
68 64 63 63 63 52 59 59 63 67 70 73 77 78 78 79 80 81 83 82 81 80 78 76 76 76 76 74 72 72 72 73 68 69 68 68 67 67 65 66 66 67 67 64 64 63 57 53 57
66 62 51 49 49 48 59 57 63 71 72 73 74 77 79 80 80 81 81 82 82 80 77 76 76 75 71 68 65 66 68 70 66 67 67 65 64 61 61 63 63 65 63 63 62 55 56 54 59
64 63 52 40 44 52 56 53 65 72 74 75 75 76 77 79 81 82 82 82 82 81 79 75 73 71 71 68 62 66 67 64 64 68 67 65 60 60 59 60 62 62 62 59 55 52 51 58 57
61 57 64 53 50 50 58 61 70 71 71 73 74 74 76 77 80 81 82 83 82 81 79 76 75 73 73 69 64 65 66 65 65 67 68 63 59 58 58 59 59 59 57 54 51 53 54 58 59
65 68 54 57 42 41 53 55 62 65 69 72 74 76 77 77 77 77 79 80 80 81 79 77 77 77 76 71 67 65 67 66 66 65 64 60 60 60 59 60 59 57 55 53 48 49 58 58 59
61 59 60 60 56 46 44 53 70 69 71 72 73 75 77 78 78 76 77 78 78 78 78 76 76 77 77 74 72 66 67 67 65 64 64 62 61 57 56 57 58 54 52 52 52 55 56 55 51
68 64 63 52 50 52 49 53 73 73 73 73 74 74 76 77 78 79 77 76 76 75 76 75 76 76 77 76 74 70 66 64 61 60 60 59 57 55 57 60 56 54 57 55 52 52 54 50 52

GFSSGP_sfc_temp_045.txt.gz
Temp
77 87 94 89 72 73 67 73 83 77 78 85 85 82 77 78 74 54 73 84 90 85 85 80 74 74 74 74 74 74 74 75 75 74 74 75 75 75 75 76 76 77 77 77 77 76 76 75 74
94 92 91 83 68 64 68 78 75 80 82 83 82 81 81 76 80 73 71 82 81 82 85 82 73 74 74 74 74 74 75 75 74 74 75 75 75 75 75 75 75 76 77 77 77 76 75 74 73
88 92 81 76 71 65 67 76 79 82 82 82 81 84 81 77 80 78 80 82 74 75 85 80 72 73 73 73 74 74 74 74 74 74 75 75 75 75 75 74 75 76 77 77 76 75 74 72 71
90 88 84 70 67 74 75 79 80 79 83 84 85 79 80 81 79 84 81 78 75 71 77 72 71 72 73 73 73 73 73 73 73 74 75 75 75 75 75 74 75 76 76 76 75 74 72 71 70
90 85 71 69 70 75 79 82 81 77 80 80 83 79 78 75 80 83 80 81 75 73 73 74 70 72 73 73 73 73 73 73 73 74 74 74 74 74 74 74 74 75 75 74 74 72 71 70 70
80 83 68 65 70 74 79 82 80 79 80 80 79 79 70 74 74 71 80 79 79 75 71 70 71 72 72 72 72 72 72 72 73 73 73 74 73 73 73 73 73 73 73 72 72 71 71 70 70
77 76 69 70 69 71 74 82 76 78 79 79 83 74 72 71 65 67 74 75 71 68 68 68 70 71 70 69 69 70 71 71 72 72 71 71 71 71 72 72 72 72 72 71 71 70 70 70 69
82 78 71 72 65 61 77 79 79 77 73 82 82 73 70 69 63 64 64 65 65 65 65 63 63 69 70 70 69 69 69 70 70 70 69 69 70 71 71 71 71 71 71 71 70 69 69 69 68
86 72 66 69 70 71 79 74 81 82 78 78 78 75 72 68 64 62 60 60 62 63 64 63 60 61 65 69 70 70 70 69 69 70 69 70 76 79 75 71 70 70 69 69 69 68 67 67 67
78 73 71 78 79 76 78 79 78 73 79 77 70 71 70 67 66 64 59 57 58 60 60 60 60 61 63 67 69 72 75 75 75 75 73 78 76 80 80 72 68 68 67 68 68 68 68 70 81
79 71 78 79 79 79 77 76 79 76 68 55 69 61 64 65 63 63 61 60 57 59 59 60 61 62 64 64 65 71 76 76 74 74 74 79 78 77 79 76 77 75 72 78 75 74 80 80 81
73 79 80 80 80 77 74 74 73 76 70 73 72 64 62 61 60 61 58 56 56 56 57 58 60 61 62 61 64 68 74 73 73 74 78 74 79 78 79 80 80 78 80 78 79 80 77 77 77
75 77 80 80 78 78 77 76 70 69 72 71 65 62 61 60 60 60 59 58 57 56 56 57 59 60 61 61 64 69 74 71 74 77 79 77 78 78 80 81 81 81 81 80 78 77 77 76 76
78 78 77 78 77 78 74 75 75 72 77 70 68 63 60 60 60 60 59 58 58 57 57 58 59 61 62 64 64 66 68 71 75 77 77 78 80 78 80 79 81 80 80 80 79 78 76 76 76
79 73 76 74 76 75 77 56 71 75 75 72 70 66 65 64 61 61 63 61 58 59 60 59 59 61 64 67 68 71 70 73 74 76 76 77 78 78 79 79 78 79 80 78 78 76 77 76 78
74 75 61 75 77 78 66 43 73 77 74 72 73 71 68 68 64 68 68 68 64 60 61 63 68 69 69 71 74 76 77 77 79 79 78 78 79 79 77 78 78 78 77 77 76 76 75 76 76
72 63 62 65 78 73 73 55 74 78 76 73 74 73 70 71 68 68 69 71 71 70 68 67 69 68 67 70 76 76 78 78 80 80 80 78 78 78 77 78 77 76 77 76 76 75 75 73 74
64 64 68 63 55 75 71 69 75 77 76 74 74 74 71 70 70 71 73 74 75 74 72 70 73 71 71 72 76 78 78 78 81 81 81 78 78 76 76 78 76 75 76 75 74 73 74 74 74
71 69 66 68 76 71 70 72 68 77 76 74 74 73 72 70 71 73 72 74 73 74 74 75 73 73 72 72 75 76 74 77 79 81 80 79 78 76 75 78 75 74 75 73 72 71 69 70 71
69 67 67 71 74 71 71 69 76 77 76 77 76 76 74 76 74 73 75 78 77 77 77 76 75 75 74 74 77 79 78 79 80 80 77 75 77 77 76 76 75 73 74 72 70 69 69 70 69
68 66 64 65 71 74 71 68 72 77 78 79 79 79 78 77 76 75 76 78 78 78 77 78 78 78 78 79 80 80 80 80 78 79 78 74 76 78 76 76 75 73 74 70 68 69 68 67 67
63 73 68 67 65 58 69 51 59 73 74 75 78 78 79 80 80 79 78 77 78 79 80 80 80 80 76 80 78 77 77 76 78 76 74 74 74 75 76 75 73 72 72 70 69 70 69 67 64
66 71 69 68 65 65 65 61 64 74 71 74 77 79 81 82 82 80 79 80 81 80 80 79 80 81 81 80 79 78 76 78 80 79 74 73 75 74 74 73 71 69 70 70 69 68 66 66 60
74 68 68 68 65 53 63 63 56 68 72 76 80 81 81 83 83 83 84 83 82 82 80 80 79 80 81 81 79 77 75 76 75 72 72 74 73 72 71 72 69 68 67 68 67 66 61 59 59
70 64 52 50 50 49 62 61 64 63 77 77 78 82 83 84 83 83 83 84 83 82 80 80 79 79 80 78 73 74 73 72 65 67 68 69 69 68 68 69 65 64 62 65 65 58 57 54 52
66 65 54 37 46 52 63 56 64 77 79 80 82 82 83 84 84 84 86 85 85 84 82 80 80 79 80 75 70 69 71 68 67 64 63 63 63 63 66 63 60 60 61 59 56 57 55 51 53
66 60 70 54 58 52 60 66 73 77 76 78 79 80 82 83 85 86 87 87 87 86 84 81 79 80 80 74 65 65 70 69 68 66 66 63 62 65 62 58 57 58 57 58 58 55 52 56 55
69 73 57 59 44 42 56 59 61 68 71 75 77 79 81 82 83 85 87 87 88 88 86 83 81 80 77 70 71 71 70 69 69 67 65 63 65 63 59 58 58 59 60 58 55 55 56 53 54
65 62 64 63 57 46 46 56 71 71 74 74 77 79 80 82 82 82 84 86 87 88 86 84 82 82 77 75 73 73 72 70 67 65 64 64 62 60 60 60 58 56 56 54 53 52 53 54 51
70 66 65 53 53 56 53 55 76 76 78 77 78 79 81 82 83 84 83 82 82 82 83 82 81 81 82 73 72 72 71 71 64 63 62 62 61 62 62 58 55 55 55 52 50 52 53 53 48

GFSSGP_sfc_temp_048.txt.gz
Temp
74 81 85 82 66 67 61 67 77 75 74 72 76 63 58 67 66 61 68 69 64 65 77 77 74 74 74 74 74 74 75 75 75 74 74 75 75 75 75 75 76 76 77 77 77 76 76 75 74
85 89 87 78 62 57 63 75 74 77 74 78 76 63 63 63 72 74 69 72 69 70 78 76 73 74 74 74 74 74 75 75 74 75 75 75 75 75 75 75 75 76 77 77 76 76 75 74 73
80 89 76 70 65 59 64 73 75 81 81 80 77 80 77 57 60 75 79 75 75 77 80 75 73 73 74 74 74 74 74 74 74 74 75 75 75 75 75 75 75 76 77 76 76 75 74 72 71
85 84 79 65 63 70 73 75 79 80 83 83 79 78 75 76 74 82 81 75 74 77 77 70 70 73 73 74 74 73 73 73 73 74 75 75 75 75 75 74 75 76 76 76 75 73 72 70 70
87 80 67 65 67 73 79 80 81 77 79 70 69 72 66 71 74 76 78 77 73 71 71 71 69 71 72 73 73 73 73 73 73 74 74 74 74 74 74 74 75 75 75 74 73 72 71 70 70
75 79 64 61 67 74 72 69 71 78 80 72 65 62 57 67 70 68 77 74 74 71 71 70 71 71 72 72 72 71 72 72 72 73 73 73 73 72 73 73 73 73 72 72 71 71 70 70 70
73 71 65 67 67 69 66 69 60 67 68 60 64 59 56 63 65 67 72 70 69 69 69 70 69 69 68 69 70 70 71 71 71 71 71 71 71 71 71 72 72 72 71 71 70 70 69 69 69
80 74 67 69 66 63 74 74 69 78 61 65 64 66 60 62 63 64 65 65 66 66 66 65 66 67 68 68 69 69 69 69 70 70 70 70 70 70 70 70 71 71 71 70 70 69 69 68 69
85 68 63 67 66 70 79 76 81 67 75 65 65 64 65 64 64 62 61 62 63 63 63 63 63 65 65 67 69 70 70 69 69 70 69 69 71 71 72 69 70 70 69 69 69 68 68 68 68
76 68 68 77 78 74 77 77 68 55 66 59 59 66 66 68 64 59 58 58 59 59 60 63 63 63 64 66 67 68 70 70 70 70 70 71 69 71 71 68 68 68 68 68 68 68 68 68 67
77 69 76 78 78 79 76 76 79 73 61 59 59 59 64 63 63 61 58 57 58 59 59 59 61 62 63 64 64 66 65 68 69 68 71 70 70 69 68 67 67 65 68 68 67 66 68 70 68
72 78 79 79 80 78 76 78 74 71 63 66 64 64 62 60 61 58 56 56 57 58 58 59 61 62 62 62 63 63 66 68 68 68 70 69 68 69 69 69 68 67 67 66 67 66 68 68 69
74 77 79 81 79 78 80 69 63 68 67 67 64 63 61 59 58 59 57 56 56 55 57 59 59 60 60 60 61 63 66 68 68 68 71 71 69 68 69 69 71 70 71 68 68 67 68 67 68
79 77 78 79 78 78 61 56 57 68 73 67 66 63 60 59 57 57 56 55 56 56 56 58 58 59 59 58 59 60 65 67 68 68 70 71 69 68 70 71 71 71 70 69 68 67 66 66 66
79 71 75 76 77 75 69 58 54 66 74 69 65 63 61 60 60 58 59 56 58 56 57 58 58 59 59 60 60 61 65 69 68 69 70 70 71 70 70 69 70 69 70 69 68 68 67 66 68
72 72 64 74 74 69 66 50 61 69 72 70 66 65 63 63 62 62 59 57 58 58 58 59 60 58 58 59 60 65 68 68 69 68 68 70 71 70 69 69 68 69 68 67 66 65 65 64 64
69 60 64 68 74 72 61 48 56 65 74 71 69 67 65 63 65 65 63 61 59 61 59 58 59 59 59 63 68 67 67 68 70 69 70 70 71 72 69 68 68 68 67 66 66 65 64 62 62
61 63 66 63 68 70 67 57 56 61 75 71 70 67 66 65 65 67 67 65 64 63 63 62 63 62 63 65 67 70 70 71 70 72 73 72 71 71 68 67 67 65 66 65 65 63 63 62 61
70 66 64 67 72 67 69 69 59 59 68 71 70 68 67 66 68 68 69 67 66 64 65 65 64 64 64 64 65 66 67 69 70 71 72 72 72 71 68 67 67 65 65 65 64 62 61 59 60
68 65 65 71 74 71 70 69 65 59 67 73 71 69 68 68 67 68 67 69 67 66 66 66 67 66 66 66 68 70 70 70 72 72 73 72 70 71 69 67 67 65 65 64 62 61 58 58 58
66 64 65 63 70 73 69 65 67 72 76 76 76 75 72 69 66 67 68 68 69 67 67 68 69 69 70 69 71 72 72 70 69 70 69 70 70 70 70 68 66 65 65 62 61 60 59 56 56
61 72 70 66 63 56 68 51 65 70 66 74 75 74 73 74 70 69 69 69 69 71 71 72 72 72 72 72 70 70 70 69 69 68 70 70 69 68 70 70 67 65 63 62 60 62 59 57 53
65 72 68 67 63 62 61 56 63 70 66 71 74 75 75 75 75 71 72 74 74 74 73 73 74 74 74 74 72 70 69 69 70 70 68 68 67 68 68 68 66 63 63 62 61 60 59 56 54
75 69 67 66 62 49 61 60 54 60 61 71 76 77 77 77 77 77 76 76 76 77 75 74 74 75 75 73 72 68 67 69 67 66 65 65 66 66 65 67 64 63 62 61 61 60 58 53 54
70 62 49 47 47 46 64 59 60 66 69 74 76 77 78 79 78 78 77 76 76 75 74 74 74 74 75 72 72 70 68 68 67 66 63 61 60 60 62 64 62 60 61 59 59 56 54 52 50
64 62 50 37 37 45 59 54 62 73 78 79 81 81 81 79 79 79 79 77 77 75 75 74 74 73 75 73 70 70 70 67 66 66 62 61 61 61 61 60 60 57 58 56 54 52 51 49 48
64 57 67 50 51 45 52 59 70 75 75 77 78 79 78 80 80 80 81 79 78 77 75 74 75 75 75 73 70 67 66 66 65 63 63 61 61 61 60 59 56 56 55 54 52 50 48 48 49
67 71 55 57 41 39 53 57 58 66 70 74 75 76 78 80 81 81 82 81 81 80 78 75 75 75 76 75 69 69 66 65 66 65 63 63 61 60 58 56 56 55 54 54 50 48 48 50 50
63 61 61 61 56 43 42 51 59 66 73 73 75 77 78 79 78 79 80 82 82 82 80 77 77 77 75 74 69 67 67 67 66 63 63 63 60 58 56 56 55 55 54 52 49 49 50 50 47
69 64 63 51 49 53 47 51 74 70 75 76 76 78 79 79 81 79 79 80 79 79 81 78 77 77 71 70 69 68 68 67 62 61 60 59 57 57 57 56 55 54 52 51 49 48 50 48 45

GFSSGP_sfc_temp_051.txt.gz
Temp
64 69 67 66 51 47 45 54 64 63 67 69 69 67 63 62 62 55 65 67 68 69 72 74 73 74 74 74 74 74 75 75 75 75 75 75 75 75 75 75 76 76 77 77 77 77 76 75 74
70 77 68 60 46 39 48 61 62 66 72 69 69 67 65 62 67 65 63 67 69 69 71 71 73 74 74 74 74 74 75 75 75 75 75 75 75 75 75 75 75 76 76 77 77 76 75 74 72
71 75 58 52 45 45 49 62 67 71 75 74 72 72 68 58 66 69 72 69 70 71 73 73 72 73 74 74 74 74 74 74 74 74 75 75 75 75 75 74 75 75 76 76 76 75 73 72 71
70 65 62 50 49 56 56 60 62 71 74 72 69 64 66 65 65 67 74 70 69 71 73 71 71 73 73 74 74 73 73 73 73 74 74 75 75 75 75 74 75 75 76 76 75 74 72 71 71
67 60 48 46 52 62 62 63 67 66 69 63 66 57 60 66 67 69 70 71 68 69 69 71 70 72 71 72 73 73 72 72 73 73 74 74 74 74 74 74 74 74 74 74 73 72 71 70 71
59 60 46 48 56 65 62 61 67 68 64 63 60 59 57 65 65 66 68 68 69 68 68 69 70 69 69 69 71 72 72 72 72 72 73 73 73 73 73 73 73 72 72 72 71 71 70 70 71
57 51 48 52 58 60 63 64 65 65 58 56 64 58 59 61 64 65 69 67 68 69 68 68 69 69 68 68 69 70 71 71 71 71 71 71 71 71 72 72 72 71 71 71 71 70 70 70 70
63 56 52 56 58 57 66 69 68 63 55 66 65 54 56 61 64 65 66 66 65 66 67 67 67 67 67 67 68 69 69 69 70 70 69 69 69 70 70 70 71 71 71 70 70 69 69 70 70
66 51 49 56 61 65 73 68 66 68 60 60 62 61 62 63 64 63 62 62 62 63 63 64 64 65 65 68 69 69 69 69 69 69 69 67 68 69 69 69 69 70 69 69 69 69 69 69 69
58 49 56 69 66 63 69 65 63 61 61 61 60 63 63 63 62 60 60 60 60 60 61 62 63 63 65 68 68 67 68 67 67 68 66 68 66 67 69 68 68 68 68 68 68 68 68 68 64
63 55 66 70 67 69 64 59 64 57 55 60 58 58 62 60 59 57 57 59 58 60 61 61 61 61 64 64 64 66 65 67 67 67 67 67 67 66 65 65 65 64 66 64 65 65 64 65 63
60 69 70 70 70 68 60 61 57 59 57 62 60 62 61 59 58 57 56 57 57 57 59 60 61 61 61 65 62 63 63 66 65 66 67 65 64 66 64 64 64 63 62 62 62 62 63 64 65
63 68 72 73 72 65 64 58 57 56 61 62 63 61 59 58 57 57 57 56 57 56 58 59 60 60 60 60 60 61 63 65 65 64 67 68 66 65 66 65 65 65 62 62 62 63 64 64 64
69 69 69 72 68 66 61 57 61 58 63 62 63 60 59 57 56 55 55 54 55 57 57 59 58 59 59 59 60 59 61 65 64 65 68 67 65 64 65 65 66 63 65 63 63 64 63 63 63
70 62 66 68 68 59 62 57 58 61 64 62 59 60 59 57 58 55 56 55 56 57 58 58 58 59 59 60 60 60 60 66 64 66 67 68 68 67 66 63 64 64 64 65 64 63 62 61 63
62 61 52 65 67 63 63 50 62 63 60 58 58 58 57 57 58 57 58 57 57 58 57 58 60 58 59 59 59 62 63 64 65 65 65 68 69 67 65 63 63 62 64 64 62 61 60 60 59
55 49 53 61 64 61 57 49 62 63 64 60 58 57 57 58 58 56 58 57 58 59 59 58 58 58 59 60 62 63 63 62 63 65 66 67 68 68 65 65 63 64 63 62 63 61 60 58 57
49 52 55 55 62 62 52 51 57 62 61 58 58 57 57 57 56 56 56 56 59 59 58 58 58 59 60 60 63 62 62 61 62 64 65 66 67 67 65 64 62 62 62 61 60 60 59 58 58
60 58 55 60 65 61 53 54 54 58 57 56 58 57 57 57 60 58 58 57 56 56 56 57 57 59 60 59 61 61 62 63 62 63 66 66 67 66 65 62 63 61 61 61 60 59 58 56 55
62 56 55 64 69 60 53 51 54 57 56 61 60 58 58 59 60 60 58 58 58 58 58 58 59 60 60 60 65 64 64 63 66 66 65 67 67 67 64 62 61 60 60 60 59 58 55 55 54
59 56 55 57 62 62 56 47 52 58 62 63 64 63 62 60 59 60 58 59 59 58 59 60 61 62 63 62 63 65 65 63 61 61 65 67 68 66 65 63 62 60 59 58 57 56 56 53 53
53 64 63 61 54 45 55 40 51 58 57 60 65 62 63 61 62 63 61 60 60 60 62 63 63 63 65 65 63 63 63 63 65 62 63 64 66 65 66 65 63 60 60 58 57 58 57 57 54
58 65 62 59 53 49 51 44 51 58 53 55 62 63 64 63 62 63 63 63 63 63 63 64 65 65 66 65 65 63 62 66 64 65 61 64 62 63 63 62 61 61 62 60 58 58 58 56 54
67 62 60 56 51 38 51 49 47 55 58 61 65 66 65 65 63 65 66 67 66 66 64 64 65 65 66 66 66 66 64 63 63 61 63 62 61 61 63 63 61 61 59 59 58 57 57 53 53
61 52 39 35 34 34 54 51 49 59 63 66 66 67 68 68 65 64 65 65 67 67 66 66 67 66 67 67 67 66 63 64 65 60 62 59 60 58 59 60 59 59 58 58 57 55 53 52 51
56 53 38 31 29 38 52 45 52 64 66 68 70 72 71 70 69 66 67 68 69 69 69 68 68 68 69 68 67 68 67 64 63 62 59 61 61 60 60 59 59 58 57 56 54 52 51 50 49
55 49 57 45 43 37 44 51 62 65 65 66 68 69 68 69 71 69 70 70 71 71 71 69 70 70 70 69 67 67 66 66 64 60 60 60 58 57 57 58 56 57 55 54 52 51 49 49 47
61 62 47 46 33 31 44 45 47 55 63 65 63 63 66 67 70 72 72 71 72 73 73 71 71 71 72 68 67 68 68 61 61 60 58 59 58 57 56 56 55 55 54 52 51 49 48 48 47
55 54 54 51 44 34 32 41 54 58 63 64 63 67 66 66 68 66 70 72 74 74 72 70 69 67 69 69 69 67 64 60 61 60 60 59 58 56 55 54 54 53 52 51 49 49 48 48 46
62 56 55 40 42 41 34 40 63 62 65 65 67 68 67 67 69 69 69 68 68 72 67 67 67 65 67 67 66 65 62 61 60 59 59 59 57 55 54 54 54 53 52 50 49 47 49 47 45

GFSSGP_sfc_temp_054.txt.gz
Temp
63 65 66 64 50 44 40 49 56 58 58 66 67 64 61 60 59 53 66 68 68 69 74 73 71 73 74 74 74 74 75 75 75 75 75 75 75 75 75 75 75 76 77 77 77 76 75 75 74
67 72 65 56 44 36 41 53 54 64 68 67 68 66 62 57 64 62 64 70 67 68 73 72 72 72 74 74 74 74 75 75 75 75 75 75 75 75 75 74 75 76 77 77 77 76 75 74 73
69 72 58 49 40 38 42 53 60 65 71 69 67 66 62 59 66 66 69 68 67 68 71 72 72 71 72 74 74 74 74 74 74 74 75 75 75 75 74 74 74 76 76 77 76 75 74 72 71
67 62 58 47 44 51 54 61 62 66 67 65 65 59 63 67 65 67 70 68 66 68 70 70 71 71 72 74 74 73 73 73 73 74 74 75 75 75 74 74 74 75 76 75 74 74 72 71 71
63 56 46 41 47 54 62 63 65 61 61 61 62 57 60 64 67 68 69 70 69 68 69 70 70 72 72 71 72 73 72 72 73 74 74 74 74 74 73 73 74 74 74 74 73 72 71 71 71
56 53 42 39 48 59 63 65 63 60 61 61 58 56 58 63 63 65 68 68 69 68 69 69 71 72 69 69 68 70 72 72 72 73 73 74 73 73 73 72 72 72 72 71 71 71 71 71 71
53 49 43 45 53 57 62 63 60 57 56 58 62 57 59 60 62 65 67 67 67 67 67 66 68 69 68 67 67 67 70 71 72 72 72 72 71 71 72 71 71 71 71 71 71 70 70 70 70
57 52 44 48 50 56 64 65 62 60 56 65 64 56 57 60 63 65 65 64 65 66 67 67 67 67 66 66 67 68 69 69 69 70 70 69 70 70 70 70 70 70 70 70 70 70 70 70 69
61 47 44 49 58 61 65 65 62 64 59 60 62 61 62 62 64 63 62 62 63 63 65 66 65 64 64 65 65 69 69 69 69 69 69 68 68 69 69 69 69 70 69 69 69 69 68 67 68
55 45 51 60 62 60 59 57 58 60 60 59 59 61 62 61 62 61 60 59 60 61 62 63 64 63 63 64 66 67 68 68 67 66 67 66 66 67 68 68 68 68 68 68 68 68 68 65 61
54 52 64 65 68 64 57 55 61 58 54 56 54 56 61 60 59 58 59 60 60 60 61 62 62 63 63 62 65 67 66 67 65 66 66 67 66 65 65 66 65 65 66 65 65 64 63 64 61
54 64 66 66 67 62 58 59 57 58 58 61 60 61 60 58 58 58 57 57 59 60 60 61 62 62 62 66 67 66 66 67 66 66 64 64 64 64 64 64 63 63 62 62 61 60 62 62 63
60 63 67 68 63 59 62 58 57 55 58 60 61 60 58 58 57 57 57 58 57 58 58 60 60 60 61 61 62 63 64 67 65 64 64 66 63 62 64 63 61 62 61 59 60 61 61 61 62
63 64 64 65 61 63 59 57 59 58 61 60 58 57 58 56 56 56 56 56 57 58 58 59 59 59 60 59 60 62 63 65 65 65 66 63 63 62 63 61 62 61 61 60 61 61 61 61 61
65 58 61 62 60 58 58 52 54 60 60 58 56 56 57 57 57 56 56 55 57 58 58 58 58 60 60 59 59 60 62 65 66 65 65 64 65 64 61 60 60 60 61 62 61 61 61 60 61
58 55 48 59 60 60 55 49 57 58 57 55 54 55 55 57 58 57 56 56 57 57 57 58 60 59 59 59 60 63 62 62 65 63 64 65 66 65 63 62 61 61 61 61 61 60 59 58 58
50 45 49 55 62 59 56 50 56 59 60 54 54 53 53 54 55 57 58 57 57 57 56 56 58 59 59 60 62 62 62 62 64 64 65 65 66 65 64 62 61 61 60 60 62 59 59 56 55
44 45 44 49 58 56 53 51 54 59 59 55 53 52 53 52 53 54 58 58 59 59 59 59 58 60 59 60 62 62 61 62 62 64 63 64 65 65 63 62 61 61 59 59 59 59 57 57 56
54 52 50 56 63 58 53 52 54 55 55 53 53 52 52 53 54 54 57 57 58 58 58 58 58 58 59 59 60 60 59 60 60 61 63 63 63 65 63 62 60 60 59 59 59 58 57 55 54
55 52 52 58 63 61 50 52 51 53 54 55 54 53 53 54 53 54 54 55 56 56 57 58 58 59 60 60 61 61 61 58 60 61 62 62 63 63 63 61 60 60 59 59 57 57 54 54 52
55 52 52 54 60 57 53 48 49 56 58 61 60 57 57 55 53 54 54 53 56 55 54 56 57 58 59 59 60 58 58 58 58 59 60 62 62 63 63 62 60 59 58 58 56 55 55 55 54
50 60 58 57 51 44 52 39 47 52 54 58 59 56 56 57 58 56 55 54 54 55 57 58 58 59 59 59 60 60 61 61 63 60 62 62 62 63 64 63 60 59 59 58 57 56 54 56 54
55 61 58 57 49 45 47 42 47 53 50 55 58 58 58 58 58 57 57 57 57 58 57 58 59 60 61 61 61 60 58 61 62 60 58 61 60 63 64 63 60 59 59 60 58 56 55 55 53
65 58 55 51 47 37 47 45 42 47 55 57 61 62 60 59 59 60 60 60 59 58 58 58 58 60 61 61 61 60 58 59 60 58 57 58 61 60 62 63 61 59 59 59 59 57 56 54 53
58 49 37 35 33 34 50 45 47 56 60 61 61 61 62 61 60 60 59 59 60 58 58 60 60 59 61 61 61 62 60 60 60 60 59 58 60 58 60 62 60 60 59 59 58 56 55 53 51
53 51 37 32 29 36 48 42 51 61 62 66 65 65 65 63 62 61 61 61 61 61 61 60 61 61 62 62 62 62 63 63 63 63 60 59 61 61 59 59 58 58 58 56 55 53 52 51 50
54 48 54 42 40 35 41 49 57 60 60 62 63 66 64 63 63 62 63 63 63 63 62 61 62 63 63 63 62 62 63 63 63 63 60 60 60 58 58 58 57 56 56 54 53 51 50 51 49
58 60 44 42 33 30 39 44 45 53 59 61 60 63 64 66 65 64 64 64 65 66 64 63 64 63 65 65 64 64 64 64 65 60 60 59 58 56 56 56 56 54 53 52 52 50 50 49 47
52 50 51 49 42 33 31 40 51 54 60 59 60 63 62 65 67 66 66 66 67 68 66 65 64 65 66 66 66 65 64 64 60 60 60 59 59 57 56 56 54 52 50 49 51 50 49 48 46
55 54 52 40 39 39 33 41 58 58 62 63 64 64 62 65 68 69 68 68 68 68 67 67 66 66 67 67 68 65 64 61 60 59 59 60 58 57 56 54 53 52 50 49 49 48 49 47 45

GFSSGP_sfc_temp_057.txt.gz
Temp
62 63 62 62 49 43 38 45 51 54 56 60 63 61 58 56 56 52 65 66 69 71 71 72 72 72 72 73 74 74 75 75 75 75 75 74 74 74 75 75 75 76 76 76 76 76 75 74 73
65 68 63 53 42 35 40 49 52 57 62 64 65 62 59 56 63 61 62 67 68 69 69 71 71 72 71 70 73 74 75 75 75 75 75 75 74 74 75 75 75 75 76 76 76 75 74 73 72
66 69 57 47 37 37 40 51 57 62 65 63 63 63 61 58 64 64 68 68 66 67 70 71 71 71 71 70 73 74 74 74 74 74 75 75 75 75 75 74 75 75 76 76 76 75 73 72 71
65 61 55 45 42 48 51 58 59 61 64 63 61 57 61 66 65 65 69 68 66 66 69 70 70 70 71 73 73 73 73 73 74 74 74 75 75 74 74 74 75 75 75 75 75 73 72 71 70
60 54 45 39 43 52 56 59 61 59 60 60 60 57 58 62 66 67 67 67 65 65 68 70 70 71 73 72 72 71 72 72 73 74 74 74 74 74 73 74 74 74 74 74 73 72 71 70 70
54 51 41 38 45 55 58 59 61 60 60 60 57 54 56 61 61 64 67 66 67 66 68 67 71 71 71 71 70 70 71 72 72 73 73 73 73 73 73 72 72 72 72 72 72 71 71 70 69
51 47 40 41 47 52 59 59 58 57 55 56 60 55 57 58 61 65 67 67 67 66 66 67 69 69 66 65 65 65 69 71 72 72 72 72 71 71 71 71 71 71 71 71 71 71 70 70 69
54 50 40 45 47 50 59 61 60 57 56 64 62 55 55 59 63 65 65 65 65 65 64 66 66 66 65 63 65 67 69 70 71 71 70 69 70 70 70 70 70 71 71 71 71 69 69 69 68
57 46 40 46 49 56 62 61 60 61 57 59 61 60 60 62 64 62 60 61 64 64 64 65 65 65 64 64 65 68 70 68 69 69 69 68 68 67 67 69 69 70 69 69 69 68 68 68 67
52 44 48 56 57 58 58 56 59 58 58 58 57 59 60 60 62 60 60 59 60 62 63 62 63 62 63 65 65 67 68 68 69 69 68 67 65 66 67 67 68 68 68 68 68 67 67 65 60
51 50 56 63 62 61 55 53 59 55 52 55 55 55 58 58 58 59 60 60 60 61 62 62 62 63 62 61 60 67 66 65 62 62 65 65 65 66 65 65 64 65 65 64 64 61 62 62 60
51 59 60 62 63 58 55 56 56 57 56 60 58 58 56 56 58 58 58 59 59 60 61 62 61 60 61 63 62 65 65 65 63 63 65 64 63 65 64 62 61 62 62 61 61 60 61 60 60
56 59 62 64 59 57 59 57 57 53 56 58 58 57 56 55 57 56 58 58 59 59 60 60 62 61 60 60 62 63 64 64 63 63 64 65 65 63 61 61 60 61 60 60 59 60 60 59 59
60 61 61 61 58 59 57 55 54 56 57 56 56 56 55 57 56 56 56 56 57 58 59 59 60 61 61 62 62 61 60 62 63 64 65 64 63 62 62 61 61 59 60 60 59 60 59 59 58
61 55 58 56 57 57 57 52 52 56 57 55 54 54 57 56 57 56 56 56 57 58 58 59 59 60 60 60 60 61 62 65 64 65 63 63 63 63 61 59 59 57 59 59 59 59 58 57 59
55 51 46 55 58 59 56 49 53 55 55 53 53 53 56 58 56 55 57 57 58 58 58 59 60 60 60 60 60 63 62 64 65 65 64 62 63 63 61 60 59 59 58 58 58 58 57 56 57
46 42 45 52 59 55 53 50 53 54 56 52 52 52 52 50 52 54 57 57 57 58 57 57 58 59 60 60 61 61 62 62 62 63 63 63 65 64 63 62 60 60 59 58 58 57 57 55 55
41 43 40 46 52 52 47 51 52 54 54 53 51 51 50 51 51 53 57 58 57 57 58 57 57 57 59 58 58 59 60 61 62 62 63 63 63 63 62 61 60 61 59 58 57 57 56 56 55
50 47 45 51 58 55 52 49 53 53 52 50 50 50 50 50 52 52 57 58 58 57 57 58 56 57 57 61 57 58 58 60 61 62 64 63 63 62 61 60 59 59 58 58 58 56 55 54 53
50 47 47 53 59 55 53 51 52 51 51 52 52 50 50 51 51 52 56 56 56 56 57 58 58 58 58 60 63 62 60 60 61 62 62 63 62 62 61 60 59 59 58 57 56 55 53 54 52
50 47 48 49 55 52 49 48 47 54 54 56 55 54 53 52 51 51 53 53 56 55 56 57 58 59 60 61 60 59 60 60 59 60 60 61 62 62 61 60 59 58 57 58 56 55 54 53 51
45 55 54 52 48 42 49 37 47 49 52 54 55 53 53 53 53 52 54 51 53 56 57 57 56 57 58 60 59 59 60 60 57 58 59 60 60 60 61 60 59 58 58 57 57 57 54 53 52
50 56 54 52 47 43 44 39 45 48 49 54 55 55 54 55 54 52 52 52 54 56 52 55 56 57 58 57 58 56 54 56 57 58 57 57 58 59 60 60 59 58 58 58 57 55 53 53 53
60 54 51 47 44 35 44 42 40 44 51 56 57 57 56 56 55 55 55 55 53 54 53 53 55 56 58 57 56 56 55 54 55 55 55 56 56 58 59 60 60 59 58 57 57 56 55 54 54
53 46 35 34 32 33 46 41 44 53 57 60 59 59 58 58 56 56 54 53 54 53 53 54 55 55 57 57 58 58 57 56 56 57 56 55 54 55 58 59 58 60 60 59 59 57 57 54 53
51 48 35 31 29 35 45 39 48 57 62 62 62 63 61 58 59 57 57 56 56 56 55 55 56 56 58 57 58 58 59 59 58 58 58 56 57 58 58 58 59 60 57 56 56 56 55 53 52
50 44 52 39 37 33 39 46 54 58 58 56 57 59 59 58 59 59 59 59 58 58 57 56 57 57 58 59 58 58 59 60 59 59 59 59 57 58 57 59 59 57 56 56 54 52 51 51 51
55 56 42 40 31 29 36 39 42 51 56 57 56 56 59 62 60 60 61 60 60 60 59 58 59 59 60 59 60 60 60 60 62 61 60 59 59 58 56 56 56 55 55 54 52 49 49 50 49
49 47 47 47 39 32 30 36 49 53 56 57 58 58 59 61 61 61 62 63 62 62 60 59 59 60 60 61 62 61 61 61 61 60 61 59 58 59 58 57 56 55 53 51 49 48 49 49 48
54 50 49 38 37 36 31 41 55 55 56 57 58 60 58 60 63 64 63 63 63 62 61 60 60 60 61 62 63 62 62 62 61 61 61 60 59 59 59 59 56 54 53 52 51 49 50 48 47

GFSSGP_sfc_temp_060.txt.gz
Temp
61 61 61 60 49 43 36 44 48 51 52 59 61 59 57 56 57 51 63 67 70 70 72 73 73 73 74 74 74 75 75 75 75 75 75 75 75 75 75 75 75 76 76 76 76 75 75 74 73
62 65 61 52 42 35 40 46 50 55 61 61 62 60 59 56 62 60 62 67 71 71 71 71 73 73 74 74 74 74 75 75 75 75 75 75 75 75 75 75 75 75 76 77 76 76 74 73 72
64 66 56 44 36 37 39 49 54 58 62 60 59 61 58 58 63 63 66 69 67 68 69 71 72 73 73 73 74 74 74 74 74 74 75 75 75 75 75 74 74 75 76 76 76 75 73 71 70
63 59 53 44 38 46 49 55 56 58 61 61 58 57 60 64 63 64 67 69 65 64 68 68 69 71 73 73 73 74 73 73 73 74 74 75 75 75 74 74 74 75 75 75 74 73 71 70 69
58 52 43 38 41 48 52 56 57 58 59 59 57 55 57 61 64 66 65 68 66 64 65 68 68 70 71 72 73 73 73 73 73 73 74 74 75 75 74 74 74 74 74 74 73 71 70 69 69
53 50 40 37 43 52 55 58 60 59 58 57 55 53 56 60 60 62 65 64 64 63 65 67 70 70 71 72 72 72 72 72 73 73 73 74 74 73 73 73 73 72 72 72 71 70 70 69 69
51 45 39 39 45 49 56 56 57 56 53 55 59 54 58 58 60 64 64 66 65 64 65 67 68 70 69 70 69 69 69 72 72 72 72 72 71 71 72 71 71 71 71 71 70 70 69 69 68
52 48 38 41 44 48 57 58 57 55 56 62 60 53 54 59 62 65 64 66 66 65 65 65 66 65 64 64 66 66 67 70 71 71 70 69 70 70 70 70 71 71 71 70 70 69 69 68 68
54 44 39 44 46 54 60 58 58 59 56 57 59 58 58 61 64 62 61 62 64 64 64 65 64 63 63 63 65 65 67 71 69 70 69 67 67 66 65 69 70 70 69 69 69 69 68 67 67
51 43 46 53 54 56 59 55 56 55 55 56 55 57 60 59 62 60 58 59 61 61 63 64 63 62 62 62 62 63 66 67 69 69 67 66 63 63 66 68 68 68 68 68 67 68 67 64 60
50 48 53 58 59 58 53 51 57 53 52 56 54 54 59 59 57 60 60 60 60 61 62 62 62 62 61 61 62 66 68 65 68 68 66 64 64 64 63 64 64 65 66 65 65 64 62 59 58
48 56 57 60 59 55 53 54 53 55 57 58 57 56 58 57 59 59 59 59 60 61 61 61 62 61 61 64 64 67 69 67 63 64 65 64 64 61 60 61 59 59 59 59 61 60 59 58 59
52 57 59 62 59 55 57 55 54 54 56 57 57 57 56 57 57 57 58 59 60 60 60 60 60 59 61 62 64 64 65 64 63 64 65 66 63 61 60 61 61 59 59 58 59 59 59 58 57
58 58 58 59 58 56 55 52 53 56 56 55 57 55 57 57 57 56 57 57 58 59 59 60 60 60 60 60 61 61 62 61 62 63 63 64 63 61 63 61 59 58 58 59 60 59 58 58 58
58 52 55 56 53 54 55 50 49 55 55 54 53 53 56 57 57 56 57 57 58 59 59 59 60 60 61 61 61 61 62 62 61 61 61 61 61 61 60 59 58 57 58 58 59 58 58 56 58
51 49 43 53 54 54 55 47 51 53 53 52 52 54 56 56 58 56 56 57 59 58 58 59 60 60 60 61 60 61 62 62 62 60 61 61 62 61 59 58 59 57 57 58 57 57 56 57 56
45 39 42 50 55 52 50 48 50 52 53 51 51 51 55 52 52 55 56 58 58 59 58 58 58 59 59 60 60 60 61 62 61 62 62 61 63 61 61 59 59 58 57 57 58 56 57 56 56
40 40 38 43 50 49 46 49 50 52 52 52 50 50 52 49 51 54 56 57 57 57 58 57 57 57 58 59 58 58 60 60 62 62 62 62 63 62 61 59 59 59 58 57 57 56 56 56 56
48 44 42 47 53 50 50 48 54 51 49 49 50 51 50 49 51 53 55 57 56 57 57 57 56 56 57 59 58 57 57 59 60 61 62 63 62 62 61 60 60 59 58 58 58 56 55 54 54
48 43 44 50 55 52 48 49 51 49 49 51 51 50 49 49 52 54 56 56 56 55 57 57 58 57 57 59 63 59 57 59 61 61 62 63 62 61 60 60 59 59 58 57 56 56 53 54 52
46 44 44 46 50 50 46 46 48 52 51 52 52 52 51 50 51 53 54 55 55 55 56 57 58 58 58 58 58 59 59 57 59 59 60 61 62 61 61 60 59 58 58 57 55 55 55 53 50
43 52 51 49 44 38 46 34 45 48 50 51 52 51 51 51 52 53 54 53 55 56 57 58 59 59 60 59 58 59 61 57 59 59 61 61 61 59 61 59 58 58 57 56 56 56 55 53 51
50 53 50 49 43 40 41 37 43 46 50 52 52 52 52 52 52 51 52 54 56 57 57 57 56 59 60 58 59 56 53 57 57 59 59 59 58 58 58 59 58 57 57 57 56 55 53 53 51
58 52 48 44 42 33 43 40 38 44 51 53 54 55 54 52 52 53 53 52 51 52 53 56 53 55 57 57 57 56 55 54 54 54 54 55 55 56 57 58 57 57 57 57 57 55 55 55 55
51 44 34 32 31 32 44 39 45 52 54 56 57 55 55 54 53 52 51 50 50 50 51 52 54 53 55 55 56 56 55 54 54 53 53 53 53 53 55 56 56 56 57 58 58 57 57 56 55
47 47 34 30 29 34 42 37 47 55 58 59 58 58 55 53 55 53 53 52 52 52 52 52 52 53 55 54 54 55 56 56 56 54 52 52 53 54 55 56 57 57 57 58 58 58 57 56 55
47 41 50 37 34 32 37 44 53 57 57 55 54 55 54 53 54 55 55 55 54 53 53 52 53 54 55 55 54 54 55 56 56 54 53 55 54 55 55 56 56 56 56 56 57 56 55 53 52
52 53 40 37 30 28 34 37 42 51 54 56 54 54 55 54 55 56 57 56 56 56 55 54 55 55 55 56 56 56 56 56 57 56 56 57 58 55 55 55 56 56 55 55 54 52 50 51 48
47 44 44 44 37 32 30 35 47 52 55 54 55 56 55 55 55 57 58 59 59 58 56 55 55 55 55 56 57 57 56 56 56 57 58 57 58 58 58 58 57 57 55 55 54 52 50 50 49
49 46 48 37 35 35 32 41 53 54 55 54 55 57 57 57 57 58 58 58 58 58 57 55 55 56 57 57 58 57 58 58 57 57 58 57 58 59 59 60 59 58 56 53 52 51 51 50 48

GFSSGP_sfc_temp_063.txt.gz
Temp
70 71 74 74 64 60 56 58 60 61 63 69 68 67 66 66 66 61 70 70 75 75 78 77 73 74 74 75 75 75 75 75 75 75 75 75 75 75 75 75 75 76 77 77 76 76 75 74 73
71 72 73 66 60 56 58 59 59 65 69 69 67 67 66 67 67 67 65 70 76 76 78 77 73 73 74 74 75 75 75 75 75 75 75 75 75 75 75 75 75 76 76 76 76 75 75 73 72
74 73 70 61 55 55 56 60 65 67 70 68 67 68 67 67 68 69 72 71 72 76 77 76 72 73 74 74 74 75 75 74 74 74 75 75 75 75 75 75 75 75 76 76 76 74 73 71 70
73 72 65 60 55 58 60 67 66 67 68 68 67 64 67 68 68 71 73 70 67 70 73 71 71 72 73 74 74 74 74 73 74 74 75 75 75 75 75 74 75 76 76 76 75 73 71 70 69
70 67 59 56 55 59 62 64 65 65 66 65 65 66 65 67 69 71 71 69 67 69 73 73 68 71 73 74 74 73 73 73 73 74 74 74 75 74 74 74 74 75 75 75 73 71 70 69 69
67 64 57 55 55 60 64 67 66 65 66 65 63 63 65 67 67 69 70 70 67 69 72 73 70 71 72 73 73 72 72 72 73 73 73 74 73 73 73 73 73 73 73 72 71 70 70 69 69
64 61 56 53 55 58 64 66 65 66 64 66 66 62 65 66 67 68 70 70 67 68 67 70 71 71 70 70 72 71 71 72 72 72 72 72 72 72 72 72 72 72 71 71 70 70 69 69 68
65 64 53 55 56 58 67 67 67 67 66 66 66 62 62 65 67 68 68 69 70 66 67 71 69 70 70 71 67 70 71 70 71 71 71 70 71 71 71 70 71 71 71 70 70 69 69 68 67
65 59 54 56 55 63 67 65 65 66 65 64 65 64 65 66 67 66 65 65 65 65 68 68 66 67 69 69 68 69 69 70 70 70 69 69 75 73 73 71 69 70 70 70 69 69 68 67 67
64 57 58 63 64 65 68 66 67 63 62 62 62 64 64 65 65 64 63 61 63 62 64 64 64 64 65 65 65 66 67 67 69 70 71 71 70 71 75 71 68 68 69 69 68 68 67 70 73
60 59 61 65 67 67 65 62 66 63 62 64 62 62 62 62 62 62 62 63 62 62 63 64 61 61 61 60 60 62 64 65 67 68 69 70 70 70 73 72 73 71 70 74 72 71 73 71 72
59 63 65 68 66 65 62 64 61 62 64 64 65 63 62 59 61 60 61 62 62 61 62 61 61 61 60 60 60 62 66 64 64 66 70 70 68 70 69 72 71 71 72 71 72 71 70 70 71
59 64 65 67 66 64 63 63 63 61 64 63 62 61 60 60 60 60 60 60 61 61 61 61 62 62 61 61 61 61 65 65 64 66 70 69 68 67 70 69 72 71 71 71 69 70 70 69 70
64 64 66 66 66 65 62 61 60 65 64 60 59 59 60 60 59 60 60 59 60 60 60 60 61 61 62 61 63 64 65 64 63 66 69 70 68 67 68 69 70 70 72 72 72 71 70 71 70
64 60 63 65 65 63 63 60 58 65 62 56 57 58 59 61 60 60 61 59 59 60 59 59 59 61 61 64 62 62 63 65 63 67 69 69 67 68 70 70 69 67 68 69 69 68 69 68 69
60 58 54 62 60 60 62 57 63 62 60 55 56 56 59 60 61 60 60 60 62 60 59 60 61 60 61 62 60 63 63 65 64 63 67 68 69 69 67 67 67 67 67 70 69 68 68 67 67
53 51 51 57 62 60 60 58 62 59 59 59 58 56 58 59 60 59 60 62 60 59 59 59 60 60 61 61 60 61 62 64 63 64 64 67 68 68 68 68 66 66 66 67 68 67 67 66 66
49 49 51 53 58 58 57 58 65 60 59 60 60 58 55 56 57 58 59 60 60 59 59 59 60 60 61 59 61 60 60 64 63 64 65 68 67 66 67 67 66 66 65 65 67 65 66 66 66
54 52 51 56 60 58 57 57 62 61 58 58 60 59 55 54 58 58 60 60 58 58 58 58 57 58 60 58 58 58 58 64 65 64 64 67 67 67 67 66 66 66 66 65 64 64 64 63 64
55 52 52 57 58 58 59 59 65 60 60 60 61 60 57 55 55 57 59 59 57 58 58 58 58 58 59 60 62 62 62 64 64 65 65 67 65 67 68 67 66 66 65 64 64 64 63 66 64
52 51 51 52 55 58 56 56 60 63 60 59 61 63 61 57 54 55 56 57 58 58 58 59 59 58 58 60 59 58 59 59 62 63 66 66 66 67 67 67 64 64 65 63 64 64 63 63 62
48 55 55 52 51 48 57 46 56 62 60 59 62 61 61 59 59 58 58 57 58 60 62 61 60 59 58 60 59 60 62 59 63 63 67 64 65 66 66 64 63 64 64 63 63 63 64 64 63
54 57 55 54 51 49 50 48 54 56 60 65 66 62 63 61 59 59 59 59 60 61 61 61 60 62 60 60 61 60 60 63 60 60 63 64 64 65 65 63 65 64 66 65 65 64 63 64 64
60 56 53 51 49 40 50 49 53 56 61 64 66 65 63 62 60 61 61 60 59 60 61 61 60 62 61 60 61 60 60 59 59 58 59 60 63 62 64 65 64 65 65 65 65 65 64 63 63
57 53 42 39 38 40 49 46 54 61 65 64 66 69 64 63 61 59 57 57 57 57 60 60 61 61 62 60 61 61 63 61 62 60 61 62 63 63 63 65 64 65 66 66 67 65 64 63 61
52 53 43 35 36 42 47 44 56 64 67 66 67 67 66 62 62 60 59 58 57 56 59 60 59 60 61 61 62 63 64 64 64 63 64 64 65 67 66 66 66 67 67 66 66 65 65 63 57
51 47 56 43 41 41 47 51 59 65 66 66 67 64 63 62 62 62 61 60 60 58 58 58 59 59 61 61 62 62 63 64 64 64 64 64 64 64 65 66 66 67 66 66 66 65 64 61 59
57 58 46 45 37 34 42 44 50 59 62 65 65 66 65 64 62 63 62 61 61 61 60 59 60 60 61 61 62 62 62 63 64 64 63 64 65 64 65 65 66 66 66 66 65 64 62 60 59
52 50 50 51 45 40 38 45 56 60 63 63 64 65 66 65 64 63 64 64 63 63 61 59 60 60 61 62 62 62 62 62 62 62 63 64 64 65 65 66 66 66 66 64 62 59 58 57 58
57 53 53 44 40 42 41 47 59 62 62 61 64 65 67 67 67 66 65 64 63 63 62 61 60 60 61 62 62 61 61 61 60 60 62 63 64 65 65 65 64 60 60 60 57 57 55 53 53

GFSSGP_sfc_temp_066.txt.gz
Temp
76 86 90 85 72 73 69 69 74 72 73 79 79 76 76 78 73 69 80 80 80 83 86 81 73 74 75 75 75 75 75 76 76 75 75 75 75 75 75 75 76 76 77 77 77 76 76 74 73
87 84 86 84 69 66 70 73 70 75 78 79 77 76 75 74 80 80 78 80 81 83 84 81 73 74 75 75 75 75 76 76 75 75 75 75 75 75 75 75 75 76 77 77 77 76 75 73 72
85 85 81 76 72 66 69 73 75 77 79 78 76 80 78 77 77 78 80 79 78 84 86 82 73 73 74 74 74 75 75 75 75 75 75 75 75 75 75 75 75 76 76 76 76 75 73 71 71
85 84 81 70 67 71 71 76 77 77 78 79 79 75 79 78 77 80 81 79 70 83 86 75 71 72 74 74 74 74 74 74 74 74 75 75 75 75 75 74 75 75 76 76 75 73 71 70 70
87 83 71 68 68 71 75 77 76 74 75 75 76 76 76 77 78 78 78 78 70 78 79 80 71 72 70 75 74 74 73 73 73 74 74 75 75 75 74 74 74 75 75 74 73 71 70 70 69
78 80 68 66 69 72 76 78 77 76 77 77 74 76 77 77 77 76 77 77 74 72 77 80 73 70 70 73 73 72 72 73 73 73 74 74 74 73 74 74 74 74 73 72 71 70 70 69 69
75 73 69 69 68 69 74 78 75 77 78 78 78 71 78 76 76 76 77 78 75 70 73 76 78 75 70 73 70 70 71 72 72 73 73 73 72 72 72 72 72 72 71 71 70 69 69 69 68
80 76 68 70 68 69 76 76 79 78 77 75 78 74 74 75 76 77 76 76 74 72 69 74 75 74 78 78 68 70 71 70 71 72 71 70 71 71 71 71 71 71 71 70 69 69 69 68 67
80 69 67 69 69 71 78 73 80 80 77 76 76 75 77 75 76 75 74 71 69 71 74 74 74 74 73 81 75 71 72 71 70 71 69 69 76 76 75 73 70 70 69 69 69 68 68 67 67
74 69 71 76 77 73 77 77 77 73 77 76 75 76 74 73 73 72 71 67 67 66 67 71 70 72 71 70 74 74 70 69 69 70 71 74 73 76 78 73 69 68 68 68 68 67 67 70 77
74 68 77 75 78 78 77 77 77 75 74 78 75 75 73 71 71 69 69 66 66 68 68 69 68 66 66 69 64 66 65 66 67 69 70 72 72 78 77 76 75 76 71 77 74 73 80 79 79
68 74 77 78 78 76 74 78 75 76 76 76 77 75 72 68 69 70 68 64 66 66 65 64 65 62 62 62 63 63 62 63 64 67 69 70 72 74 74 78 79 78 79 77 77 79 79 78 78
68 74 77 78 78 76 77 74 75 75 80 77 74 72 70 68 69 70 70 68 70 67 63 65 61 61 61 61 62 62 63 63 64 65 68 74 73 72 73 77 80 80 81 79 78 79 78 77 77
75 74 76 77 77 77 71 75 70 78 80 74 72 72 69 67 68 69 68 64 66 65 64 62 62 61 61 60 62 62 62 63 63 64 68 71 73 71 74 75 77 78 80 80 80 78 78 78 78
74 68 73 74 76 75 75 70 70 80 75 72 72 71 70 69 70 68 68 64 64 64 62 62 61 61 60 60 61 61 62 64 63 64 70 74 74 73 74 75 75 78 80 79 79 78 79 78 78
68 69 63 75 75 74 71 63 77 76 74 71 72 70 69 70 70 71 65 64 62 62 59 61 62 62 61 61 61 64 63 63 64 64 70 73 73 73 72 73 77 78 77 77 77 77 77 77 77
65 60 63 67 74 71 69 67 73 73 73 73 71 71 70 71 70 70 66 64 62 65 62 60 61 59 61 61 64 64 64 64 64 64 73 73 72 72 71 72 74 74 76 76 76 76 75 74 75
59 60 65 64 69 69 69 68 76 77 73 72 75 73 71 70 71 69 66 64 63 60 62 62 62 59 63 64 62 62 63 63 64 63 72 75 76 74 75 75 72 73 74 75 75 73 74 74 74
66 64 63 68 70 65 67 69 74 78 74 72 74 74 71 70 72 70 67 63 62 59 58 61 59 60 64 63 60 60 60 63 63 64 66 71 72 71 73 73 71 72 73 74 73 72 70 70 72
63 61 62 68 68 66 68 68 75 78 76 77 76 75 74 70 69 67 66 65 63 60 61 59 61 64 64 64 64 69 65 66 65 66 65 68 71 68 68 71 71 73 73 71 71 71 69 71 70
61 60 62 62 64 68 65 64 70 77 75 75 75 78 77 72 69 66 66 65 62 60 60 61 60 62 66 65 64 64 63 63 64 64 65 67 68 66 67 69 72 72 73 71 70 70 71 68 69
56 66 64 62 59 56 65 54 67 72 73 75 77 74 75 74 72 71 68 66 66 62 62 64 62 60 62 63 61 64 61 60 70 69 66 66 68 66 68 70 72 69 68 68 69 71 70 67 68
59 67 62 62 59 59 61 56 65 69 68 73 78 78 76 75 73 71 70 70 70 68 64 66 65 62 61 61 61 60 61 64 66 66 68 64 65 67 68 68 69 67 68 69 68 67 69 71 69
66 62 61 61 60 48 58 58 61 68 68 72 77 78 77 77 74 74 73 72 71 69 68 67 67 65 61 60 61 61 64 65 66 62 63 63 62 65 64 65 66 67 67 69 68 71 69 71 70
63 58 48 46 46 45 61 56 61 71 73 75 75 78 79 78 75 74 72 71 71 68 67 65 67 66 64 60 62 63 63 62 61 62 62 62 62 62 63 68 69 68 69 69 67 69 72 71 70
58 58 51 40 43 50 59 51 62 73 77 77 79 79 78 77 75 74 74 73 71 69 69 67 68 69 67 65 65 68 66 65 67 64 64 62 64 67 65 66 68 68 71 73 73 72 73 72 71
57 53 64 52 51 50 56 60 67 73 75 76 77 77 77 77 77 75 75 73 72 69 69 68 69 71 69 68 66 65 68 68 71 70 69 68 66 69 68 69 66 67 72 73 73 72 72 72 70
62 66 51 53 41 40 51 54 56 65 69 73 75 77 77 76 77 76 76 73 73 72 70 70 70 71 71 70 69 69 70 70 71 72 71 72 73 73 73 72 72 73 73 73 72 73 73 71 71
58 56 57 59 55 46 43 53 65 68 71 71 75 77 77 77 76 76 76 76 74 73 71 70 70 71 70 70 70 69 70 71 71 71 71 72 72 73 72 72 72 72 72 73 72 71 71 70 67
65 59 59 50 48 52 51 54 68 69 73 72 74 77 78 78 79 79 77 76 74 73 72 71 69 70 70 71 71 69 69 70 69 69 71 71 71 72 73 73 72 73 73 73 72 71 69 66 60

GFSSGP_sfc_temp_069.txt.gz
Temp
77 89 94 89 74 76 72 75 81 78 78 85 84 81 80 82 78 70 87 86 85 90 88 81 74 75 75 75 75 75 75 76 75 75 75 75 75 76 76 75 76 77 77 77 77 76 76 75 73
93 93 91 84 71 70 75 80 75 80 82 84 84 83 81 78 87 89 88 85 85 88 86 86 73 75 75 75 75 75 76 76 75 75 75 75 76 75 75 75 75 76 77 77 77 76 75 73 72
88 93 82 78 74 70 73 79 80 82 84 83 81 86 83 80 85 86 87 85 84 85 86 82 73 74 75 74 75 75 75 75 75 75 75 75 75 75 75 75 75 76 77 77 76 75 73 71 71
89 88 84 72 71 79 76 81 81 81 84 84 84 79 86 86 83 87 87 84 82 85 85 73 72 73 74 74 74 75 74 74 74 74 75 75 75 75 75 74 75 76 76 76 75 73 71 70 70
90 86 74 72 73 80 81 82 82 79 80 81 83 79 82 85 85 84 85 84 81 82 82 77 71 72 72 73 75 74 74 73 74 74 74 75 75 75 74 74 74 75 75 74 73 71 71 70 70
80 83 71 70 76 80 81 84 82 80 82 83 80 81 82 85 84 83 82 82 79 79 83 83 74 71 72 71 70 65 72 73 73 73 74 74 74 73 73 73 73 73 72 72 71 70 70 70 70
77 77 71 74 75 77 79 84 79 81 82 82 86 75 84 84 83 82 83 83 79 78 77 78 79 76 69 67 65 64 66 72 72 72 73 73 72 72 73 73 72 72 71 70 70 70 69 69 69
83 79 72 75 73 74 83 81 85 82 80 85 87 77 78 81 82 81 81 81 79 77 74 78 79 78 76 73 66 67 68 70 71 72 71 71 71 72 71 71 71 71 70 70 70 69 69 68 68
87 71 69 73 75 77 84 77 85 88 83 85 84 82 84 82 82 80 79 78 76 75 75 75 77 76 78 80 77 70 68 71 71 71 69 69 76 76 76 72 70 70 69 69 69 68 68 67 67
77 71 72 83 83 80 83 82 83 80 81 82 84 86 84 82 81 79 78 75 72 73 74 73 73 75 77 75 77 75 70 70 71 73 71 73 73 76 76 71 68 68 68 68 68 67 66 70 76
78 70 80 83 83 84 82 82 85 80 77 82 79 82 83 80 79 76 76 74 75 73 70 71 72 74 73 74 73 70 70 68 68 68 71 70 70 71 74 72 73 72 71 74 72 71 76 78 78
73 79 80 82 84 81 79 83 80 81 80 86 84 83 82 77 77 78 75 74 73 69 73 73 72 70 67 70 68 67 69 66 65 65 66 65 65 68 73 73 75 74 77 74 75 76 80 79 79
75 78 81 83 83 82 82 79 78 80 86 89 84 79 79 78 77 78 77 72 72 71 72 68 64 67 66 64 65 67 64 65 64 64 64 64 64 70 74 73 75 77 79 77 77 80 79 79 79
80 79 79 81 82 81 78 78 80 82 87 86 82 80 79 77 77 77 75 71 69 71 70 66 63 62 63 66 62 63 63 63 63 64 64 65 65 70 74 73 78 79 81 80 80 80 79 79 79
79 72 76 78 80 79 81 73 75 84 86 82 82 81 80 79 78 75 77 70 68 70 68 65 61 62 61 61 62 61 62 62 61 62 64 66 69 72 74 76 76 80 78 80 80 79 80 79 80
71 72 64 77 79 80 78 65 79 86 83 80 81 81 79 79 78 79 76 73 69 67 65 65 63 62 61 61 61 61 62 62 62 62 64 66 71 75 75 76 77 75 79 80 79 78 78 78 78
68 62 65 70 80 78 74 69 80 82 81 80 81 81 79 79 79 79 76 75 66 64 64 63 63 62 61 61 62 62 62 62 62 62 66 68 73 75 76 75 76 77 79 79 78 77 78 76 77
61 63 67 67 76 75 73 71 78 82 80 79 81 81 80 78 79 79 75 74 67 66 64 62 62 61 61 62 62 61 61 61 62 62 66 71 73 72 73 74 73 75 74 75 76 75 77 77 76
69 68 67 72 78 72 71 72 77 82 82 79 80 81 80 79 82 79 75 73 66 61 61 61 59 59 61 61 61 59 59 60 60 62 66 71 75 74 73 73 71 70 71 71 73 74 72 73 75
67 65 65 72 76 70 70 71 77 81 82 82 81 81 82 79 79 76 74 71 66 62 61 62 62 62 61 66 66 65 62 63 64 64 64 74 76 76 75 73 72 72 72 72 72 71 69 71 72
65 63 64 65 72 72 69 67 72 79 82 83 83 84 85 81 77 76 73 71 68 64 64 62 63 64 64 66 67 65 64 63 62 63 62 67 72 73 73 74 71 70 74 72 71 71 71 65 70
59 69 68 66 64 57 72 57 70 76 77 79 81 81 83 82 80 78 75 73 70 65 64 65 64 65 66 67 68 65 66 62 63 64 65 66 68 70 72 72 69 69 74 73 72 73 72 66 62
62 70 68 66 63 62 62 60 67 75 73 77 80 82 82 83 80 78 76 75 75 68 64 64 63 64 66 67 68 64 62 70 65 65 64 64 66 68 70 66 65 65 70 70 70 69 68 66 64
70 66 66 65 62 50 59 60 62 70 73 75 80 83 83 83 82 80 79 78 76 73 67 65 62 62 64 66 65 64 64 67 63 63 66 63 64 69 69 65 64 66 66 68 67 65 66 66 68
65 60 49 46 47 46 64 61 64 74 77 78 78 82 83 84 82 80 78 77 76 74 71 68 66 62 62 62 64 68 66 63 64 65 66 64 62 64 69 65 64 65 67 68 68 63 67 68 68
61 60 51 41 43 51 65 55 65 77 80 81 81 83 84 83 81 80 80 78 77 74 73 72 70 66 64 61 62 67 68 68 68 70 70 66 65 63 67 67 66 70 69 70 70 70 68 70 65
59 55 65 55 55 52 59 64 71 75 76 79 80 81 82 83 82 81 81 79 78 76 73 72 72 73 68 64 63 64 68 67 68 68 68 69 70 67 66 67 69 71 71 71 72 72 70 67 66
60 67 52 56 41 40 53 58 60 67 71 76 77 78 81 83 83 82 82 79 79 78 75 73 73 74 74 69 66 65 67 69 70 70 69 69 69 69 69 68 69 69 68 70 70 71 72 70 70
54 56 59 59 56 45 44 54 71 70 72 74 77 79 80 80 82 82 82 82 80 79 77 74 74 75 75 74 72 68 69 69 70 71 72 72 71 71 70 70 70 70 70 71 71 71 72 71 70
61 59 59 50 49 55 52 53 73 74 75 76 77 80 81 82 83 83 83 82 80 79 77 76 75 74 75 76 74 72 71 71 71 71 73 74 73 74 73 74 73 73 73 73 72 71 73 71 70

GFSSGP_sfc_temp_072.txt.gz
Temp
76 82 87 84 68 70 66 73 82 77 78 84 85 81 78 80 76 65 86 86 86 84 80 78 74 75 75 75 75 75 75 75 75 75 75 75 75 75 75 76 76 76 77 77 77 76 76 75 74
86 90 87 79 64 61 68 81 76 80 84 85 84 82 79 76 85 84 83 84 86 87 80 80 74 74 75 74 74 75 75 75 75 75 75 75 75 75 75 75 75 76 76 77 77 76 75 74 73
81 89 77 71 67 62 68 80 80 83 85 83 81 87 83 80 83 85 86 85 84 85 87 81 74 74 74 74 74 75 75 75 75 75 75 75 75 75 75 75 75 76 76 76 76 75 73 72 72
84 84 80 66 64 73 76 81 82 81 85 85 83 78 87 87 86 88 87 86 83 84 86 72 72 73 74 74 74 75 74 74 74 75 75 75 75 75 75 74 75 76 76 75 75 73 72 71 71
84 81 68 66 69 76 83 83 83 79 81 81 83 77 80 83 86 86 85 84 81 82 82 76 71 72 73 74 74 74 74 73 74 74 74 75 75 75 74 74 74 75 75 74 73 72 71 71 71
75 77 63 63 70 80 84 85 83 81 82 83 81 79 79 85 84 82 83 82 81 80 79 79 73 72 71 73 71 68 66 68 73 73 74 74 74 73 73 73 73 73 72 72 71 70 70 70 70
72 71 65 68 70 75 82 86 80 79 80 81 84 75 82 82 83 82 83 82 79 78 77 76 74 70 70 68 67 67 65 65 69 72 73 72 72 72 72 72 72 71 71 70 70 69 70 70 69
78 74 66 69 69 71 84 83 84 81 79 88 87 75 74 79 82 81 81 80 79 76 75 74 75 72 68 66 66 65 65 67 69 71 71 70 71 71 71 71 71 70 70 70 69 69 69 68 68
84 67 63 67 70 75 86 79 84 87 83 84 86 83 85 83 83 79 77 75 74 74 75 73 72 73 72 66 66 67 66 66 65 71 70 69 72 71 70 70 69 69 69 68 68 68 67 67 68
74 67 67 76 79 79 83 83 82 81 80 80 83 87 84 83 81 78 77 74 74 72 72 71 70 71 71 70 66 65 66 64 66 70 70 72 71 70 71 69 68 68 67 67 67 67 67 69 66
74 67 75 78 82 83 80 80 85 80 76 80 79 81 84 81 80 77 77 75 74 74 71 69 70 69 69 68 67 67 65 63 64 69 70 71 70 68 67 67 67 66 66 66 66 66 68 67 67
69 76 77 78 82 81 79 82 79 80 79 84 86 85 83 80 78 78 75 76 75 72 71 70 69 69 69 68 67 67 66 66 66 67 68 67 65 66 65 68 66 66 67 66 66 66 67 67 69
72 75 79 81 81 81 82 78 77 78 84 87 88 82 79 79 79 80 78 73 73 71 69 68 68 67 65 66 66 67 66 65 64 64 64 65 65 64 66 68 68 68 68 68 66 67 70 68 69
76 77 77 80 79 80 77 77 79 79 85 84 85 82 80 79 78 79 76 71 70 70 68 67 65 65 65 63 64 65 65 63 63 63 63 64 64 64 64 68 68 69 69 70 69 70 69 68 68
76 70 74 76 78 76 79 72 73 82 84 82 83 83 81 80 80 76 77 71 72 69 67 63 63 63 62 63 63 64 63 63 62 62 63 63 64 63 64 66 68 69 71 70 69 70 68 67 70
69 69 61 72 76 78 76 63 76 84 82 81 81 82 81 80 80 78 77 72 71 70 66 63 63 61 61 61 62 62 62 62 62 62 62 63 64 64 64 67 70 71 71 71 70 68 67 66 66
64 56 60 65 77 76 74 67 77 83 81 79 80 81 80 79 79 79 76 74 70 69 65 63 62 62 61 61 61 61 62 61 61 62 63 63 64 66 67 65 67 69 71 68 70 66 66 65 65
53 57 61 63 73 75 72 70 76 80 80 78 79 81 80 78 79 79 76 74 68 67 63 63 63 63 61 61 61 61 60 60 60 61 62 63 64 67 68 66 67 67 67 67 67 66 67 67 65
62 61 61 69 75 72 70 70 74 79 79 77 78 79 79 78 81 79 74 71 67 64 61 62 61 60 61 60 59 59 58 59 59 60 63 63 65 69 68 66 66 67 66 66 67 66 66 65 65
60 57 59 68 75 72 70 69 74 78 79 80 79 79 80 79 79 76 72 70 65 63 62 61 61 60 61 62 61 61 61 61 61 61 63 65 66 68 67 66 66 66 66 65 65 65 62 63 64
59 57 59 61 69 72 68 64 68 76 80 82 83 83 83 79 77 74 71 68 64 63 62 60 61 62 63 64 63 62 62 59 59 61 61 63 68 68 68 66 66 65 65 65 65 64 63 59 62
53 65 64 63 61 54 69 52 66 72 74 78 80 79 80 81 79 77 73 69 66 64 65 63 62 62 63 65 63 61 59 57 60 62 63 62 65 68 69 68 67 66 66 65 63 65 64 62 59
56 63 61 63 60 59 60 56 62 72 70 75 78 79 79 81 78 76 74 72 69 66 65 64 64 63 64 64 64 62 61 62 63 63 63 61 62 65 67 66 65 65 65 64 63 63 63 63 59
63 58 55 60 59 47 57 56 57 65 71 76 80 81 80 80 78 78 76 74 71 67 65 64 64 63 64 64 64 64 63 62 61 61 61 61 62 63 64 65 65 63 64 64 63 63 63 60 60
56 47 38 40 43 43 59 56 59 71 75 76 77 80 81 80 78 77 74 74 72 66 63 63 62 62 63 63 63 64 64 63 62 61 62 61 61 62 63 64 63 64 64 63 63 61 61 61 59
51 49 43 34 38 46 60 52 62 76 80 80 81 82 82 80 78 77 76 74 72 68 65 64 63 62 63 63 63 64 65 64 65 63 64 64 63 63 64 64 64 64 64 63 62 61 61 60 60
48 45 56 49 51 46 55 62 70 75 75 77 78 79 79 81 79 78 77 75 73 71 68 66 64 63 62 61 62 64 65 65 64 64 65 66 65 65 64 64 64 64 64 64 63 62 62 63 62
50 55 44 50 36 33 50 53 57 66 70 74 75 76 79 81 80 79 78 75 75 73 70 69 68 67 64 62 62 63 65 65 65 65 65 65 66 65 64 64 64 64 64 65 65 64 65 63 63
48 49 51 54 51 41 40 49 59 66 72 72 74 76 77 78 79 78 79 77 76 75 72 70 69 70 68 64 63 62 63 65 65 66 66 66 65 66 65 64 64 64 64 65 65 65 65 63 64
55 50 52 44 42 50 47 50 68 72 74 75 75 78 78 80 80 80 79 77 76 75 73 70 69 69 70 68 65 63 63 64 64 65 65 65 65 66 66 66 65 65 65 65 64 63 65 64 63

GFSSGP_sfc_temp_075.txt.gz
Temp
66 67 66 67 53 49 46 56 64 65 65 69 76 73 68 69 68 57 76 79 77 74 74 75 73 74 75 75 74 75 75 75 75 75 75 75 75 75 75 75 76 77 77 77 77 77 77 75 74
69 75 68 61 48 41 49 63 65 69 74 77 78 75 72 68 76 74 73 79 78 75 74 73 73 74 74 74 74 75 75 75 75 75 75 75 75 75 75 75 75 76 76 77 77 77 76 75 74
72 77 59 53 47 46 48 62 65 72 77 76 72 76 75 71 77 76 77 78 79 75 76 74 73 73 74 74 74 74 75 74 74 75 75 75 75 75 75 74 75 76 77 77 77 76 75 73 73
69 65 62 50 47 57 62 69 71 71 76 77 75 69 76 79 78 78 80 78 76 78 77 71 72 72 73 74 74 74 74 73 74 74 75 75 75 75 75 74 75 75 76 76 75 74 73 71 71
66 59 49 45 51 63 70 73 73 72 73 76 76 70 69 76 79 78 77 77 74 74 71 73 71 72 73 74 74 74 73 73 73 74 75 75 75 75 74 74 74 75 75 74 74 73 72 71 71
57 58 44 42 53 66 71 75 75 74 75 75 70 68 68 76 76 74 76 74 73 73 71 71 72 72 72 73 74 72 67 66 65 66 73 74 74 73 73 73 73 73 72 72 71 71 71 70 70
53 50 46 50 57 63 71 74 72 72 67 69 77 68 68 72 73 74 74 72 72 72 70 69 69 71 69 68 68 66 67 66 65 66 71 72 72 72 73 73 72 71 71 71 70 70 70 70 69
61 53 49 55 56 58 73 74 75 73 72 80 80 67 62 70 74 74 72 71 69 70 69 70 69 67 66 65 66 66 66 66 66 65 67 69 70 71 71 71 70 70 70 70 70 69 69 69 69
64 55 51 54 58 64 75 73 73 77 72 76 78 76 75 75 74 70 67 67 67 67 68 68 68 65 64 64 65 67 68 67 66 66 64 67 70 69 69 69 69 69 69 69 69 68 68 68 68
60 53 55 64 67 67 72 66 72 72 71 72 72 73 75 75 72 68 66 64 64 65 66 66 66 66 65 66 64 63 64 64 65 65 63 68 68 68 68 68 68 68 68 68 68 67 67 67 64
60 56 64 67 71 73 68 68 73 68 64 71 70 69 72 72 71 69 69 66 66 65 65 65 66 64 66 65 63 63 62 62 64 63 63 67 67 66 66 66 66 66 66 66 66 66 64 65 64
57 65 67 69 73 72 69 70 70 69 70 75 75 75 72 70 69 69 68 66 65 64 64 64 65 65 64 65 63 64 62 62 62 64 67 66 65 64 63 64 63 63 63 62 61 60 64 65 66
62 65 69 72 73 73 73 69 68 70 74 75 78 75 72 69 70 70 66 65 64 63 62 60 61 63 64 64 64 65 64 63 63 64 66 66 65 63 63 64 63 60 63 63 62 61 64 65 65
67 67 68 71 71 72 70 70 65 71 74 75 77 70 71 71 70 69 64 62 63 62 60 60 59 60 64 62 64 65 65 65 64 64 65 66 64 63 62 65 63 61 62 64 64 64 63 63 64
67 61 65 67 69 67 72 63 66 71 74 73 72 70 71 70 72 68 65 62 62 61 59 59 59 59 62 61 63 64 64 64 63 63 63 65 65 64 63 64 66 65 65 65 65 64 65 62 65
59 60 52 63 67 70 64 57 67 72 69 69 70 70 71 70 71 69 65 63 62 60 59 59 62 59 60 62 63 63 63 64 63 63 63 64 65 65 64 65 66 66 66 66 65 65 65 62 62
52 46 50 58 69 68 65 60 70 72 73 69 66 68 68 68 67 68 65 63 61 62 60 57 58 60 60 60 62 63 62 62 63 62 62 63 65 65 66 64 64 66 67 64 67 64 64 62 61
45 48 50 54 64 66 62 62 69 71 70 69 67 67 66 68 68 68 65 64 61 61 61 59 59 60 60 60 61 61 60 61 61 61 62 63 65 65 66 64 64 64 64 61 67 65 62 64 64
54 53 51 59 67 65 63 64 66 69 67 64 64 67 65 68 69 68 63 62 59 60 60 60 59 59 60 59 59 59 58 59 60 61 62 63 64 65 65 65 62 62 62 62 64 62 62 60 62
54 51 50 58 64 63 62 61 65 66 65 67 68 65 66 66 67 65 60 60 58 60 61 60 59 60 60 61 61 61 59 59 61 62 62 64 64 65 65 65 63 62 61 61 60 62 59 60 61
48 47 53 53 61 63 61 58 59 67 69 71 70 72 70 69 64 64 60 58 57 58 60 60 60 60 61 62 62 61 61 59 58 60 61 63 65 65 66 66 64 63 63 62 61 61 61 59 60
41 53 56 57 54 41 57 44 54 63 66 70 71 68 68 70 67 65 61 57 57 58 61 61 61 61 62 62 61 59 58 56 59 60 62 63 64 64 65 64 62 63 64 63 60 61 61 59 57
46 55 53 52 45 45 47 47 52 60 61 65 69 67 66 70 66 64 62 59 59 59 60 59 61 61 62 62 62 60 58 60 61 61 61 61 62 64 65 64 62 60 60 60 60 60 60 59 57
53 48 51 48 45 34 45 47 48 55 60 66 72 70 68 69 68 66 65 62 59 60 62 61 60 61 62 62 61 60 60 59 59 60 60 60 61 61 64 62 61 60 59 60 61 60 60 59 59
49 43 33 33 32 32 52 48 52 60 67 69 66 66 67 69 68 66 63 61 59 59 61 61 61 59 62 61 61 61 61 59 60 60 60 59 59 58 59 59 60 60 61 60 61 61 60 59 58
47 40 36 29 29 38 54 44 53 66 71 71 72 68 69 68 69 66 65 63 60 59 60 62 61 61 62 62 62 63 63 61 60 60 60 61 61 61 62 62 62 61 60 63 60 59 60 60 58
42 36 47 38 43 34 45 53 62 67 69 68 70 70 64 67 68 67 67 65 61 59 59 59 60 63 62 62 62 62 62 63 62 62 62 61 62 63 62 61 62 62 62 61 60 61 60 61 60
46 51 36 35 29 29 40 45 47 58 61 65 65 64 67 66 69 68 68 66 63 61 60 60 60 60 60 62 62 63 63 63 64 63 62 62 64 63 62 62 62 62 62 62 61 60 60 59 60
41 38 40 40 38 34 32 39 52 57 63 63 63 66 67 65 68 69 69 68 66 64 62 60 60 60 59 60 61 62 63 63 64 63 62 62 63 63 62 63 62 63 62 63 62 62 61 60 61
47 41 41 34 36 41 38 38 59 61 66 65 66 69 68 70 67 69 70 69 66 66 64 62 62 61 61 60 60 60 62 63 63 63 63 62 62 64 62 62 62 62 62 62 61 62 64 61 61

GFSSGP_sfc_temp_078.txt.gz
Temp
64 64 64 64 51 45 41 50 58 61 61 67 72 70 67 66 65 56 73 74 73 72 73 73 73 74 74 74 74 74 75 75 75 75 75 75 75 75 75 76 76 76 77 78 78 77 76 75 74
66 70 65 56 45 37 42 55 59 64 70 72 73 72 68 64 72 71 71 74 74 73 73 73 73 73 74 74 74 74 75 75 75 75 75 75 75 75 75 75 75 76 77 77 78 77 76 74 73
70 73 57 50 41 39 44 56 63 70 72 73 71 72 71 67 72 72 75 75 73 72 73 73 72 73 74 74 74 74 74 74 74 74 75 75 75 75 75 74 74 76 77 78 78 76 74 73 72
66 62 57 47 44 51 53 59 67 68 72 72 71 67 72 76 75 76 76 76 72 72 73 71 71 72 73 74 74 74 74 73 73 74 75 75 75 75 74 74 75 76 76 76 76 75 73 72 72
61 54 45 41 46 55 62 64 68 69 71 72 72 67 66 72 76 76 74 75 71 70 70 71 70 72 73 74 74 74 73 73 72 73 74 75 75 74 74 74 74 75 75 75 74 73 71 71 70
55 52 40 40 47 60 63 67 69 71 72 72 67 65 65 73 73 72 72 71 70 68 69 70 72 72 72 73 73 70 68 69 68 68 67 71 74 73 73 73 73 73 73 73 72 71 71 70 70
50 45 41 42 49 56 64 68 69 68 67 69 73 63 64 69 71 71 71 70 69 69 68 68 69 71 71 71 70 67 67 66 66 65 67 66 69 72 73 73 72 72 72 71 71 70 70 70 70
55 49 41 45 51 50 66 70 71 68 69 76 75 61 60 68 70 70 68 67 67 67 68 67 69 67 66 66 68 67 67 68 67 67 65 67 68 69 71 71 71 71 71 70 70 70 70 69 69
58 44 40 46 52 57 68 65 72 74 68 72 74 69 72 72 70 67 64 63 64 66 66 67 66 66 65 64 65 67 68 67 67 67 66 65 67 69 69 70 70 70 70 69 69 69 68 68 69
52 43 48 57 58 60 66 60 67 69 69 69 66 68 71 71 69 65 63 62 62 63 64 65 64 64 64 65 64 63 64 65 65 64 63 67 66 68 69 69 68 68 68 68 68 68 67 67 67
52 52 57 60 63 65 64 62 71 66 63 67 66 65 68 69 67 65 63 62 63 63 63 64 63 63 63 63 62 61 61 63 63 63 63 66 66 66 67 66 67 66 67 66 64 65 63 64 64
50 59 60 63 66 65 64 69 67 65 69 73 70 70 68 67 65 65 63 62 61 62 62 63 63 63 63 63 62 62 61 63 63 63 63 62 65 65 65 66 65 64 65 62 61 60 61 62 64
55 59 64 66 66 66 68 65 66 68 72 72 73 70 67 67 67 66 65 62 61 60 60 60 61 62 64 63 63 63 61 61 62 63 64 63 65 64 64 65 61 60 59 60 61 61 63 62 63
60 61 62 65 65 67 65 65 64 70 71 70 70 67 69 67 66 62 62 59 60 60 58 58 59 60 63 64 63 63 61 62 62 64 63 65 65 63 61 61 61 59 59 60 59 58 60 61 62
61 54 60 62 62 61 64 59 62 68 70 69 69 67 67 67 66 65 63 61 60 60 58 58 58 59 61 63 64 64 63 63 63 65 65 64 63 62 62 62 62 62 57 57 58 59 60 60 63
54 52 46 58 62 63 60 52 65 68 65 65 66 66 66 66 68 65 63 61 60 58 57 58 60 58 61 61 63 64 64 63 64 64 65 64 64 63 62 63 63 63 62 61 58 59 58 60 60
47 43 46 51 62 61 61 56 65 71 67 65 66 64 65 66 63 63 63 60 59 58 57 56 57 59 60 61 62 63 64 63 64 65 64 64 65 64 64 64 64 64 64 62 62 59 60 59 58
40 42 43 46 55 62 59 58 65 69 67 67 65 62 63 65 66 63 61 60 59 58 57 57 58 60 60 61 61 62 62 62 63 63 63 64 65 65 65 63 62 63 63 60 61 61 60 61 59
49 46 45 50 59 58 54 56 61 68 66 66 65 61 62 65 65 62 61 59 58 57 57 57 57 59 59 60 59 59 59 60 61 62 63 64 65 65 65 65 62 63 62 62 62 61 61 56 58
48 45 45 52 59 59 55 54 60 65 64 68 66 61 62 60 61 60 58 59 59 58 57 58 58 59 60 60 60 60 60 60 61 61 62 64 64 65 65 65 63 63 61 59 58 60 57 57 60
45 45 45 45 53 57 54 51 53 62 65 66 65 66 64 62 60 57 57 57 58 58 57 59 59 59 59 60 61 60 59 58 58 59 60 61 63 65 65 64 64 63 63 60 57 58 62 57 57
39 51 50 48 46 38 49 34 49 57 60 64 64 62 61 64 63 59 57 56 57 57 58 59 60 60 60 60 60 59 58 56 58 60 61 61 62 63 63 63 63 62 63 60 60 60 58 57 58
43 52 49 47 42 40 45 37 47 56 56 61 63 62 61 65 62 58 57 56 57 57 57 60 60 60 61 61 59 60 58 60 59 60 59 60 61 61 63 62 62 62 62 60 60 60 58 58 56
54 47 47 47 41 31 43 41 44 51 57 63 65 65 63 64 63 61 59 58 55 56 57 60 60 60 61 61 60 59 59 59 58 58 58 59 61 61 61 61 62 62 62 61 61 61 60 58 58
46 41 32 29 29 29 49 44 47 58 62 63 66 69 64 64 62 58 55 55 55 55 56 60 60 59 61 60 60 60 58 59 59 59 59 59 60 59 61 61 60 61 61 62 62 61 58 57 56
40 40 32 26 27 34 49 39 49 63 68 68 69 61 65 63 62 59 58 57 56 56 57 58 59 59 60 60 60 61 61 60 59 60 59 60 61 61 62 62 61 61 60 60 60 59 58 58 58
39 36 45 35 37 32 39 48 60 65 64 65 64 61 62 62 62 61 59 58 57 57 57 58 60 61 61 60 60 60 61 61 58 60 60 59 60 62 60 61 62 61 61 62 59 59 58 58 58
43 46 34 35 28 27 38 43 46 54 56 62 60 59 62 64 63 62 60 59 59 59 59 60 62 62 62 61 61 61 62 62 60 59 58 60 60 61 61 60 59 60 61 61 61 60 59 59 59
39 38 39 40 36 31 29 37 54 51 54 58 59 61 61 63 63 63 62 60 60 59 58 58 59 61 62 62 62 62 62 62 62 60 59 60 60 60 60 61 60 61 61 61 60 61 61 60 60
45 38 41 33 32 38 34 36 53 52 55 61 63 63 60 65 64 64 63 61 59 58 57 57 58 59 59 60 60 61 62 62 61 62 61 61 60 61 61 61 61 61 62 62 61 61 61 58 59

GFSSGP_sfc_temp_081.txt.gz
Temp
63 62 63 62 50 43 38 47 53 57 59 65 68 66 65 64 64 56 70 72 72 70 71 72 72 73 74 74 74 74 75 75 75 75 75 75 75 75 75 75 76 77 77 77 77 77 76 76 74
63 67 62 53 43 35 41 50 55 60 67 69 67 66 64 63 69 68 69 72 72 71 71 72 72 73 74 74 74 74 75 75 75 75 75 75 75 75 75 75 75 76 77 77 77 77 76 74 73
67 68 56 48 39 37 42 53 59 65 68 65 66 67 68 66 71 69 73 72 71 71 73 72 72 72 73 73 74 74 74 74 74 74 75 75 75 75 75 74 75 75 77 77 77 76 74 72 72
64 60 54 44 41 45 49 57 59 64 69 69 66 63 68 73 71 73 74 73 70 70 72 71 71 72 73 73 74 74 74 73 73 74 75 75 75 75 75 74 75 76 76 77 77 74 73 71 71
58 52 42 38 43 48 56 60 63 64 65 69 68 64 64 71 73 73 72 72 69 68 69 71 70 71 73 74 74 73 73 72 73 73 74 74 74 75 74 74 74 75 76 76 74 73 72 71 70
52 49 37 36 43 53 57 59 64 65 68 69 64 62 63 70 70 70 71 69 69 68 68 71 71 71 72 73 72 71 69 70 70 69 70 73 73 72 73 73 74 74 74 73 72 72 71 71 70
49 43 38 39 44 51 57 64 62 64 62 65 68 61 63 66 69 69 69 68 68 67 67 68 71 72 71 70 70 69 68 67 67 67 68 68 69 69 71 72 72 73 72 72 71 71 70 70 69
52 47 38 43 47 49 60 63 63 63 65 73 69 59 59 67 69 68 67 66 66 66 66 66 68 70 71 69 67 68 67 67 67 66 65 67 68 68 69 71 72 71 71 70 70 70 70 69 68
53 41 36 44 49 55 62 61 64 67 65 69 69 66 69 71 68 64 63 62 63 64 65 65 66 66 67 67 67 67 68 68 68 67 66 65 65 67 67 70 69 70 69 70 70 69 69 68 67
50 40 44 52 58 56 59 53 62 64 65 65 66 67 66 69 66 64 61 61 62 62 63 64 63 64 63 66 66 66 66 66 65 65 64 65 65 66 66 68 67 68 68 68 68 67 68 67 66
51 49 52 56 60 59 58 56 62 60 60 65 63 66 64 65 65 64 62 61 63 63 62 63 63 63 63 64 65 64 64 63 62 62 64 65 66 66 66 66 66 66 67 67 67 65 66 66 65
48 54 59 57 59 57 58 61 59 60 63 70 69 68 64 64 65 64 61 61 61 61 62 62 62 63 63 63 62 63 63 63 62 61 62 65 64 64 65 66 65 64 63 60 64 63 63 65 65
52 55 58 60 60 59 61 59 59 63 67 71 68 66 64 65 66 65 63 61 60 60 61 60 61 63 63 62 62 61 62 62 63 62 62 65 63 64 65 66 65 63 61 61 59 59 63 63 62
55 56 57 59 59 60 59 61 57 64 68 68 65 64 65 65 65 61 61 59 59 60 59 59 60 60 64 62 62 61 61 63 63 62 62 64 65 65 64 65 62 61 63 62 61 61 61 62 62
57 51 54 56 54 55 60 55 55 64 65 66 65 64 66 66 64 65 65 61 61 60 59 58 58 59 64 63 62 62 61 62 62 62 63 63 65 64 64 63 60 60 61 60 58 58 58 60 64
50 49 42 52 57 58 57 49 61 64 62 61 63 61 64 64 65 67 63 63 60 58 57 57 59 58 61 63 63 63 61 62 62 64 63 63 64 65 63 61 60 61 59 59 60 58 56 60 61
42 39 42 47 58 56 54 52 59 61 63 61 62 63 60 63 63 61 62 60 59 58 56 56 56 56 60 62 63 63 62 63 63 64 63 63 62 63 63 62 60 61 61 60 61 58 58 57 58
36 38 38 40 52 53 50 50 56 60 61 60 61 63 60 59 64 65 59 58 57 57 56 57 57 59 60 61 62 62 63 63 63 64 63 62 61 62 63 62 59 61 61 58 59 61 57 59 59
44 43 41 45 52 51 51 51 56 60 58 57 63 63 61 60 62 59 58 58 56 55 55 57 58 59 60 60 59 60 60 61 63 63 63 62 62 63 63 62 59 60 60 60 62 59 58 55 58
44 40 40 47 53 52 47 48 55 59 60 61 60 63 61 56 55 57 58 59 58 56 55 56 58 59 60 60 60 60 60 60 62 62 62 63 62 64 64 63 62 61 60 59 59 58 55 54 56
43 40 41 42 48 51 48 47 52 59 59 61 63 65 63 59 56 55 58 59 59 58 57 58 57 58 59 60 60 59 59 59 59 60 60 61 62 63 64 64 64 62 63 60 60 59 60 55 54
37 47 47 45 41 34 46 33 46 52 55 59 63 59 57 60 60 57 57 58 58 58 59 60 56 59 60 61 59 59 58 57 58 59 60 60 62 62 63 64 62 63 63 61 59 61 62 57 56
40 47 46 44 38 38 39 36 40 51 51 56 61 62 57 61 60 57 56 59 60 59 58 59 57 58 61 60 60 59 57 59 58 59 58 59 59 60 61 61 61 61 62 61 60 58 57 56 55
48 45 43 41 39 30 38 38 37 45 52 60 64 63 61 60 61 59 57 60 58 58 58 56 56 59 59 60 60 60 58 57 57 57 57 57 58 59 59 60 61 61 61 61 60 60 58 57 57
43 38 26 24 26 27 43 38 43 52 58 61 63 65 60 62 59 56 54 56 56 56 57 56 56 57 59 58 57 60 61 59 56 58 58 57 57 58 59 59 60 61 61 60 60 59 59 58 56
38 37 29 24 24 30 44 35 44 58 64 66 65 65 62 62 60 56 55 55 56 57 57 57 57 58 59 59 59 58 61 61 59 57 59 59 60 60 62 60 61 61 61 61 59 58 58 58 57
40 35 42 34 36 32 35 43 54 55 61 59 59 61 58 61 59 56 56 56 55 56 57 56 57 58 60 60 60 59 58 59 58 59 60 60 60 60 62 61 60 60 60 61 60 59 59 59 59
42 45 34 34 26 27 34 38 39 44 48 54 56 58 58 61 59 57 57 56 56 56 57 56 57 58 59 61 60 59 58 58 59 56 57 56 56 58 57 59 59 60 60 60 60 60 60 59 60
40 37 36 38 35 30 29 35 48 45 50 50 54 56 56 60 59 58 58 57 57 57 56 56 56 57 58 61 61 60 60 60 60 57 55 56 56 57 57 58 59 59 60 61 60 61 60 59 60
42 40 40 32 32 35 33 34 50 48 51 54 54 56 55 60 61 59 58 57 56 56 56 56 57 58 59 60 61 60 61 61 60 58 56 55 56 56 57 58 59 60 59 59 60 59 60 57 58

GFSSGP_sfc_temp_084.txt.gz
Temp
63 61 60 60 50 42 36 45 49 53 58 61 65 63 63 62 62 55 68 70 71 69 71 72 73 74 74 74 74 74 75 76 76 76 75 75 75 75 75 75 76 77 78 78 78 78 78 76 75
61 65 60 52 42 35 39 46 52 57 64 66 64 63 62 63 67 66 68 71 71 70 71 71 73 73 74 74 74 74 75 76 75 75 75 75 75 75 75 75 75 77 77 78 78 78 77 75 73
65 65 55 47 37 37 41 50 55 59 64 64 63 64 64 65 68 68 70 71 70 69 70 71 72 72 74 73 74 74 75 74 75 75 75 75 75 75 75 74 75 76 77 77 78 77 75 73 72
62 58 52 43 39 44 48 52 55 60 65 65 63 61 67 70 69 71 72 70 69 69 70 70 71 72 74 74 74 74 73 73 73 74 75 75 76 75 75 74 75 76 76 77 77 75 73 72 71
56 50 40 34 41 45 51 55 59 60 61 65 64 62 63 70 71 71 69 70 68 69 71 72 70 71 73 74 74 73 72 72 73 74 74 74 75 74 74 73 74 74 75 75 75 73 72 71 70
51 48 36 33 41 50 54 57 59 61 62 65 60 60 64 67 68 68 69 68 68 67 70 71 71 71 72 73 72 72 72 72 72 73 74 74 73 73 73 73 73 73 74 73 72 71 71 70 70
49 42 36 37 41 49 54 60 59 59 57 61 64 59 63 64 68 68 68 67 67 66 67 70 71 71 71 70 70 69 70 70 70 70 70 71 72 72 72 73 73 73 73 72 71 70 70 70 69
49 46 35 39 44 48 57 59 61 59 61 69 66 58 61 64 66 66 66 65 65 65 66 68 70 71 70 70 68 68 68 68 68 68 68 68 68 69 69 71 72 72 71 71 70 70 70 69 68
50 41 34 41 45 52 58 57 59 62 62 62 66 64 68 67 65 63 62 62 62 64 64 66 69 70 70 68 68 68 68 68 67 67 67 65 65 66 67 68 69 71 70 70 70 69 68 68 67
48 38 42 49 53 52 55 50 56 58 58 60 62 66 65 65 64 62 61 61 61 63 63 64 66 68 68 67 67 66 66 66 66 65 65 64 65 65 67 67 67 69 68 69 68 68 67 66 64
48 45 49 52 55 55 55 53 58 55 54 61 61 63 62 62 63 62 62 62 63 63 62 63 64 65 65 66 66 66 66 65 65 64 64 64 64 65 66 66 66 66 67 66 66 66 65 63 63
45 51 55 54 59 55 55 56 57 56 59 66 64 65 63 61 61 63 62 60 61 61 63 63 65 63 64 65 65 65 65 64 64 63 63 63 63 64 64 64 65 66 65 63 63 64 62 61 61
48 51 55 57 57 56 57 55 57 57 62 65 65 64 64 62 63 65 64 60 59 61 61 62 64 64 63 63 63 64 64 64 63 62 64 64 63 64 63 65 64 64 62 61 62 62 63 60 59
52 51 53 55 56 56 56 57 53 57 62 62 62 62 63 62 63 64 59 60 59 60 61 61 62 64 64 63 63 62 63 63 63 61 62 65 64 64 64 64 63 62 63 61 60 62 63 61 61
54 47 50 52 53 53 56 52 52 60 61 60 61 62 62 62 63 62 65 64 63 61 60 59 60 62 63 63 62 62 62 62 62 62 61 65 64 64 64 63 61 61 62 61 59 59 59 60 60
47 45 39 49 52 55 54 47 56 60 59 59 58 59 60 61 63 64 66 63 59 58 59 58 59 61 63 63 62 62 61 61 62 62 61 63 65 65 63 63 61 62 61 61 61 61 59 58 58
39 35 38 45 54 53 50 48 53 58 58 57 57 58 59 59 59 61 64 59 58 58 57 56 56 60 62 63 63 62 61 61 62 62 62 62 64 65 64 63 61 59 60 61 59 57 60 59 58
34 36 32 36 48 48 46 47 53 57 57 57 56 57 57 57 61 66 61 57 57 57 57 58 55 57 61 62 63 63 61 61 62 62 63 63 63 64 64 62 60 61 60 60 60 59 58 59 58
42 39 37 39 48 46 47 48 53 55 53 53 54 56 57 58 63 61 56 57 56 55 57 58 56 56 59 59 60 61 60 61 61 63 63 63 63 63 62 61 58 61 61 60 60 60 57 55 56
41 37 36 42 48 47 44 45 52 53 55 57 56 57 57 56 56 55 55 56 57 56 57 58 59 58 60 58 61 61 60 61 62 63 62 61 60 61 62 60 60 60 59 59 60 60 54 54 58
39 37 37 39 45 46 43 42 47 55 57 59 58 59 59 60 57 55 55 56 57 56 56 57 58 60 60 60 60 59 60 59 60 61 60 60 59 60 62 60 61 60 61 59 61 59 58 57 55
34 45 44 41 38 30 42 29 44 48 51 54 56 56 59 60 59 57 56 56 58 57 58 58 58 60 59 59 59 59 58 57 58 60 61 59 59 60 61 62 61 61 61 61 60 62 60 57 55
39 45 42 41 36 36 36 31 38 47 48 51 54 56 59 60 59 57 56 57 60 59 58 59 57 58 60 59 60 59 58 58 59 59 59 59 59 60 61 61 61 61 61 60 59 57 57 57 56
46 42 41 40 41 27 35 35 33 41 46 52 56 59 62 61 59 58 55 59 60 59 59 58 57 59 60 59 59 59 57 57 58 57 57 58 59 59 59 60 61 60 59 59 59 58 58 56 57
41 35 25 24 28 25 39 34 38 49 54 56 57 59 61 63 57 55 54 56 58 56 57 57 57 58 59 57 59 59 58 57 58 58 57 58 58 58 59 60 59 59 59 59 60 59 58 57 56
36 35 29 22 24 28 39 31 39 50 54 55 56 58 59 58 59 57 55 56 58 57 57 57 57 58 59 58 58 59 60 59 59 59 59 58 59 59 59 59 60 60 59 59 60 60 59 57 57
39 33 40 33 34 30 33 39 48 51 50 52 53 55 55 57 57 58 55 57 58 57 57 57 57 58 59 58 58 58 59 59 58 58 59 59 59 59 59 59 59 59 60 60 58 59 59 58 57
41 43 34 33 22 23 31 33 38 43 45 49 50 52 55 57 60 55 54 56 57 58 57 57 56 56 59 58 58 58 58 59 60 59 55 56 58 60 59 59 59 59 60 60 60 59 59 59 58
38 36 37 36 34 27 24 31 47 46 47 49 50 53 53 54 56 55 55 55 57 58 58 56 55 55 56 59 57 59 58 57 56 55 54 55 55 57 59 59 59 59 59 59 59 59 59 58 58
41 38 40 32 29 33 29 30 49 50 49 54 53 53 53 56 56 56 54 55 55 56 57 56 54 54 55 56 57 59 58 58 58 58 56 54 55 55 56 58 59 59 59 59 59 58 59 57 57

GFSSGP_sfc_temp_087.txt.gz
Temp
70 71 74 74 64 61 55 59 61 64 67 72 73 73 73 74 70 68 79 80 78 77 78 77 74 75 74 74 74 75 76 76 76 76 76 75 75 76 76 76 76 77 78 78 78 78 78 77 75
71 72 72 66 60 56 59 60 61 68 72 73 74 73 73 73 77 78 80 78 79 77 78 78 74 75 74 74 74 75 76 76 76 76 76 76 76 76 76 75 76 77 77 78 78 78 77 75 74
73 72 69 64 55 57 59 61 68 69 72 70 74 76 75 76 77 79 82 79 78 77 78 77 74 74 74 73 74 75 76 75 75 75 76 76 76 76 75 75 76 77 77 78 78 77 75 73 73
72 70 64 57 53 58 62 65 66 68 72 74 75 72 78 80 78 81 82 79 78 76 77 73 73 73 73 73 74 75 74 74 74 75 75 76 76 76 76 75 75 77 77 78 77 75 73 72 71
68 64 56 51 53 58 60 64 66 66 68 71 73 71 74 79 79 79 78 78 77 75 76 74 71 72 73 74 74 73 73 73 74 74 74 75 75 75 75 75 75 75 76 77 75 73 72 71 71
62 62 51 50 52 60 62 67 69 68 70 72 70 70 74 77 77 78 77 77 76 74 75 73 71 72 72 73 73 72 72 72 73 73 74 74 75 75 74 74 74 74 74 74 73 71 71 71 70
61 57 54 51 52 57 64 68 66 69 70 71 73 68 74 76 77 76 77 76 75 72 72 72 73 74 71 70 70 70 71 72 71 71 72 73 73 72 73 73 73 73 73 72 71 71 70 70 69
62 60 48 50 53 57 67 66 71 70 71 76 76 69 71 76 75 74 74 75 74 73 70 71 72 73 73 72 69 69 69 69 70 69 69 69 70 71 71 72 73 73 72 71 71 70 70 69 68
61 54 49 52 53 60 64 64 70 72 71 71 74 74 76 75 73 73 71 71 71 70 71 71 71 73 74 72 70 69 69 69 69 69 68 68 73 73 71 70 70 70 70 70 70 69 68 68 67
59 51 52 58 62 62 64 66 68 67 67 69 71 75 75 72 72 72 71 71 68 66 67 69 70 71 72 70 69 70 71 73 71 71 71 71 71 71 69 69 67 67 68 68 69 68 67 69 75
57 53 57 59 62 63 64 62 68 65 62 67 68 72 74 73 72 71 73 74 73 69 67 68 69 70 70 68 68 67 67 68 69 67 67 69 68 67 67 67 67 67 66 66 69 69 74 73 75
53 55 60 62 64 63 61 68 63 64 66 72 73 74 72 72 72 72 71 74 72 70 69 68 68 68 68 68 68 66 65 66 66 68 65 65 65 64 65 69 69 66 65 66 69 73 72 72 72
53 56 60 61 62 62 64 61 61 62 69 73 73 69 70 72 73 75 76 76 72 71 71 68 68 67 67 66 67 66 66 65 66 66 65 65 66 64 66 69 67 64 63 64 69 71 71 71 71
58 57 58 60 61 62 59 61 63 66 69 69 69 70 71 73 74 75 71 72 70 72 72 71 67 66 67 66 66 66 66 66 65 65 65 65 66 65 66 69 66 66 63 65 69 71 71 71 71
58 53 56 57 60 59 61 57 57 67 69 66 69 71 71 74 74 72 75 73 72 72 72 69 66 66 66 66 65 65 64 65 63 63 65 65 66 66 67 65 66 64 63 67 70 71 71 69 69
53 52 47 56 57 59 60 51 64 70 66 66 67 69 70 72 73 76 75 75 75 72 70 69 66 65 66 66 65 64 63 63 64 63 64 65 66 67 66 64 64 63 62 69 68 69 68 69 69
46 43 44 50 58 58 57 53 60 65 65 64 67 69 69 70 73 74 75 75 72 71 70 67 66 64 64 67 66 64 63 62 63 63 62 65 65 66 65 64 63 62 61 68 69 68 69 68 68
41 41 44 46 53 55 53 53 60 62 62 63 66 68 68 69 72 76 74 74 70 69 69 68 66 64 67 66 65 64 62 62 62 63 64 65 65 66 64 64 60 62 63 66 68 66 68 68 68
46 44 42 47 53 50 50 51 56 60 62 61 63 66 67 69 75 75 71 69 67 66 66 66 64 63 64 63 62 61 60 61 61 63 64 64 64 64 64 62 61 62 64 66 66 66 65 66 68
46 43 43 47 51 50 49 49 56 59 60 62 63 65 67 69 72 72 68 65 65 65 65 64 66 64 64 66 65 64 62 62 63 63 65 64 63 63 62 60 61 62 65 65 64 65 65 66 66
44 42 42 43 48 51 48 48 53 58 61 63 64 66 68 69 71 72 66 64 64 63 63 62 66 65 64 65 64 63 63 62 62 61 62 63 63 63 61 61 62 65 64 64 65 66 66 61 64
39 48 47 44 42 38 49 37 51 55 57 60 62 64 65 68 70 71 67 64 63 63 62 64 65 66 66 66 65 63 62 60 59 62 60 60 61 61 60 62 63 63 63 64 65 66 65 64 62
44 48 46 45 42 40 41 37 45 54 55 59 62 64 66 68 70 71 66 65 65 62 60 61 64 64 64 62 63 62 61 61 62 60 59 58 58 59 60 62 62 62 63 63 63 61 63 66 65
50 46 45 44 42 32 40 40 44 50 52 54 59 62 65 68 70 68 65 64 65 61 60 60 59 63 62 61 62 63 62 61 59 59 58 57 57 58 60 60 60 62 63 62 63 63 62 62 64
46 41 33 30 29 31 43 39 45 53 53 54 55 58 62 65 68 63 61 62 63 59 59 59 59 62 62 61 62 62 62 63 61 58 58 57 56 57 59 60 60 60 62 60 61 63 62 60 61
41 40 35 26 28 33 43 37 47 53 56 58 59 59 61 62 64 63 63 63 62 60 59 59 59 62 60 61 61 62 62 61 61 60 59 59 58 58 59 59 59 59 60 59 59 61 62 61 62
40 36 44 34 37 33 40 46 51 55 56 58 58 59 57 58 61 64 63 63 62 61 58 59 60 61 60 60 60 61 62 61 60 61 60 59 60 59 58 58 58 58 58 60 60 59 60 60 62
45 47 33 34 24 24 37 40 44 48 50 54 55 56 56 57 60 63 64 62 62 63 59 59 60 61 60 60 61 61 60 61 61 60 59 59 59 60 59 59 59 58 58 59 60 60 61 62 61
40 37 37 37 34 30 30 39 51 49 53 52 54 55 53 54 58 60 62 63 63 60 59 58 59 60 59 60 62 60 60 60 61 61 62 60 59 59 59 59 59 59 59 59 59 59 60 59 59
45 41 41 31 30 33 33 37 53 53 55 55 53 53 52 53 57 59 58 58 59 57 57 57 58 59 60 61 63 61 60 59 59 60 61 61 63 64 62 60 59 58 58 59 59 59 61 59 59

GFSSGP_sfc_temp_090.txt.gz
Temp
75 86 91 86 73 74 72 73 79 76 76 82 82 83 82 85 81 76 90 93 92 90 89 80 74 74 74 75 75 75 76 76 76 76 76 76 76 76 76 76 76 77 78 79 78 78 78 77 75
89 85 87 84 69 67 72 79 74 80 80 82 82 82 80 80 88 89 89 90 92 92 90 86 73 74 74 74 74 75 76 77 76 76 76 76 76 76 76 76 76 77 78 78 78 78 77 75 74
86 87 81 75 71 66 72 77 80 82 81 80 81 86 85 83 88 91 95 91 91 90 91 87 73 73 74 74 74 75 75 75 75 75 76 76 76 76 76 75 76 77 77 78 78 77 75 73 73
82 83 80 68 68 73 76 80 81 79 80 82 82 79 87 91 89 94 95 91 90 90 90 76 72 73 73 74 74 75 74 74 74 75 75 76 76 76 76 75 76 77 77 77 77 75 73 72 71
84 82 70 66 69 75 75 79 79 77 76 79 81 80 82 89 91 91 92 91 89 88 88 82 71 72 73 74 74 75 73 73 74 74 75 75 76 75 75 75 75 76 77 77 75 73 72 71 71
75 77 66 65 69 73 79 80 80 78 80 81 80 80 82 88 88 89 90 89 89 86 85 83 74 72 72 73 73 73 73 73 73 73 74 75 75 75 75 74 75 75 75 74 73 72 71 71 70
71 70 66 69 69 71 75 82 75 78 81 81 83 76 84 87 88 86 88 89 86 85 83 78 77 77 70 70 71 70 72 72 72 73 73 74 73 73 73 74 74 74 74 73 72 71 70 70 70
75 73 65 68 64 65 78 78 80 79 79 83 85 77 78 84 87 85 86 86 84 80 81 78 76 78 79 79 69 70 70 71 71 70 71 71 71 72 72 72 73 73 72 71 71 70 70 69 69
77 64 62 66 64 68 76 72 81 83 80 81 82 82 84 86 85 83 82 82 82 80 78 78 76 78 78 80 78 71 70 70 69 70 69 70 79 78 77 71 69 70 70 70 70 69 69 68 68
69 64 65 74 72 72 76 75 78 74 76 77 79 85 86 86 84 82 82 81 80 80 78 74 78 78 76 80 79 78 79 80 79 79 78 79 79 78 76 71 68 68 67 68 68 67 67 70 77
68 63 71 70 72 75 74 75 78 73 70 76 75 80 84 84 84 83 84 85 85 84 77 72 76 76 76 75 75 78 79 80 79 78 79 77 76 75 76 73 70 69 67 68 67 66 72 76 78
61 68 70 72 73 72 69 75 72 74 73 80 82 83 83 82 82 84 84 87 88 85 81 73 73 74 73 75 72 74 72 76 73 77 74 71 71 71 73 69 68 68 68 66 66 67 73 76 77
62 67 70 71 71 71 72 70 71 73 79 81 81 81 80 81 83 86 88 89 89 86 83 77 72 73 73 72 70 69 71 70 73 73 75 73 69 71 70 67 67 71 66 65 65 68 72 75 76
68 66 68 69 68 69 66 68 71 73 78 77 79 80 81 81 83 86 87 86 87 87 84 81 72 72 71 71 71 69 70 70 70 71 70 73 68 69 73 67 68 69 68 66 66 66 71 74 78
64 59 64 67 68 66 70 64 67 77 79 77 78 80 81 83 85 85 88 87 87 86 85 81 74 70 69 70 71 70 71 70 68 69 67 69 67 67 68 67 66 68 69 64 65 69 73 75 79
59 60 53 65 66 67 67 58 73 76 75 74 77 78 79 82 84 87 89 89 90 88 84 83 76 71 70 68 68 70 70 69 67 67 66 65 66 67 71 66 65 67 66 64 64 68 71 73 77
57 50 55 58 64 64 63 62 70 73 72 72 75 78 79 81 84 86 88 89 89 88 84 81 78 71 69 69 67 69 71 69 66 65 65 65 65 66 67 67 65 65 64 62 64 66 72 73 75
50 50 52 53 62 62 61 61 68 72 72 72 74 77 78 79 82 86 88 89 89 88 84 81 79 72 70 69 70 72 69 68 66 64 64 65 65 66 66 65 63 63 62 62 64 68 72 75 75
54 51 53 58 61 57 57 60 65 70 71 71 73 75 77 78 84 86 86 87 85 83 80 80 77 69 69 69 68 69 66 66 64 64 64 65 65 65 65 64 62 62 61 62 66 69 71 73 74
52 49 50 57 59 57 57 58 65 68 69 71 73 75 77 79 82 82 84 85 81 81 79 79 78 69 71 76 77 74 67 67 66 64 64 65 65 66 64 63 62 62 61 61 68 69 70 71 71
49 48 50 50 56 58 56 55 64 66 70 72 74 76 77 77 77 80 82 84 81 78 77 78 78 72 75 77 77 72 67 65 64 62 62 63 65 65 63 62 62 62 62 61 67 70 71 68 70
45 55 52 50 49 46 55 47 60 64 66 69 70 72 74 76 78 79 81 84 81 79 78 77 77 76 75 75 75 71 71 64 64 62 63 63 63 63 62 62 62 62 63 64 68 72 71 70 67
50 54 52 51 50 49 52 48 58 63 62 65 68 70 71 75 77 78 81 83 84 79 75 74 76 76 75 74 75 71 69 70 72 68 62 62 62 62 61 61 62 61 63 66 70 70 70 71 71
57 51 51 52 50 41 51 50 58 61 59 62 67 69 70 72 75 79 82 83 81 77 68 70 74 75 75 74 73 72 70 68 68 62 60 59 58 60 61 61 61 62 63 66 68 68 70 71 71
53 47 38 36 36 39 51 48 56 61 61 63 64 68 71 72 73 75 76 77 76 70 63 66 72 73 72 71 71 69 69 70 68 61 58 57 57 56 57 59 59 59 63 66 66 68 69 69 70
48 49 42 33 37 44 50 43 55 61 64 67 68 69 71 71 72 74 74 74 74 66 61 62 67 71 70 69 68 68 71 69 68 61 59 57 58 57 58 58 59 60 62 65 66 67 67 67 67
46 41 52 41 45 39 49 54 58 62 63 65 66 67 67 69 70 73 74 74 74 67 61 61 67 72 70 68 65 68 68 67 64 62 60 58 59 58 59 59 60 61 62 63 64 64 62 64 66
51 55 38 42 30 31 45 48 54 52 57 62 62 63 64 66 68 69 73 73 73 70 62 62 68 71 68 68 65 68 67 66 66 64 60 59 59 59 58 57 58 59 59 60 60 59 60 60 61
45 44 44 44 42 34 38 47 56 55 58 59 61 62 62 60 61 64 68 70 71 68 62 60 66 66 66 65 66 67 65 66 64 63 61 59 59 59 58 57 58 58 57 58 57 58 60 61 61
52 48 47 39 34 41 36 44 61 61 62 62 62 61 61 55 55 59 61 65 64 61 60 60 62 63 66 64 65 64 63 66 64 64 63 59 60 60 61 59 59 59 58 57 57 59 60 59 59

GFSSGP_sfc_temp_093.txt.gz
Temp
77 86 93 90 74 77 73 79 89 82 82 90 89 88 86 92 85 77 97 99 99 96 90 81 74 74 75 75 76 76 76 76 76 76 76 76 76 76 76 76 76 77 78 78 78 78 78 77 75
89 92 91 84 70 68 74 85 82 85 89 88 87 86 85 84 94 94 95 96 97 96 91 87 73 74 74 75 75 75 76 76 76 76 76 76 76 76 76 76 76 77 78 78 78 78 77 76 74
83 92 82 77 72 68 74 86 85 89 87 87 86 91 90 87 94 97 100 97 98 97 95 88 73 73 74 74 74 75 75 76 75 75 76 76 76 76 76 75 76 77 78 78 78 77 76 74 73
87 86 83 71 70 79 80 86 87 87 86 89 89 82 91 97 93 99 100 97 96 97 97 74 72 72 74 74 74 74 75 74 74 75 76 76 76 76 76 75 76 77 77 78 77 76 73 72 72
89 84 71 70 71 79 85 87 86 84 84 84 86 83 86 95 97 97 98 97 95 95 94 83 71 72 73 74 74 74 74 73 74 74 75 75 76 76 76 75 75 75 77 77 76 73 72 72 71
77 80 68 67 72 81 86 89 85 83 86 85 83 85 87 96 94 96 97 95 95 92 91 85 74 72 72 73 73 74 73 73 73 74 74 75 75 75 75 74 75 75 75 75 73 72 71 71 71
74 74 68 71 73 78 84 88 84 83 84 84 90 81 88 92 93 93 95 95 93 91 88 84 81 78 71 71 71 72 72 72 72 72 73 73 73 73 74 74 75 75 74 73 72 71 70 70 69
79 74 68 72 71 73 85 83 87 84 81 92 91 79 81 89 91 91 92 92 90 88 86 84 83 81 81 79 70 70 71 71 71 71 70 72 72 72 72 72 73 74 73 72 71 70 70 69 68
83 67 65 69 71 75 83 78 86 89 85 88 88 87 90 90 91 89 87 87 86 85 85 83 82 83 84 84 78 71 71 71 70 71 70 70 81 79 77 74 70 71 71 72 70 68 68 68 68
73 66 67 78 80 78 79 80 82 80 80 81 84 88 91 92 90 87 87 84 84 83 82 83 81 81 83 86 82 81 81 81 80 81 81 80 81 80 81 74 68 68 68 68 68 67 67 70 75
73 65 73 78 81 81 79 79 84 80 76 81 81 83 87 89 88 87 87 89 88 87 86 81 81 82 82 84 84 84 82 82 82 81 82 82 82 78 77 74 72 69 69 69 68 66 69 75 75
68 73 74 76 79 78 74 79 77 78 79 85 86 87 87 86 86 86 86 90 91 90 88 81 78 82 79 84 82 85 85 81 80 80 80 80 79 75 75 75 74 72 67 68 67 66 68 71 75
69 71 74 76 76 75 77 74 74 76 83 87 86 85 84 85 86 88 90 92 93 91 90 85 77 81 80 79 79 79 80 84 82 79 78 78 77 74 77 71 76 71 68 66 65 65 66 66 73
73 72 72 72 73 74 69 70 74 76 82 82 83 83 84 84 85 87 88 90 91 92 92 87 81 79 82 79 76 77 76 75 79 80 77 77 76 75 73 74 72 70 68 66 66 65 65 65 69
71 64 68 69 70 69 73 65 66 77 80 79 81 82 83 85 87 86 89 90 92 92 92 88 83 76 78 77 74 75 78 76 75 77 78 76 76 74 74 69 69 71 67 68 65 65 65 65 69
62 63 57 68 71 72 69 57 73 82 80 78 81 82 83 86 87 90 91 92 94 93 91 90 87 75 74 75 76 74 77 76 74 72 74 73 73 72 72 65 68 67 66 66 64 64 63 64 68
60 50 54 62 72 67 68 62 75 80 77 76 78 81 83 85 87 90 92 93 94 94 92 88 86 76 72 74 75 72 73 73 73 75 73 71 70 72 68 70 66 66 64 64 66 63 64 64 70
52 52 57 56 66 67 61 63 72 76 75 74 77 79 81 83 85 89 90 92 94 94 92 89 87 78 72 72 72 71 72 72 69 68 70 69 69 69 70 67 65 67 63 63 64 62 63 66 71
58 56 55 60 69 63 61 62 67 72 74 72 76 77 79 81 87 90 90 91 91 91 90 88 85 79 72 69 67 68 67 67 68 67 68 68 68 67 67 66 65 65 62 63 64 63 62 63 76
54 53 52 59 65 63 61 60 67 71 73 74 75 77 80 82 85 87 89 89 88 88 87 85 85 83 73 70 73 77 73 73 71 69 67 67 66 66 65 66 64 63 62 62 62 62 61 62 70
53 52 52 54 59 64 59 56 62 71 75 76 78 79 80 80 81 84 86 87 87 86 85 85 85 84 74 75 78 77 73 69 66 67 67 67 67 66 65 65 63 62 62 62 62 63 62 63 67
46 58 55 53 52 44 61 48 63 69 70 72 74 74 76 78 80 82 84 85 86 87 85 85 85 83 73 78 80 75 68 65 68 68 68 64 65 65 65 63 63 62 62 61 62 64 63 67 66
50 58 56 55 50 49 54 51 58 68 65 69 71 73 75 77 78 80 83 85 87 88 85 83 84 83 77 79 81 76 74 76 74 70 68 66 63 64 63 63 62 61 61 62 62 63 66 68 68
61 56 54 53 50 41 49 51 56 62 64 64 69 72 75 77 78 81 83 85 86 89 84 81 81 81 79 79 79 77 75 76 74 70 67 64 62 62 61 62 62 62 62 62 62 64 66 68 70
56 49 38 37 39 37 58 53 56 66 66 66 68 71 74 75 76 78 80 83 85 85 80 78 78 79 79 77 77 77 75 75 72 71 67 62 60 60 61 61 61 61 62 62 63 63 67 69 70
50 50 41 33 36 44 57 46 57 69 69 71 71 72 73 73 74 77 79 80 82 81 74 72 78 79 78 76 76 76 76 72 74 69 65 62 58 59 61 61 61 61 62 62 63 65 68 68 68
49 45 55 45 46 42 49 57 63 67 63 65 68 70 70 70 69 74 77 79 79 75 66 65 76 78 76 75 75 74 72 71 70 67 63 60 59 58 58 59 60 61 61 62 62 64 64 66 66
54 57 41 45 33 34 47 52 49 54 58 64 66 66 67 66 64 63 73 78 79 71 64 63 72 74 74 73 73 71 69 71 70 65 60 59 58 58 58 58 58 59 60 61 61 63 64 66 66
49 45 48 49 47 38 38 45 58 59 62 62 65 66 65 62 57 55 63 75 77 72 65 63 68 72 71 72 69 68 68 68 67 67 61 59 58 58 58 58 58 58 58 59 60 63 62 63 62
55 50 49 40 38 45 42 43 62 63 65 65 65 65 65 61 54 52 52 62 67 65 64 62 67 68 68 70 67 67 68 67 66 65 61 60 58 58 58 57 57 56 56 57 58 58 58 57 57

GFSSGP_sfc_temp_096.txt.gz
Temp
76 81 85 83 68 69 65 71 83 82 85 91 91 87 85 87 81 72 95 95 87 85 80 78 74 75 75 76 76 75 75 76 76 76 75 75 75 76 76 76 76 77 78 78 78 78 78 76 75
84 87 85 79 64 60 66 79 79 86 89 89 88 87 85 82 92 90 90 95 91 87 82 80 73 74 75 75 75 75 76 76 76 76 75 75 76 75 76 75 76 76 78 78 78 78 77 75 74
78 88 76 70 65 60 66 79 85 89 89 87 85 90 88 86 95 93 94 94 92 88 86 80 73 73 74 74 75 75 75 75 75 75 76 76 76 76 76 75 75 76 77 78 78 78 75 73 73
80 79 78 65 63 72 73 80 85 87 88 88 88 83 91 94 93 98 96 95 92 90 89 72 72 73 74 74 74 74 74 74 74 74 75 76 76 76 76 75 75 76 76 77 77 76 73 72 72
82 79 64 63 65 73 80 85 87 83 85 85 87 81 85 95 97 96 93 94 90 89 79 76 71 72 73 74 74 74 74 73 74 74 74 75 76 76 75 75 75 75 76 76 75 73 72 72 71
71 75 62 60 66 75 81 86 85 85 85 86 83 83 84 94 94 92 91 90 89 82 81 76 73 72 72 73 73 73 73 73 73 73 74 75 75 74 75 74 74 74 75 75 74 72 72 71 71
70 68 62 64 67 72 79 88 84 84 83 83 89 79 85 92 91 91 91 88 87 84 80 76 75 74 71 71 71 72 72 73 72 73 73 73 72 72 73 73 74 75 73 73 72 71 71 71 71
76 71 63 67 66 68 80 84 87 84 82 91 91 80 79 85 89 89 89 86 84 81 80 77 76 75 74 73 70 71 71 72 72 72 72 71 71 71 71 72 73 74 73 72 71 70 69 69 70
80 63 60 63 66 71 82 79 87 89 84 87 88 87 89 89 90 85 83 83 81 81 80 78 77 77 76 76 73 70 71 71 71 72 71 68 73 73 73 72 71 71 71 71 71 68 68 67 67
69 63 62 72 75 74 80 81 82 80 80 81 84 88 91 89 86 83 81 79 80 78 79 77 77 77 77 81 74 74 75 74 73 74 73 72 74 74 76 72 68 70 69 69 68 67 67 67 66
69 62 70 73 77 79 77 78 83 78 75 80 78 81 85 85 84 81 83 83 82 82 80 78 76 76 77 78 75 76 76 75 75 75 75 75 75 73 71 68 69 68 69 67 67 66 67 68 67
65 71 73 74 76 75 73 78 76 78 76 82 84 85 85 83 82 83 80 85 85 82 81 78 77 77 76 77 78 77 77 76 75 75 75 74 73 71 71 71 68 67 66 66 66 65 65 67 69
67 70 74 76 76 75 76 72 72 74 81 84 85 84 82 82 83 85 85 85 84 82 82 78 77 77 77 76 76 76 76 76 76 75 75 74 73 71 70 71 71 68 66 66 65 65 65 65 66
71 71 72 74 73 74 69 70 72 73 79 79 80 80 82 82 82 84 83 83 82 84 82 75 75 77 77 76 75 74 75 76 76 75 74 74 72 71 70 69 70 69 67 66 66 65 64 64 65
70 63 67 69 71 69 72 64 66 74 76 74 76 80 81 83 84 82 83 81 82 84 83 76 74 76 76 76 75 75 74 73 73 74 73 73 72 70 70 69 68 67 67 65 64 64 64 64 64
62 62 54 66 69 70 69 55 68 74 73 73 76 78 79 81 83 84 84 84 85 85 84 80 79 75 76 76 75 74 75 73 73 72 73 73 72 71 69 68 67 67 65 65 64 64 63 63 63
57 49 53 58 68 67 67 61 70 76 73 72 77 79 79 80 83 84 85 86 86 87 84 80 78 75 74 74 72 71 73 73 73 72 71 72 71 71 69 67 66 66 65 64 64 63 63 62 62
49 51 54 55 63 65 60 62 69 72 74 74 73 75 77 79 82 85 85 87 89 87 84 81 78 74 73 74 71 71 71 72 73 71 70 71 69 69 68 67 66 66 64 64 63 62 62 62 62
57 55 54 60 66 63 60 59 65 71 71 69 72 73 74 76 81 84 83 83 81 80 80 80 77 73 72 71 68 67 67 68 68 69 70 70 68 68 68 66 65 65 64 63 63 62 61 60 62
56 53 53 59 63 60 59 59 65 67 68 70 71 72 74 76 80 82 83 80 78 79 79 78 79 73 72 72 71 70 68 67 67 66 67 67 67 67 67 66 65 63 63 62 62 62 60 61 62
55 53 52 51 58 60 58 54 60 66 69 71 73 75 77 77 78 79 80 78 77 77 77 78 80 75 74 72 71 71 70 69 66 65 64 65 66 66 66 66 65 64 64 62 62 62 61 59 60
48 59 57 53 50 42 58 42 55 65 67 69 71 72 74 76 77 78 78 78 77 77 77 78 79 80 74 72 70 69 69 65 66 65 66 65 66 66 65 65 64 63 63 62 62 62 62 61 59
53 60 56 54 49 48 48 45 53 63 62 67 69 71 72 75 75 75 77 78 81 78 75 76 78 80 73 72 72 71 69 68 67 66 65 65 65 65 64 64 64 62 62 62 62 61 61 61 60
59 56 54 53 49 37 47 46 48 55 63 66 68 71 72 73 74 76 78 78 79 78 76 75 77 78 73 72 72 73 68 69 68 66 64 63 63 63 63 63 63 62 62 62 62 62 62 61 61
55 47 33 31 34 33 50 48 51 60 65 66 67 69 70 70 69 70 74 77 78 76 75 75 76 77 73 71 73 73 71 70 70 66 64 63 61 61 62 62 61 61 62 62 62 62 62 62 61
47 48 36 28 31 37 51 42 51 66 69 70 68 69 68 66 66 65 64 72 76 76 74 74 75 76 75 73 73 72 69 70 69 66 65 62 61 61 62 61 62 62 61 62 62 61 61 62 61
46 41 50 39 42 34 39 53 59 62 62 66 66 65 63 63 62 60 62 65 76 71 69 70 73 75 75 72 68 69 69 69 67 65 64 62 61 61 60 61 61 61 61 61 61 61 61 61 62
49 53 40 42 28 28 35 40 40 49 57 63 63 62 61 61 58 55 58 58 66 68 66 67 69 71 71 68 67 67 66 67 65 64 62 60 59 59 58 58 60 60 60 61 61 61 61 61 61
49 42 45 44 42 30 34 39 49 47 55 59 61 62 58 57 54 51 52 55 56 66 64 64 66 66 66 67 66 64 65 65 65 64 61 59 58 58 57 57 57 59 60 60 60 60 61 60 60
56 48 45 36 37 44 38 34 48 55 60 60 60 61 58 56 52 49 47 49 49 52 64 63 64 62 64 65 65 64 63 64 64 62 60 58 58 58 58 58 57 57 58 60 60 59 60 60 59

GFSSGP_sfc_temp_099.txt.gz
Temp
64 67 67 66 52 47 43 53 67 68 71 74 78 76 72 74 72 61 78 80 77 74 75 75 74 75 75 75 75 75 75 76 75 75 75 75 75 75 75 75 76 77 78 78 78 78 77 76 75
68 75 67 60 46 39 46 61 64 72 78 78 80 78 77 74 82 80 77 80 78 75 74 74 73 74 75 75 75 75 76 76 75 75 75 75 75 75 75 75 75 77 77 78 78 78 77 75 74
69 75 58 52 45 45 46 62 69 75 80 77 74 77 77 75 82 82 82 81 79 76 76 74 72 73 74 74 74 74 75 75 75 75 75 75 76 76 75 75 75 76 77 78 78 77 75 73 72
68 63 60 48 46 53 60 67 73 74 79 78 75 73 80 86 84 85 84 82 79 78 77 71 71 72 73 74 74 74 74 73 73 74 75 75 76 76 75 74 75 76 77 77 77 75 73 72 72
64 58 48 44 50 58 66 71 75 75 77 78 77 70 74 82 88 87 84 84 79 75 72 72 70 72 73 74 74 73 73 73 73 73 74 75 75 75 75 74 75 75 76 76 75 73 72 72 71
55 56 43 46 52 61 67 72 75 77 78 77 73 72 73 82 83 82 82 79 76 73 72 72 72 72 72 73 73 72 72 73 73 73 73 74 74 74 74 74 73 74 74 74 74 72 72 71 71
52 48 46 47 53 59 67 74 73 75 75 74 80 71 76 78 80 81 81 78 75 74 71 70 70 71 71 71 71 71 71 72 74 73 72 73 72 72 73 73 73 74 73 72 71 71 71 71 71
59 54 50 53 54 56 69 74 74 72 73 83 80 69 67 73 80 80 78 77 74 72 71 69 69 69 68 70 70 70 71 72 72 72 71 71 71 71 72 71 71 72 73 72 70 70 70 70 68
63 53 50 52 56 61 72 70 78 77 74 75 78 77 77 80 80 78 75 72 73 72 71 70 69 69 68 68 70 70 71 75 72 72 71 68 70 70 71 70 71 71 71 70 71 69 68 67 67
53 49 52 60 63 63 70 67 68 70 71 72 74 79 79 79 76 74 73 71 70 70 70 71 70 69 69 73 69 68 70 72 73 72 71 69 69 69 72 69 68 69 69 69 68 67 68 68 67
55 52 59 63 67 69 65 66 70 67 64 71 69 73 77 75 73 71 73 73 74 74 72 71 71 70 70 71 68 69 69 69 70 71 70 69 70 68 67 65 66 67 67 66 66 66 66 67 67
54 61 62 64 68 68 66 69 67 68 67 72 73 74 75 73 71 72 71 73 76 74 73 73 73 72 70 68 69 70 69 69 69 69 69 69 67 66 65 65 65 65 65 65 64 65 66 66 68
58 61 65 68 68 68 69 66 66 67 69 74 75 75 71 71 74 75 75 74 74 75 75 73 73 74 73 69 70 70 70 70 70 70 70 69 67 67 66 65 65 65 65 64 63 64 63 64 66
61 63 63 66 66 66 64 64 62 67 70 72 74 72 72 72 72 73 74 73 74 75 75 74 73 74 75 73 70 71 70 70 70 70 71 68 68 68 67 66 64 64 64 64 64 63 62 63 64
63 55 60 62 60 60 63 58 59 64 68 69 71 73 73 75 77 73 74 73 74 74 73 73 73 74 74 74 71 69 68 70 69 70 70 69 68 68 67 67 66 66 64 65 64 63 63 63 64
54 52 45 57 61 64 57 51 63 66 66 66 68 70 73 75 76 79 75 76 74 75 72 75 76 73 73 73 70 70 67 67 66 68 69 69 68 68 66 65 64 64 64 65 64 64 62 62 62
46 40 44 50 60 60 56 53 62 65 68 66 68 68 71 73 77 78 78 77 80 79 75 74 73 72 72 71 70 69 68 66 66 66 68 68 68 68 66 65 65 65 64 64 64 63 63 62 62
36 40 44 45 55 57 54 54 61 62 64 62 62 65 66 68 75 79 79 80 76 81 79 75 72 72 71 70 68 67 68 69 67 65 66 67 67 66 65 64 64 64 63 63 63 63 63 63 62
47 45 44 50 57 54 53 50 57 62 63 63 62 60 63 67 72 74 73 74 76 77 79 70 71 71 71 69 66 66 66 68 68 68 66 70 68 67 66 65 64 64 63 63 63 62 61 60 62
48 44 43 50 56 55 51 49 52 56 58 62 61 63 64 64 69 72 75 71 71 71 71 68 73 70 71 70 70 67 67 67 67 66 67 69 67 67 66 65 64 64 63 63 62 62 60 61 61
48 45 45 46 52 51 48 46 49 59 62 66 69 68 70 68 67 70 73 73 69 70 71 70 71 70 70 69 68 65 64 65 64 64 65 65 67 67 66 65 64 64 64 62 62 62 61 59 60
43 53 51 49 47 36 46 34 47 54 59 63 66 70 69 66 67 68 69 67 67 69 70 71 70 69 69 68 67 65 64 63 65 66 66 64 65 65 65 65 64 64 63 62 62 62 61 61 59
46 55 50 50 47 39 42 35 44 54 54 59 65 65 68 66 64 63 64 69 70 69 68 71 70 69 69 68 67 66 64 65 66 64 63 64 64 64 64 64 64 63 63 63 62 62 61 61 61
54 51 47 44 42 31 41 39 40 48 54 60 61 61 62 62 61 62 63 63 64 68 66 67 69 70 68 67 66 66 65 63 63 62 62 62 62 63 63 64 64 64 63 62 62 62 61 61 61
47 43 27 26 27 27 45 40 43 55 60 57 55 57 57 57 58 57 58 58 59 60 65 66 69 68 67 66 66 66 65 64 62 61 61 60 61 61 61 62 62 62 63 63 62 62 62 61 60
42 42 28 22 24 30 45 36 45 59 62 52 58 56 55 54 55 53 54 55 56 61 64 67 65 66 66 66 65 65 66 67 67 63 61 61 62 62 63 62 62 63 62 62 62 62 62 61 61
38 34 42 31 38 29 36 44 52 51 52 50 54 52 50 51 51 50 51 52 52 59 59 59 63 64 65 64 64 64 66 66 64 63 62 60 58 60 61 62 62 61 61 62 62 61 61 61 61
44 47 32 33 25 24 34 36 33 38 41 46 49 48 48 48 47 47 48 49 50 51 57 58 60 61 64 64 65 65 64 64 63 62 59 58 57 59 58 60 61 61 61 61 61 60 61 61 61
37 35 37 38 37 28 27 31 36 38 46 47 47 47 46 45 44 45 45 47 47 48 49 54 59 59 60 65 64 63 62 62 62 61 59 58 58 57 57 58 58 59 60 60 60 60 60 59 60
45 39 40 28 32 37 33 30 43 44 47 48 49 49 47 45 43 43 43 43 44 44 46 48 52 60 60 62 63 61 61 62 61 59 57 58 57 57 57 57 57 58 59 60 60 59 59 59 59

GFSSGP_sfc_temp_102.txt.gz
Temp
62 64 65 64 50 44 38 49 56 61 63 69 74 71 69 70 70 62 74 78 75 73 74 74 73 74 75 75 75 75 75 76 76 75 75 75 76 76 76 76 76 77 78 78 78 78 77 76 75
65 70 64 55 44 36 41 53 58 64 71 74 75 74 71 69 76 72 74 76 76 74 73 74 73 74 74 74 74 75 76 76 75 75 75 75 76 76 76 75 75 76 77 78 78 77 76 75 74
66 71 56 49 40 40 42 56 64 66 72 72 73 74 73 72 77 76 77 76 74 73 74 73 72 73 74 74 74 74 75 74 74 75 75 76 76 76 76 75 75 76 77 78 78 77 75 73 72
65 61 56 44 41 48 50 59 62 66 72 74 74 71 75 79 80 79 78 76 73 73 73 71 71 72 74 74 74 74 74 73 73 74 75 76 76 76 75 74 75 76 77 77 77 75 73 72 72
60 53 44 39 45 51 57 63 66 66 70 72 74 70 70 79 81 79 76 77 72 71 70 71 70 72 73 74 74 74 73 72 73 74 74 75 75 75 74 74 74 75 76 76 75 73 72 72 72
53 51 38 41 49 55 59 65 66 68 72 73 68 69 71 78 78 77 77 75 74 70 70 70 71 71 72 73 73 72 72 72 72 73 73 74 74 74 74 73 74 74 74 74 73 72 72 71 72
49 43 39 40 46 52 60 66 65 67 65 69 74 68 69 74 77 77 76 74 72 70 69 69 70 71 71 70 70 70 71 71 72 72 72 72 72 72 73 73 73 73 73 73 72 71 71 71 71
54 48 39 43 47 49 63 68 67 66 68 77 74 66 64 74 76 74 74 72 70 69 69 68 69 69 71 69 69 69 70 71 71 71 71 70 71 71 72 72 72 72 71 72 70 70 71 71 69
59 43 42 44 50 54 65 64 71 70 67 70 74 73 76 77 76 72 69 68 68 69 68 68 68 68 68 70 70 70 70 71 71 72 71 69 70 70 71 70 70 70 70 69 70 70 69 68 67
52 43 47 56 57 58 63 62 64 65 65 67 68 74 74 76 74 71 69 68 67 67 67 68 68 68 68 71 68 67 70 70 73 75 74 70 69 68 71 69 69 69 68 69 69 69 68 68 67
49 50 56 58 60 61 59 60 65 64 60 65 65 67 73 72 69 70 71 70 70 70 69 68 68 68 68 69 70 68 68 72 74 74 72 68 69 68 67 66 66 66 67 66 66 65 64 66 66
49 57 58 58 62 60 60 65 63 63 64 71 68 70 70 71 70 67 68 71 71 69 70 69 69 69 68 68 69 70 70 69 71 73 71 69 68 65 65 65 65 65 65 64 63 62 63 65 67
52 56 59 61 62 62 64 61 62 65 68 70 70 70 68 67 69 70 70 70 73 71 72 70 70 70 70 68 67 67 68 69 69 68 69 69 67 66 65 64 65 65 64 63 63 63 62 63 65
58 57 58 60 59 61 60 61 58 65 67 66 68 67 67 68 68 68 68 69 68 74 73 71 70 71 71 69 68 68 68 68 68 68 68 69 68 66 65 64 64 65 64 63 63 63 62 61 63
58 50 54 57 55 56 56 55 56 61 65 65 65 65 69 67 69 67 69 68 71 71 74 72 71 71 71 71 69 69 69 68 68 68 68 68 68 66 65 64 64 65 64 63 62 62 63 63 63
49 48 39 50 54 56 56 48 60 61 60 60 63 68 70 70 69 70 69 69 70 72 71 73 74 71 70 72 70 70 69 69 69 68 68 67 68 67 65 64 63 64 64 64 64 63 62 62 63
40 38 40 46 53 53 52 49 59 61 62 63 65 66 68 69 71 71 72 73 76 75 70 72 72 69 70 71 70 70 68 68 67 67 68 67 67 67 66 65 64 65 64 64 63 63 62 61 61
31 35 36 39 50 51 49 49 57 62 61 60 61 63 64 66 68 72 74 77 76 78 74 72 71 70 71 70 70 67 66 66 67 67 67 66 67 66 65 64 64 64 64 63 63 63 63 61 61
43 41 38 44 51 49 47 49 53 59 54 55 60 57 57 60 66 67 69 70 71 71 73 71 69 70 70 68 67 66 66 66 65 66 67 67 65 65 65 64 64 65 64 63 63 63 61 61 62
43 39 39 45 50 49 47 47 54 53 55 56 56 55 56 58 63 66 67 67 66 70 70 68 70 69 70 69 69 69 69 66 66 66 67 68 67 67 66 65 64 64 63 63 62 62 61 61 62
43 40 41 41 48 50 46 44 49 55 55 59 61 62 62 62 64 66 67 65 63 63 66 67 72 70 70 71 69 64 65 63 62 65 66 67 67 66 66 65 65 64 64 62 62 62 61 59 61
37 47 46 45 42 34 43 31 46 51 53 58 60 62 64 66 69 63 60 58 58 61 62 68 73 70 71 70 68 66 66 64 66 66 66 66 66 66 65 65 64 64 64 63 62 63 62 61 59
41 48 45 45 40 35 39 33 43 49 48 53 57 58 59 58 56 55 55 56 58 58 59 64 71 70 71 68 68 66 65 66 63 63 64 64 64 65 64 65 64 64 64 63 63 62 61 62 61
49 44 44 45 36 26 35 34 38 44 49 54 53 53 52 52 52 53 55 56 55 58 60 61 67 68 68 68 68 66 64 63 62 63 63 63 63 63 64 64 64 64 64 63 63 63 62 61 61
42 36 26 21 24 25 41 36 40 48 54 56 49 48 49 49 48 48 49 50 52 52 57 60 66 67 67 67 66 65 64 63 63 62 62 62 62 62 62 63 62 63 63 63 63 62 62 61 61
36 34 27 19 22 29 41 31 37 46 50 51 50 47 47 46 46 46 48 49 49 50 51 57 62 66 65 64 64 64 64 63 63 62 61 61 62 61 63 63 63 63 63 63 63 62 62 62 61
37 32 40 31 34 29 34 41 47 48 46 46 45 44 42 43 43 44 46 46 46 47 48 50 59 61 63 63 63 62 62 63 63 61 62 62 61 61 62 62 61 62 62 62 62 61 61 61 61
40 46 28 29 21 22 32 35 33 36 40 42 39 38 40 41 41 42 43 43 45 45 46 49 51 54 60 61 62 63 62 61 61 61 61 60 59 60 60 61 61 61 61 62 62 61 61 61 61
37 33 36 35 32 26 25 28 34 34 37 37 38 39 38 38 38 39 40 41 42 44 44 46 48 49 53 59 59 60 60 61 60 60 59 58 58 57 58 59 59 60 60 61 60 60 61 60 60
42 36 37 26 31 34 30 28 36 35 35 36 37 38 39 38 36 36 38 39 39 40 42 44 46 45 48 56 58 59 61 61 60 59 58 58 56 57 58 56 57 58 58 60 59 59 60 60 59

GFSSGP_sfc_temp_105.txt.gz
Temp
61 62 62 62 49 42 37 46 49 53 59 64 68 65 67 69 67 60 72 75 73 72 73 73 73 74 74 75 75 75 76 76 76 75 75 75 76 76 76 76 76 77 78 78 78 78 77 77 75
63 67 61 52 42 34 40 48 54 59 66 70 71 71 68 69 74 69 72 74 75 73 73 73 73 73 74 74 74 75 76 76 75 75 75 75 75 76 75 75 75 76 77 78 78 77 76 75 74
65 67 55 48 37 37 41 50 57 63 66 67 67 70 71 70 74 74 74 74 73 73 73 73 72 73 74 74 74 74 75 74 74 75 75 75 76 76 75 75 75 76 77 78 78 77 75 73 72
62 59 53 43 39 45 48 54 58 62 67 67 67 67 74 78 76 77 74 74 72 71 72 71 71 72 73 74 74 74 74 73 74 74 75 75 76 76 75 74 75 76 77 78 77 75 73 72 72
57 51 42 35 40 48 53 59 59 60 64 67 68 65 68 77 78 74 73 74 71 70 70 71 71 72 73 74 74 73 73 72 73 74 74 75 75 75 74 73 74 75 76 76 75 73 72 72 71
51 48 36 36 43 52 56 60 61 63 65 67 65 65 69 74 73 73 73 72 72 69 70 71 71 72 72 73 73 72 72 72 72 73 73 74 74 73 73 73 73 74 74 73 73 72 72 71 71
47 42 36 36 43 49 56 62 60 62 60 64 69 63 68 69 72 72 72 69 68 68 69 70 71 71 70 70 70 70 71 71 71 72 72 72 72 72 72 73 73 73 73 72 72 71 71 71 71
51 45 35 41 45 46 59 61 63 60 64 72 70 62 63 71 72 71 69 68 66 66 68 69 71 71 70 70 69 69 70 70 70 71 71 70 71 71 72 71 72 72 71 71 71 71 71 70 70
54 41 34 41 46 50 61 59 63 66 63 66 70 68 72 72 71 68 66 65 65 66 66 68 69 71 71 70 70 70 70 70 70 70 70 68 70 70 71 70 70 70 70 70 70 70 69 69 68
50 38 44 52 52 51 58 54 60 60 61 61 66 72 73 74 70 67 66 65 64 64 65 67 68 69 69 71 70 71 72 70 69 70 70 70 69 69 70 69 69 69 69 69 69 69 67 67 66
46 45 51 53 56 56 52 56 60 58 57 62 63 66 71 70 68 66 66 67 68 67 67 67 67 68 68 68 69 69 69 67 67 69 69 70 68 68 68 67 67 67 68 66 67 66 65 64 65
46 54 53 52 57 56 56 60 59 59 60 66 68 68 68 70 68 68 66 67 66 67 68 67 67 67 67 68 69 70 69 67 69 70 71 69 68 68 67 66 65 65 65 64 63 63 63 64 64
49 52 56 58 59 58 60 57 58 60 65 66 67 66 65 67 69 68 68 68 67 67 68 67 67 67 67 67 69 69 70 70 72 72 71 69 69 68 66 65 65 65 63 63 62 63 62 62 63
52 52 52 55 56 55 55 57 54 59 63 63 63 63 64 64 65 66 66 65 67 71 69 68 67 68 67 67 67 68 70 71 70 71 71 70 69 68 66 65 65 65 64 63 63 62 62 62 62
53 47 53 56 52 52 55 52 52 58 62 61 61 61 64 65 64 65 67 67 66 70 73 68 68 69 68 68 67 67 68 70 69 70 70 70 69 66 65 65 66 67 64 62 62 61 61 62 62
47 45 40 50 52 54 49 44 54 59 56 58 59 63 64 63 66 65 67 68 70 65 70 72 71 69 68 68 67 67 67 67 68 68 69 69 68 66 64 64 65 65 64 62 61 61 61 63 63
39 34 37 42 51 49 46 43 51 58 59 59 61 61 62 65 65 65 66 67 69 70 68 71 71 69 69 69 68 68 67 67 67 67 67 68 67 66 65 64 65 65 64 63 62 62 63 62 61
31 32 32 35 43 47 44 43 52 56 57 57 58 60 62 63 66 69 68 67 67 69 69 71 72 70 70 69 67 67 66 67 67 67 67 67 67 66 65 63 64 64 64 63 63 62 62 62 62
41 38 37 42 48 44 43 44 48 54 54 54 56 56 58 59 65 65 65 63 62 64 66 68 70 70 69 68 67 66 66 66 66 67 67 66 67 66 65 65 64 64 63 63 63 62 61 60 61
41 37 36 42 47 45 44 43 49 52 53 56 56 58 56 56 58 63 64 62 62 62 62 64 69 69 68 70 70 69 67 66 67 67 66 67 66 65 66 65 64 64 63 63 63 62 61 61 61
39 36 36 37 44 45 42 40 45 52 55 57 60 57 56 54 57 61 63 59 58 58 57 61 67 70 69 71 70 64 63 63 64 64 65 66 66 66 65 65 65 64 64 63 63 63 62 60 61
35 43 42 40 36 29 37 27 40 47 50 54 57 48 48 48 50 52 52 53 52 53 54 57 65 68 69 70 68 66 66 65 67 66 66 67 67 66 66 65 65 64 64 63 63 63 62 61 59
39 44 41 40 35 35 36 30 37 45 44 50 48 48 47 49 50 49 50 51 51 53 54 55 59 68 70 69 69 67 66 67 64 65 65 65 65 65 66 65 64 64 64 63 63 62 62 62 61
46 40 40 38 34 25 34 31 33 38 45 49 45 45 45 46 47 49 50 52 52 52 52 56 60 67 69 68 68 66 66 64 63 64 64 64 64 64 65 65 65 64 64 63 63 63 62 62 61
38 32 20 17 21 23 38 33 36 42 45 45 43 42 42 43 43 44 45 46 48 49 50 54 61 64 67 67 68 67 66 64 63 64 65 63 63 63 63 64 63 63 64 63 63 63 62 62 61
33 31 23 18 19 25 37 29 33 43 45 45 44 42 41 40 40 41 43 44 45 46 47 49 52 55 67 67 67 67 64 63 63 63 64 63 63 64 64 63 63 64 63 63 63 63 62 62 61
33 26 36 29 31 24 29 38 42 38 37 39 36 38 37 36 36 36 40 42 43 43 44 47 49 51 54 66 66 65 62 61 61 61 62 62 62 60 62 63 62 62 62 62 62 61 61 61 61
37 41 24 27 19 17 29 32 27 30 32 35 34 34 34 35 33 35 37 39 41 42 43 44 47 48 51 58 63 62 61 61 60 60 59 59 59 60 60 60 61 61 61 62 62 62 62 61 61
33 32 33 33 31 21 22 24 32 30 31 32 33 34 32 33 32 35 36 38 39 41 41 43 45 46 47 50 57 60 60 59 59 59 58 59 59 59 60 60 60 60 60 61 61 61 61 60 60
39 34 33 27 26 32 29 23 34 32 32 32 33 35 35 32 34 35 35 36 37 37 39 41 43 44 46 48 52 59 59 59 59 58 58 58 58 58 58 58 58 58 58 59 60 60 61 60 60

GFSSGP_sfc_temp_108.txt.gz
Temp
61 60 60 60 49 42 36 45 46 51 53 59 64 64 64 65 65 59 70 72 71 71 72 73 73 74 74 75 75 75 75 76 76 75 75 75 76 76 76 76 76 77 78 79 78 78 78 77 75
61 64 60 51 41 35 41 45 50 54 62 65 66 66 64 66 72 70 68 72 72 72 72 72 73 73 74 74 75 75 76 76 76 75 75 76 76 76 75 75 75 76 77 78 78 78 77 75 74
63 64 55 47 36 38 41 49 53 58 63 62 63 65 66 68 75 72 72 72 72 73 73 72 72 73 73 74 74 75 75 75 75 75 76 76 76 76 75 75 75 76 77 78 78 77 75 73 72
60 58 52 42 37 44 48 53 56 59 63 63 63 63 69 76 74 73 72 72 71 71 72 71 71 72 73 74 74 74 74 73 74 74 75 75 76 75 75 74 75 76 77 78 78 75 73 72 71
55 50 40 34 38 46 50 54 57 57 61 64 62 62 63 74 75 72 71 73 70 70 70 71 70 72 73 74 74 73 73 73 73 74 74 75 75 75 74 74 74 75 76 76 76 73 72 71 71
50 47 36 33 39 49 53 55 58 59 62 64 61 60 65 72 71 70 70 69 70 69 69 70 71 72 72 73 73 72 72 72 73 73 73 74 74 73 73 73 74 74 74 74 73 72 72 71 71
47 42 35 35 40 47 53 59 57 58 56 61 65 60 65 71 70 70 68 67 67 68 70 70 70 71 71 70 70 70 71 71 72 72 72 73 72 72 73 73 73 73 72 72 72 71 71 71 70
48 45 34 39 44 45 57 59 59 57 60 69 66 59 61 67 68 68 66 65 65 67 70 71 72 69 69 70 69 69 70 70 70 71 71 70 70 71 72 71 72 72 72 72 71 71 71 70 69
50 40 33 41 45 48 58 56 60 62 60 63 66 66 69 71 69 67 65 64 63 64 68 70 71 70 68 70 70 70 70 70 70 70 70 68 70 70 71 70 70 71 70 70 71 70 70 69 69
47 36 40 50 51 50 55 50 57 58 58 59 62 66 70 68 66 66 63 62 63 63 63 69 70 71 72 72 71 70 71 71 71 71 70 70 68 68 70 70 69 69 69 69 70 69 68 68 65
43 40 48 51 54 53 51 54 57 55 54 58 60 62 67 65 65 66 65 65 64 64 64 66 69 70 70 70 70 71 71 70 68 70 70 71 69 67 68 68 68 67 68 67 68 67 67 65 64
42 49 50 50 54 54 54 55 55 56 58 63 64 64 63 66 64 66 65 66 66 66 65 65 65 68 69 69 70 70 70 70 67 68 68 69 69 68 67 67 66 66 66 64 65 65 64 64 64
45 48 51 54 55 54 56 52 54 56 61 63 63 63 61 62 64 65 67 65 64 67 68 66 65 67 68 67 69 70 70 70 68 67 68 69 69 68 68 67 66 65 64 64 63 63 63 62 63
48 48 49 50 53 52 52 54 52 57 61 61 60 60 61 60 63 63 63 69 66 66 67 68 66 66 66 68 66 68 70 70 68 68 68 70 70 69 68 66 66 64 64 63 63 63 63 62 62
49 44 46 49 46 48 50 44 47 54 57 57 57 58 59 61 62 61 64 63 64 66 68 66 67 67 66 67 65 66 67 69 70 71 68 70 71 69 68 67 66 66 63 62 61 60 60 60 61
43 40 35 43 49 50 46 41 50 52 57 56 55 57 60 60 61 64 63 64 65 64 66 67 69 67 67 66 66 65 65 66 68 70 70 70 71 68 67 66 66 66 64 62 61 61 60 61 61
35 30 31 38 44 45 44 41 47 56 53 53 55 53 55 60 62 62 63 64 66 66 65 66 66 67 67 67 67 66 66 67 68 70 70 69 69 68 66 66 66 65 64 63 62 60 61 61 61
29 30 28 30 42 44 39 41 49 50 50 52 53 54 55 57 61 65 66 62 63 66 63 63 66 68 67 68 67 66 66 66 68 68 69 68 68 67 67 65 65 65 63 63 62 61 62 62 62
37 34 33 37 43 40 39 41 46 50 49 49 51 54 55 55 63 62 61 60 59 58 60 62 63 68 67 67 66 66 66 66 66 67 67 68 68 67 67 65 64 64 63 63 63 63 61 60 61
37 34 32 38 43 41 39 40 46 49 48 50 53 54 55 55 48 53 56 57 55 58 57 59 61 65 68 70 70 69 68 67 68 67 67 67 68 67 67 65 64 64 63 63 63 63 61 61 61
36 33 34 36 39 40 38 36 41 48 52 54 54 57 50 45 46 48 50 50 50 50 51 55 58 64 68 70 70 67 66 65 64 65 66 66 67 67 67 66 65 64 64 63 63 63 62 60 60
31 42 40 38 33 28 38 25 38 43 46 50 54 55 44 45 47 48 48 50 50 50 50 52 55 59 67 68 68 68 66 65 67 67 67 67 66 66 67 66 65 64 64 63 63 63 63 62 59
36 43 39 37 31 30 33 27 35 43 41 45 44 43 43 44 45 46 47 48 50 52 50 50 52 55 65 67 69 67 66 68 67 66 66 66 66 66 66 66 65 64 64 64 63 63 63 62 62
44 38 37 35 29 22 32 28 30 35 35 38 42 43 43 43 43 44 46 47 46 48 49 49 54 57 62 66 68 66 66 65 63 65 64 65 65 65 65 65 65 65 64 64 63 63 63 62 62
37 30 18 16 18 20 34 29 31 35 36 36 36 38 39 39 39 39 39 40 43 44 46 48 51 54 61 64 66 66 66 65 64 65 65 64 64 64 64 64 64 64 64 64 64 63 63 62 61
29 30 23 15 18 22 34 25 31 38 40 38 37 37 36 37 37 37 36 39 40 42 43 45 48 50 53 63 67 66 64 63 63 64 65 65 64 64 64 64 65 65 64 64 63 63 63 63 62
30 26 34 27 29 22 25 32 38 38 37 36 35 35 33 32 34 35 36 36 38 40 42 43 45 47 50 53 63 64 64 63 62 63 64 65 63 62 62 63 64 64 63 63 62 62 62 62 62
34 38 23 27 13 15 23 26 23 28 30 33 31 31 31 32 32 32 34 34 36 38 40 43 44 45 48 50 53 63 62 62 61 61 61 62 62 61 62 62 62 62 62 62 62 61 62 61 61
31 29 30 30 27 19 15 20 31 28 29 29 30 31 30 30 30 30 32 34 33 37 38 40 42 43 45 48 51 59 61 61 61 61 61 61 60 60 60 61 60 60 60 60 60 61 61 60 61
36 31 30 21 25 30 25 21 32 30 30 30 30 32 32 30 29 30 30 33 33 35 37 37 41 42 43 47 51 59 59 60 60 59 59 59 59 59 59 59 59 59 59 59 60 60 60 60 60

GFSSGP_sfc_temp_111.txt.gz
Temp
70 71 74 74 65 61 56 60 61 64 65 72 72 72 74 76 72 69 81 80 79 79 80 78 73 74 74 75 75 75 76 76 76 76 76 76 76 76 76 76 76 77 78 79 79 79 78 78 76
72 73 73 66 60 55 59 60 60 68 71 72 73 74 73 73 80 84 82 79 80 81 80 80 73 74 74 74 75 75 76 76 76 76 76 76 76 76 76 76 76 77 78 78 79 79 77 76 74
73 72 70 64 56 56 59 61 65 68 70 70 72 76 75 76 83 84 83 80 79 80 81 80 73 73 74 74 74 75 75 75 75 75 76 76 76 76 76 75 75 76 78 78 79 78 75 74 72
72 72 64 58 54 57 61 63 64 68 71 72 73 71 79 82 80 81 81 79 79 80 81 74 72 72 73 74 74 74 74 74 74 75 76 76 76 76 75 75 75 76 77 78 78 76 74 72 72
68 65 57 52 52 57 60 63 66 65 67 71 71 70 73 81 82 81 77 78 78 79 79 76 72 72 73 74 74 74 73 73 73 74 74 75 76 75 74 74 75 76 76 77 76 73 72 71 71
64 62 53 51 52 58 63 65 67 67 69 71 70 71 74 81 79 77 77 77 78 77 78 76 72 72 72 73 73 72 72 72 73 73 74 74 74 74 74 74 74 74 74 75 74 72 72 71 71
61 58 51 49 52 57 61 67 66 67 68 70 73 68 75 80 76 75 75 75 75 75 76 75 75 74 70 70 70 70 71 72 72 72 72 73 72 72 73 73 73 74 73 73 72 71 71 71 70
61 60 48 51 53 56 64 66 69 68 67 74 76 67 69 78 76 74 74 73 71 72 75 76 74 74 75 76 69 70 70 70 71 71 71 70 71 71 72 72 73 73 72 72 71 71 71 70 69
60 54 48 53 53 58 64 61 68 70 69 69 73 72 77 79 79 76 74 72 72 69 71 74 74 73 75 76 75 71 70 70 70 72 70 70 78 78 76 74 71 71 71 71 71 70 70 69 69
58 50 51 58 60 59 61 61 64 63 65 66 69 73 76 78 79 77 75 73 71 70 68 71 72 72 74 76 75 76 76 77 78 78 78 77 77 77 78 74 69 69 69 69 70 69 69 70 78
54 52 55 58 61 62 62 62 66 63 60 65 65 69 72 74 74 73 76 76 76 75 73 70 70 71 72 74 73 75 75 74 74 74 75 76 75 76 75 77 77 78 71 76 73 73 75 77 77
52 56 57 59 61 59 58 63 61 63 63 70 71 71 69 70 72 73 72 76 76 75 76 74 72 70 70 72 73 74 75 74 71 72 72 73 72 72 74 77 76 76 76 76 74 74 74 75 76
52 56 57 60 59 59 61 59 60 61 68 70 68 67 67 67 70 73 74 75 75 75 76 74 73 72 71 69 71 73 73 73 71 72 72 72 72 72 73 74 76 77 76 75 73 73 74 74 74
55 55 56 57 59 59 57 59 58 62 65 65 65 67 67 67 69 70 72 73 74 76 76 76 74 74 73 70 69 71 71 72 71 73 74 72 73 72 72 72 74 75 75 74 74 73 73 74 74
55 50 53 58 58 56 56 54 53 60 63 63 64 66 67 68 69 69 72 70 73 75 77 76 74 74 72 72 71 71 72 72 70 74 75 74 75 74 72 71 71 73 72 72 72 72 73 73 72
49 48 45 52 53 55 57 48 57 60 61 60 61 63 64 67 68 69 70 71 74 75 74 76 76 74 72 72 72 72 71 73 73 75 76 75 75 76 72 69 69 70 69 70 71 71 71 71 71
44 42 41 46 53 51 52 47 56 62 59 58 61 62 63 65 68 69 69 72 74 76 74 73 74 74 73 73 73 72 72 72 74 75 75 75 75 72 71 70 68 68 68 67 69 70 71 70 69
41 40 40 42 49 52 49 48 55 58 58 58 59 61 61 62 65 70 69 71 71 72 71 71 72 73 74 74 72 71 70 72 74 74 74 73 72 71 71 69 67 67 66 65 65 66 68 70 70
43 41 40 45 50 45 46 48 52 56 56 56 58 60 61 62 67 68 63 62 62 64 65 68 69 69 73 73 69 68 66 69 71 72 72 72 71 70 69 70 67 67 66 65 64 65 64 64 65
43 40 40 45 48 47 47 46 52 54 54 57 58 59 61 62 63 59 58 57 57 58 59 61 63 66 70 76 75 74 72 70 71 69 69 70 70 70 68 69 67 66 66 65 64 64 62 63 64
41 40 40 40 45 48 45 43 49 55 56 57 57 52 51 50 50 52 54 54 55 56 56 58 60 62 64 71 76 75 73 71 66 66 67 68 69 70 68 68 67 66 66 65 65 64 64 61 62
37 45 44 41 39 34 45 31 44 49 50 47 46 46 45 45 46 48 49 50 52 54 55 56 57 59 62 65 73 72 72 69 70 70 70 68 68 69 69 68 67 66 66 66 65 65 65 65 61
41 46 42 42 38 36 38 32 42 49 43 39 41 42 42 42 41 42 43 45 47 49 49 51 54 57 61 64 69 73 72 74 75 72 70 68 67 68 69 68 67 66 66 66 65 64 65 65 64
45 42 41 40 36 27 36 35 37 36 34 35 39 41 40 39 39 40 42 43 43 46 46 47 49 53 59 63 66 71 72 72 73 71 68 67 67 66 66 67 66 66 66 66 65 65 65 64 64
41 36 27 24 24 25 37 34 38 35 37 37 36 37 39 40 37 36 37 38 40 41 42 44 47 48 53 57 65 71 72 72 72 71 71 68 66 65 65 66 65 66 66 66 66 65 64 64 63
36 34 27 18 22 28 37 30 36 39 42 41 40 39 39 38 36 34 36 37 36 38 40 41 45 45 49 52 58 70 69 69 71 72 72 70 69 67 67 66 66 66 65 66 66 66 64 64 63
34 29 39 30 32 26 31 35 37 39 38 38 35 37 35 34 34 32 34 35 36 36 37 40 42 45 47 49 52 65 68 67 68 70 71 70 70 67 66 67 65 65 65 65 66 65 63 63 63
39 42 28 30 18 18 30 32 32 28 30 33 31 31 32 32 31 31 31 32 35 36 36 39 42 43 45 47 51 54 67 66 66 68 69 70 69 67 65 65 65 64 64 65 64 64 64 63 63
33 32 34 34 31 24 23 26 31 27 29 28 30 31 30 30 29 29 30 31 32 33 34 36 38 41 43 45 48 54 62 64 65 65 68 69 66 65 65 66 67 64 62 63 63 63 62 61 62
38 35 31 25 25 29 27 25 31 29 29 29 31 31 32 30 29 29 29 30 31 31 32 34 35 37 41 45 47 49 53 61 61 61 61 62 62 64 65 64 62 61 61 62 61 60 61 61 62

GFSSGP_sfc_temp_117.txt.gz
Temp
78 88 96 91 76 78 75 81 88 82 83 88 89 85 84 87 83 77 102 99 96 96 92 83 74 75 75 76 76 76 76 77 76 76 76 76 76 76 76 76 76 78 79 79 79 79 79 78 77
92 92 92 86 72 72 77 87 81 85 87 86 87 87 85 82 91 93 94 97 96 96 94 89 74 74 75 75 75 76 77 77 76 76 76 76 76 76 76 76 76 77 78 79 79 79 78 76 75
87 92 83 79 75 71 76 85 84 86 85 85 84 89 87 84 90 91 96 95 95 95 96 90 73 74 75 75 75 76 76 76 76 76 76 76 76 76 76 76 76 77 78 79 79 79 76 74 74
88 87 84 72 72 81 81 85 83 83 85 86 86 81 90 91 89 94 96 95 93 95 96 76 72 73 74 75 75 75 75 74 75 75 76 76 76 76 76 75 76 77 78 79 78 77 74 73 73
89 85 73 72 74 81 87 87 84 80 82 83 86 82 85 92 94 94 93 93 92 94 95 84 71 72 74 75 75 74 74 74 74 75 75 76 76 76 75 75 75 76 77 77 76 74 73 72 72
79 82 70 69 76 83 85 87 84 82 84 85 83 83 86 95 92 92 93 91 90 92 93 86 74 72 73 74 74 73 73 73 74 74 74 75 75 74 74 74 74 75 75 75 74 73 72 72 72
75 76 70 72 74 78 80 85 80 81 83 83 86 76 87 91 92 93 94 92 89 89 90 84 82 78 71 71 71 71 72 72 73 73 73 74 73 73 74 74 74 74 74 74 73 72 72 72 71
81 77 70 73 71 72 83 83 83 81 80 86 86 77 80 88 91 93 93 92 87 86 87 86 82 83 82 82 71 71 71 71 72 72 72 72 72 72 73 73 73 74 73 73 72 72 71 71 70
83 69 67 71 72 75 83 76 83 85 80 83 84 83 87 90 91 91 90 90 89 83 81 82 81 82 85 86 80 72 71 71 71 73 71 72 83 81 79 77 72 72 72 72 71 71 70 70 69
74 69 71 79 77 74 77 78 79 78 78 78 81 87 88 89 88 85 86 86 88 87 81 77 77 78 85 89 84 83 83 83 82 83 81 83 84 84 85 79 71 71 70 70 70 70 69 70 80
74 67 75 77 78 76 74 74 79 74 71 78 77 80 84 84 83 83 86 87 88 90 87 80 76 76 78 85 88 86 87 85 84 84 84 83 86 86 85 85 82 80 72 78 75 74 78 80 83
69 74 75 76 77 74 71 76 72 75 75 81 82 83 81 80 81 83 83 87 87 87 88 85 81 78 78 83 87 87 89 87 86 85 84 85 85 84 85 85 83 81 83 81 80 80 80 82 83
70 72 75 76 74 72 73 69 70 72 80 83 84 79 79 80 81 85 87 87 87 86 86 85 84 81 79 78 82 81 83 86 87 87 86 86 86 84 85 86 86 83 85 82 81 79 80 80 82
74 72 72 74 73 72 68 69 71 75 80 78 78 79 79 80 81 83 84 85 86 87 87 86 85 84 81 80 81 80 82 87 84 85 84 85 86 83 85 86 87 87 88 82 83 81 76 78 79
70 64 69 72 73 71 71 63 65 76 78 74 76 79 79 81 83 82 84 84 85 87 88 86 85 85 83 80 82 80 83 84 87 85 82 77 83 84 82 81 86 87 89 81 82 81 78 75 77
65 66 59 72 69 71 66 58 73 76 74 74 76 77 78 80 82 84 84 84 86 87 86 86 86 84 83 84 84 83 83 83 86 86 83 80 76 83 82 77 81 87 87 84 78 78 78 73 73
65 57 60 65 71 67 66 61 71 75 73 71 74 75 77 78 81 83 83 83 84 84 81 80 80 80 81 81 84 83 83 83 85 86 84 82 80 80 83 81 77 82 85 83 79 75 76 76 77
58 60 64 61 68 68 63 63 70 74 74 71 73 75 75 76 78 76 76 76 76 76 76 76 77 77 78 79 80 84 84 84 82 84 85 82 83 80 80 82 79 77 80 79 80 76 75 75 76
62 58 57 63 69 64 62 62 67 72 73 72 73 74 75 73 73 72 71 71 71 71 70 71 71 73 74 77 78 81 81 83 83 82 84 83 84 83 80 82 81 77 74 74 75 77 75 73 75
58 55 56 62 67 62 60 60 66 70 71 73 72 71 68 67 67 67 67 67 66 66 66 67 67 69 71 74 76 79 82 85 85 85 83 84 84 83 82 81 83 78 75 70 71 72 72 75 76
56 54 55 55 60 63 59 57 63 71 69 70 67 65 65 63 62 63 63 63 63 62 63 63 64 65 67 68 71 74 77 78 82 81 81 83 83 83 81 81 82 81 76 73 70 69 69 67 71
51 61 58 54 51 46 60 44 57 64 66 65 63 60 60 60 60 60 60 60 60 60 62 62 61 61 63 65 65 67 70 74 82 82 81 81 81 82 82 81 81 80 76 73 71 71 69 68 65
53 59 54 53 50 49 50 45 54 63 61 60 56 55 56 58 57 56 56 56 58 59 58 58 57 58 60 61 61 62 65 71 76 78 80 79 80 80 81 80 79 77 75 74 72 69 68 69 68
59 54 52 51 47 36 47 48 51 53 48 51 52 53 53 54 54 54 54 53 53 55 54 53 53 55 57 57 57 56 58 63 69 73 77 76 77 78 78 78 76 74 73 73 73 70 69 68 68
53 47 37 35 37 36 53 49 51 51 51 48 48 50 51 51 50 49 48 47 47 47 48 48 48 49 51 52 53 53 54 58 63 67 72 76 75 75 75 74 71 73 73 72 72 68 68 68 67
52 49 38 28 32 39 53 42 49 53 54 52 49 49 47 46 46 44 42 42 42 42 43 42 42 44 47 47 48 49 51 54 61 67 72 71 79 78 76 74 71 70 73 71 70 69 68 67 67
48 43 51 38 40 35 42 50 52 50 48 47 44 45 41 42 40 40 40 39 38 38 38 39 38 40 42 41 42 44 48 51 55 65 72 76 77 80 76 74 69 69 69 70 68 67 66 67 67
48 53 37 38 24 26 39 44 34 31 35 39 38 40 39 39 37 37 36 36 36 36 37 38 36 37 38 39 41 44 46 51 55 64 71 75 78 79 74 72 68 67 67 67 67 66 67 66 66
46 40 42 43 38 30 29 30 33 29 31 33 38 41 38 37 35 34 33 34 33 35 34 35 34 35 36 38 40 42 47 50 54 64 71 75 76 76 75 72 67 67 66 66 66 66 65 65 65
50 46 44 32 32 36 36 33 36 33 35 36 36 38 41 38 37 35 33 32 31 31 32 31 32 33 34 36 39 44 45 47 50 58 71 74 73 74 74 73 71 69 65 65 64 64 64 64 64

GFSSGP_sfc_temp_120.txt.gz
Temp
74 85 89 86 70 72 69 75 87 83 83 87 88 84 81 85 81 72 94 93 93 92 84 79 74 75 76 76 76 76 76 76 76 76 76 76 76 76 76 76 77 77 79 79 79 79 79 78 76
86 90 89 80 66 64 71 84 82 82 84 87 87 86 84 82 90 90 88 92 94 93 85 83 74 75 75 75 75 76 77 76 76 76 76 76 76 76 76 76 76 77 78 79 79 79 79 76 75
79 89 78 73 69 64 70 83 82 84 86 85 84 89 86 82 88 88 92 92 94 94 89 84 73 74 75 75 75 75 76 75 75 75 76 76 76 76 76 75 76 77 78 79 79 79 76 75 74
84 84 80 67 65 75 79 84 84 84 85 86 86 81 90 91 89 91 93 93 92 94 93 72 72 73 74 75 75 75 75 74 75 75 76 76 76 76 76 75 76 77 77 78 79 77 75 73 73
86 80 68 67 69 77 83 87 88 81 82 84 85 80 84 89 93 92 91 91 88 88 82 78 72 73 74 75 75 75 74 74 74 75 75 75 76 76 75 75 75 76 77 77 76 75 74 73 72
75 78 65 64 71 80 85 88 85 83 83 84 83 82 84 92 89 90 91 88 88 87 84 78 73 73 73 74 74 73 73 73 74 74 74 75 75 74 74 74 75 75 75 75 74 73 73 72 72
71 70 65 68 70 74 80 87 81 80 80 81 84 77 85 85 88 89 89 88 86 86 84 79 77 75 72 72 72 71 72 73 73 73 73 74 73 73 74 74 74 74 74 74 73 72 72 72 72
77 73 65 68 68 70 83 84 83 80 78 86 86 75 76 85 88 88 87 87 83 84 84 80 79 78 77 75 71 71 71 72 72 72 72 72 72 72 73 73 73 73 73 73 72 72 71 71 71
83 65 61 67 70 74 82 78 84 86 80 82 83 83 85 89 89 85 82 83 82 81 81 80 79 79 78 79 75 71 72 72 71 72 72 70 76 74 74 74 72 73 71 72 72 71 70 70 70
72 65 67 77 78 75 77 76 77 75 76 77 79 85 88 87 84 79 80 78 81 81 78 77 77 77 79 84 77 76 76 75 75 76 74 76 77 77 79 75 70 71 70 70 70 70 69 69 72
73 65 72 75 78 78 75 74 78 73 70 75 73 76 81 82 79 78 79 82 81 84 79 77 75 74 77 80 78 78 78 77 76 77 76 76 78 77 77 76 74 72 69 72 70 69 71 72 74
68 73 74 75 78 74 72 75 71 73 72 79 80 81 80 78 78 79 77 81 81 80 81 77 76 74 74 77 76 79 79 77 77 77 77 76 77 76 77 77 75 74 73 73 72 71 71 72 74
70 73 75 76 76 75 75 70 69 70 75 79 81 81 78 78 79 81 82 82 81 81 81 79 77 74 74 75 74 74 78 78 78 77 78 78 77 76 77 78 77 76 75 74 72 73 73 73 74
72 72 72 73 72 73 70 70 71 72 77 77 77 77 78 79 79 79 79 79 79 81 80 80 79 77 76 74 73 74 74 75 78 78 78 77 77 76 77 77 77 76 78 76 74 73 73 73 74
70 64 68 69 72 71 74 65 65 75 77 75 74 76 77 78 80 78 79 78 79 80 81 78 78 79 77 75 73 73 74 75 74 77 77 78 77 77 77 77 76 77 78 76 73 74 73 72 73
63 64 56 68 73 72 69 56 69 77 74 73 74 75 76 77 79 80 79 77 76 75 73 73 75 72 71 72 74 73 73 73 76 75 78 77 75 76 75 75 74 76 75 77 73 73 70 70 70
61 52 57 64 73 70 66 59 70 76 74 71 72 73 74 75 78 73 73 71 71 71 70 69 69 70 70 70 72 73 74 73 75 78 77 75 75 76 75 76 75 74 74 75 75 73 71 70 69
54 56 60 59 69 69 65 63 68 73 73 71 73 74 73 74 71 70 69 69 69 68 67 67 68 67 67 69 70 72 73 76 76 77 79 77 76 75 75 75 74 74 73 72 75 72 70 71 70
61 59 57 62 67 63 62 63 66 70 70 70 72 73 73 74 70 69 67 66 65 65 64 64 63 64 65 66 66 68 69 74 76 78 78 77 77 75 74 75 74 73 73 72 73 72 69 69 69
60 56 54 59 65 63 61 60 65 67 68 70 71 71 65 65 65 65 65 64 62 62 61 61 63 62 62 64 65 65 65 68 70 76 77 78 76 76 75 74 74 73 72 72 70 72 69 69 69
57 54 54 54 60 62 58 54 59 67 71 73 69 66 63 60 59 59 60 59 58 57 58 59 60 60 60 60 62 64 66 67 68 70 74 77 77 76 76 74 74 75 73 71 71 70 70 67 68
50 60 58 55 51 43 57 41 53 60 62 66 60 58 57 57 58 57 56 55 54 55 55 56 56 56 58 58 57 57 58 59 63 66 71 76 77 77 77 75 75 75 74 72 70 71 71 68 66
54 60 56 54 49 47 47 43 50 58 56 51 53 54 54 55 54 53 52 52 52 52 50 50 51 52 52 54 55 54 54 57 61 63 65 68 72 75 76 74 74 74 73 72 70 69 69 70 69
61 54 53 52 48 36 45 45 46 49 49 48 51 52 51 51 50 50 50 49 48 48 46 46 46 47 48 49 50 51 51 52 53 56 59 63 66 71 74 75 73 74 72 71 70 68 68 68 69
56 47 34 33 35 34 50 47 41 48 48 48 46 47 47 47 46 45 43 42 42 42 42 43 43 42 44 45 46 47 48 49 50 52 55 59 62 65 71 72 72 73 72 72 70 68 68 68 68
49 47 36 26 29 35 47 38 40 51 50 48 48 47 45 43 42 41 40 40 39 39 39 39 39 38 40 41 43 44 45 46 48 50 53 57 61 65 69 71 72 73 72 72 70 70 68 68 67
46 41 51 39 41 33 39 46 47 46 43 43 44 43 41 40 39 38 39 38 37 37 37 37 36 36 37 38 39 41 43 44 46 48 52 54 58 65 67 69 70 71 70 70 70 68 67 67 67
49 52 36 39 24 23 36 38 29 31 34 38 38 38 39 39 37 37 36 35 36 36 36 36 36 34 34 36 38 39 42 44 46 48 49 52 55 61 67 66 69 68 68 67 66 67 66 66 65
46 42 42 41 36 26 25 30 32 30 32 33 37 39 37 36 35 34 33 34 35 35 34 34 34 33 33 35 38 39 43 45 47 49 51 52 55 59 65 66 63 61 65 66 66 66 65 65 65
51 45 44 31 29 36 33 29 36 34 36 37 36 38 38 36 34 33 32 32 32 32 33 33 32 32 32 34 38 39 41 42 43 44 47 53 57 61 65 67 66 64 66 66 66 65 64 64 63

GFSSGP_sfc_temp_123.txt.gz
Temp
66 70 67 68 55 51 46 58 64 67 67 70 76 75 72 71 71 59 81 84 86 79 77 76 73 75 75 75 75 75 76 76 76 76 76 76 76 76 76 76 76 77 78 79 78 78 78 77 76
67 76 69 62 49 42 49 65 63 68 73 78 79 78 76 72 81 78 76 84 86 81 77 75 74 74 75 75 75 75 76 76 76 76 76 76 76 76 76 76 76 77 78 78 78 78 78 76 75
70 75 61 54 48 45 50 63 66 71 78 77 75 79 76 73 80 79 80 84 85 81 80 77 73 73 74 75 75 75 75 75 75 75 76 76 76 76 76 75 75 76 77 78 79 78 76 75 74
69 66 63 51 49 58 62 71 71 72 76 79 77 72 78 81 80 80 82 85 81 81 82 72 72 73 74 74 74 75 74 73 74 74 75 76 76 76 75 75 75 76 77 78 78 76 75 73 73
66 60 50 47 53 62 69 73 73 73 75 77 76 70 73 79 83 82 80 83 79 76 75 74 71 73 74 74 75 74 74 73 73 74 74 75 75 75 75 74 75 75 76 77 76 75 73 73 72
58 59 47 46 55 65 68 71 74 74 74 75 73 71 70 78 80 80 79 79 79 76 75 74 73 73 73 73 73 73 73 73 73 73 74 75 74 74 74 74 74 75 75 74 74 73 73 72 72
55 52 48 52 57 62 69 73 71 71 70 71 76 70 72 77 79 80 79 77 78 76 74 71 72 73 72 71 71 71 72 72 73 73 73 73 73 73 73 73 74 74 73 73 73 72 72 72 71
61 56 51 51 56 58 70 72 72 71 72 80 78 68 66 73 77 77 77 75 75 76 73 72 71 71 70 70 70 71 71 71 72 72 72 71 71 72 72 72 73 73 73 72 72 71 71 71 71
62 49 45 52 56 61 72 69 71 74 70 75 78 75 78 79 77 75 73 73 72 75 72 72 71 71 70 70 72 71 71 71 71 71 71 69 72 72 72 72 71 72 71 71 71 71 70 70 70
56 47 51 62 62 60 67 62 66 67 67 68 71 74 78 78 73 71 72 71 71 70 71 72 72 71 72 77 70 69 71 71 71 71 72 71 71 71 73 72 70 71 69 70 70 70 69 69 67
56 51 61 66 66 67 61 64 66 62 60 66 65 70 75 73 72 72 73 73 71 70 72 72 72 72 73 74 70 70 69 69 70 71 71 71 73 72 72 72 71 70 69 69 69 68 68 68 68
54 63 65 65 68 65 62 65 63 64 64 69 69 71 71 72 72 71 72 73 71 73 71 71 72 71 71 71 71 72 72 70 70 71 71 71 72 71 72 71 70 69 69 68 68 67 67 67 69
58 61 66 67 65 64 66 62 62 63 67 70 72 73 69 68 70 73 72 72 73 72 72 70 71 70 71 72 69 70 72 71 73 72 73 73 71 70 71 71 71 70 69 70 68 68 68 68 68
63 63 62 65 64 64 63 62 58 65 67 68 69 67 69 68 69 69 71 71 69 67 67 68 67 68 69 68 67 68 69 71 71 74 75 74 74 71 71 71 72 71 71 71 70 69 68 68 68
63 56 59 61 64 60 64 56 57 65 67 67 65 66 68 67 69 63 63 64 65 65 66 66 67 67 65 64 67 68 69 71 68 71 73 75 74 74 72 72 70 72 73 71 71 69 69 67 68
55 54 46 59 63 65 60 49 58 64 62 59 63 65 65 65 62 62 63 63 64 64 63 64 66 64 64 64 63 63 66 67 70 71 70 75 75 75 72 73 72 72 73 72 71 70 68 68 68
51 42 48 54 64 60 55 50 61 64 64 62 62 62 64 63 60 61 62 61 61 61 62 61 62 61 61 63 64 65 63 64 67 69 71 73 72 74 70 73 73 70 71 71 72 69 70 68 66
43 46 49 49 58 56 52 51 57 64 63 59 56 59 60 57 57 61 59 59 59 58 59 59 60 60 60 60 61 62 63 62 63 68 69 72 75 75 74 69 68 70 67 68 71 70 69 69 68
53 51 48 52 59 56 53 53 55 60 57 55 58 56 56 55 58 58 57 55 55 55 55 56 56 57 57 57 56 56 56 60 60 61 66 70 73 74 71 72 67 68 70 69 68 69 67 66 67
52 48 47 53 59 56 51 49 54 56 57 58 58 52 52 52 53 55 53 52 51 51 51 51 51 52 53 54 55 56 56 58 60 63 63 65 69 72 72 69 71 70 70 68 68 69 67 67 67
50 48 47 48 52 50 48 46 50 57 60 56 54 53 51 49 48 49 49 47 47 46 46 47 47 48 49 51 52 53 55 55 55 58 60 63 67 71 71 72 71 71 69 69 70 69 69 66 66
44 53 53 50 43 34 46 31 45 53 52 49 49 47 46 46 47 47 45 44 43 43 44 44 45 44 47 48 46 45 46 48 52 53 57 58 61 65 69 73 72 72 71 69 69 70 69 67 65
47 54 49 47 40 38 42 31 42 51 42 43 44 44 43 44 43 42 42 41 42 42 41 41 42 43 44 43 44 42 43 48 50 51 51 54 57 61 65 67 71 70 69 70 69 70 67 68 68
55 49 46 43 37 28 39 37 33 36 40 41 43 43 42 40 40 39 40 40 39 39 39 38 39 40 41 41 41 40 40 44 46 48 47 49 52 56 61 64 66 71 70 69 70 69 69 67 66
47 39 24 23 24 26 44 40 37 40 41 41 40 40 41 39 37 36 37 36 36 35 36 37 38 38 39 38 38 39 41 42 43 44 46 47 48 51 56 61 63 66 70 70 70 67 67 65 64
43 40 28 22 21 27 41 32 33 41 43 44 42 40 39 37 37 35 35 34 34 35 35 36 36 36 37 36 36 38 40 41 42 44 45 46 48 50 53 56 60 65 67 69 70 68 65 62 62
42 33 45 34 34 28 32 35 38 41 38 39 39 38 34 33 33 33 33 33 33 34 34 35 35 35 36 35 36 37 39 40 41 43 45 46 48 51 51 54 57 61 65 67 68 68 67 65 64
44 47 28 28 21 20 28 33 29 30 31 35 35 34 33 32 31 31 31 31 33 33 35 35 35 34 34 35 36 38 40 42 44 45 45 46 48 50 50 51 53 58 63 66 65 67 68 67 64
40 34 37 34 30 20 15 17 32 28 32 32 35 36 32 31 29 29 30 31 32 33 33 34 33 33 33 34 35 37 39 41 42 43 45 46 48 49 51 52 53 57 61 62 60 62 65 65 64
44 40 38 22 26 30 28 21 34 31 34 35 35 36 35 32 28 28 29 30 31 31 32 32 32 32 32 34 35 35 37 39 40 39 41 43 44 49 52 54 54 58 56 57 57 58 62 58 63